[[{"header":{"parameterUnit":"m.s-1","parameterCategory":1,"la1":30.6,"la2":28.766,"lo1":-90.7593,"lo2":-88.6598,"dy":0.0162,"dx":0.0183,"nx":116,"ny":114,"refTime":"2024-04-12T06:00:00:Z","depth":0,"parameterNumber":2,"parameterNumberName":"U-component_of_WINDS"},"data":[0.0,0.0,0.0,0.0,0.0,0.0,0.0,0.0,0.0,0.0,0.0,0.0,0.0,0.0,0.0,0.0,0.0,0.0,0.0,0.0,0.0,0.0,0.0,0.0,0.0,0.0,0.0,0.0,0.0,0.0,0.0,0.0,0.0,0.0,0.0,0.0,0.0,0.0,0.0,0.0,0.0,0.0,0.0,0.0,0.0,0.0,0.0,0.0,0.0,0.0,0.0,0.0,0.0,0.0,0.0,0.0,0.0,0.0,0.0,0.0,0.0,0.0,0.0,0.0,0.0,0.0,0.0,0.0,0.0,0.0,0.0,0.0,0.0,0.0,0.0,0.0,0.0,0.0,0.0,0.0,0.0,0.0,0.0,0.0,0.0,0.0,0.0,0.0,0.0,0.0,0.0,0.0,0.0,0.0,0.0,0.0,0.0,0.0,0.0,0.0,0.0,0.0,0.0,0.0,0.0,0.0,0.0,0.0,0.0,0.0,0.0,0.0,0.0,0.0,0.0,0.0,0.0,0.0,0.0,0.0,0.0,0.0,0.0,0.0,0.0,0.0,0.0,0.0,0.0,0.0,0.0,0.0,0.0,0.0,0.0,0.0,0.0,0.0,0.0,0.0,0.0,0.0,0.0,0.0,0.0,0.0,0.0,0.0,0.0,0.0,0.0,0.0,0.0,0.0,0.0,0.0,0.0,0.0,0.0,0.0,0.0,0.0,0.0,0.0,0.0,0.0,0.0,0.0,0.0,0.0,0.0,0.0,0.0,0.0,0.0,0.0,0.0,0.0,0.0,0.0,0.0,0.0,0.0,0.0,0.0,0.0,0.0,0.0,0.0,0.0,0.0,0.0,0.0,0.0,0.0,0.0,0.0,0.0,0.0,0.0,0.0,0.0,0.0,0.0,0.0,0.0,0.0,0.0,0.0,0.0,0.0,0.0,0.0,0.0,0.0,0.0,0.0,0.0,0.0,0.0,0.0,0.0,0.0,0.0,0.0,0.0,0.0,0.0,0.0,0.0,0.0,0.0,0.0,0.0,0.0,0.0,0.0,0.0,0.0,0.0,0.0,0.0,0.0,0.0,0.0,0.0,0.0,0.0,0.0,0.0,0.0,0.0,0.0,0.0,0.0,0.0,0.0,0.0,0.0,0.0,0.0,0.0,0.0,0.0,0.0,0.0,0.0,0.0,0.0,0.0,0.0,0.0,0.0,0.0,0.0,0.0,0.0,0.0,0.0,0.0,0.0,0.0,0.0,0.0,0.0,0.0,0.0,0.0,0.0,0.0,0.0,0.0,0.0,0.0,0.0,0.0,0.0,0.0,0.0,0.0,0.0,0.0,0.0,0.0,0.0,0.0,0.0,0.0,0.0,0.0,0.0,0.0,0.0,0.0,0.0,0.0,0.0,0.0,0.0,0.0,0.0,0.0,0.0,0.0,0.0,0.0,0.0,0.0,0.0,0.0,0.0,0.0,0.0,0.0,0.0,0.0,0.0,0.0,0.0,0.0,0.0,0.0,0.0,0.0,0.0,0.0,0.0,0.0,0.0,0.0,0.0,0.0,0.0,0.0,0.0,0.0,0.0,0.0,0.0,0.0,0.0,0.0,0.0,0.0,0.0,0.0,0.0,0.0,0.0,0.0,0.0,0.0,0.0,0.0,0.0,0.0,0.0,0.0,0.0,0.0,0.0,0.0,0.0,0.0,0.0,0.0,0.0,0.0,0.0,0.0,0.0,0.0,0.0,0.0,0.0,0.0,0.0,0.0,0.0,0.0,0.0,0.0,0.0,0.0,0.0,0.0,0.0,0.0,0.0,0.0,0.0,0.0,0.0,0.0,0.0,0.0,0.0,0.0,0.0,0.0,0.0,0.0,0.0,0.0,0.0,0.0,0.0,0.0,0.0,0.0,0.0,0.0,0.0,0.0,0.0,0.0,0.0,0.0,0.0,0.0,0.0,0.0,0.0,0.0,0.0,0.0,0.0,0.0,0.0,0.0,0.0,0.0,0.0,0.0,0.0,0.0,0.0,0.0,0.0,0.0,0.0,0.0,0.0,0.0,0.0,0.0,0.0,0.0,0.0,0.0,0.0,0.0,0.0,0.0,0.0,0.0,0.0,0.0,0.0,0.0,0.0,0.0,0.0,0.0,0.0,0.0,0.0,0.0,0.0,0.0,0.0,0.0,0.0,0.0,0.0,0.0,0.0,0.0,0.0,0.0,0.0,0.0,0.0,0.0,0.0,0.0,0.0,0.0,0.0,0.0,0.0,0.0,0.0,0.0,0.0,0.0,0.0,0.0,0.0,0.0,0.0,0.0,0.0,0.0,0.0,0.0,0.0,0.0,0.0,0.0,0.0,0.0,0.0,0.0,0.0,0.0,0.0,0.0,0.0,0.0,0.0,0.0,0.0,0.0,0.0,0.0,0.0,0.0,0.0,0.0,0.0,0.0,0.0,0.0,0.0,0.0,0.0,0.0,0.0,0.0,0.0,0.0,0.0,0.0,0.0,0.0,0.0,0.0,0.0,0.0,0.0,0.0,0.0,0.0,0.0,0.0,0.0,0.0,0.0,0.0,0.0,0.0,0.0,0.0,0.0,0.0,0.0,0.0,0.0,0.0,0.0,0.0,0.0,0.0,0.0,0.0,0.0,0.0,0.0,0.0,0.0,0.0,0.0,0.0,0.0,0.0,0.0,0.0,0.0,0.0,0.0,0.0,0.0,0.0,0.0,0.0,0.0,0.0,0.0,0.0,0.0,0.0,0.0,0.0,0.0,0.0,0.0,0.0,0.0,0.0,0.0,0.0,0.0,0.0,0.0,0.0,0.0,0.0,0.0,0.0,0.0,0.0,0.0,0.0,0.0,0.0,0.0,0.0,0.0,0.0,0.0,0.0,0.0,0.0,0.0,0.0,0.0,0.0,0.0,0.0,0.0,0.0,0.0,0.0,0.0,0.0,0.0,0.0,0.0,0.0,0.0,0.0,0.0,0.0,0.0,0.0,0.0,0.0,0.0,0.0,0.0,0.0,0.0,0.0,0.0,0.0,0.0,0.0,0.0,0.0,0.0,0.0,0.0,0.0,0.0,0.0,0.0,0.0,0.0,0.0,0.0,0.0,0.0,0.0,0.0,0.0,0.0,0.0,0.0,0.0,0.0,0.0,0.0,0.0,0.0,0.0,0.0,0.0,0.0,0.0,0.0,0.0,0.0,0.0,0.0,0.0,0.0,0.0,0.0,0.0,0.0,0.0,0.0,0.0,0.0,0.0,0.0,0.0,0.0,0.0,0.0,0.0,0.0,0.0,0.0,0.0,0.0,0.0,0.0,0.0,0.0,0.0,0.0,0.0,0.0,0.0,0.0,0.0,0.0,0.0,0.0,0.0,0.0,0.0,0.0,0.0,0.0,0.0,0.0,0.0,0.0,0.0,0.0,0.0,0.0,0.0,0.0,0.0,0.0,0.0,0.0,0.0,0.0,0.0,0.0,0.0,0.0,0.0,0.0,0.0,0.0,0.0,0.0,0.0,0.0,0.0,0.0,0.0,0.0,0.0,0.0,0.0,0.0,0.0,0.0,0.0,0.0,0.0,0.0,0.0,0.0,0.0,0.0,0.0,0.0,0.0,0.0,0.0,0.0,0.0,0.0,0.0,0.0,0.0,0.0,0.0,0.0,0.0,0.0,0.0,0.0,0.0,0.0,0.0,0.0,0.0,0.0,0.0,0.0,0.0,0.0,0.0,0.0,0.0,0.0,0.0,0.0,0.0,0.0,0.0,0.0,0.0,0.0,0.0,0.0,0.0,0.0,0.0,0.0,0.0,0.0,0.0,0.0,0.0,0.0,0.0,0.0,0.0,0.0,0.0,0.0,0.0,0.0,0.0,0.0,0.0,0.0,0.0,0.0,0.0,0.0,0.0,0.0,0.0,0.0,0.0,0.0,0.0,0.0,0.0,0.0,0.0,0.0,0.0,0.0,0.0,0.0,0.0,0.0,0.0,0.0,0.0,0.0,0.0,0.0,0.0,0.0,0.0,0.0,0.0,0.0,0.0,0.0,0.0,0.0,0.0,0.0,0.0,0.0,0.0,0.0,0.0,0.0,0.0,0.0,0.0,0.0,0.0,0.0,0.0,0.0,0.0,0.0,0.0,0.0,0.0,0.0,0.0,0.0,0.0,0.0,0.0,0.0,0.0,0.0,0.0,0.0,0.0,0.0,0.0,0.0,0.0,0.0,0.0,0.0,0.0,0.0,0.0,0.0,0.0,0.0,0.0,0.0,0.0,0.0,0.0,0.0,0.0,0.0,0.0,0.0,0.0,0.0,0.0,0.0,0.0,0.0,0.0,0.0,0.0,0.0,0.0,0.0,0.0,0.0,0.0,0.0,0.0,0.0,0.0,0.0,0.0,0.0,0.0,0.0,0.0,0.0,0.0,0.0,0.0,0.0,0.0,0.0,0.0,0.0,0.0,0.0,0.0,0.0,0.0,0.0,0.0,0.0,0.0,0.0,0.0,0.0,0.0,0.0,0.0,0.0,0.0,0.0,0.0,0.0,0.0,0.0,0.0,0.0,0.0,0.0,0.0,0.0,0.0,0.0,0.0,0.0,0.0,0.0,0.0,0.0,0.0,0.0,0.0,0.0,0.0,0.0,0.0,0.0,0.0,0.0,0.0,0.0,0.0,0.0,0.0,0.0,0.0,0.0,0.0,0.0,0.0,0.0,0.0,0.0,0.0,0.0,0.0,0.0,0.0,0.0,0.0,0.0,0.0,0.0,0.0,0.0,0.0,0.0,0.0,0.0,0.0,0.0,0.0,0.0,0.0,0.0,0.0,0.0,0.0,0.0,0.0,0.0,0.0,0.0,0.0,0.0,0.0,0.0,0.0,0.0,0.0,0.0,0.0,0.0,0.0,0.0,0.0,0.0,0.0,0.0,0.0,0.0,0.0,0.0,0.0,0.0,0.0,0.0,0.0,0.0,0.0,0.0,0.0,0.0,0.0,0.0,0.0,0.0,0.0,0.0,0.0,0.0,0.0,0.0,0.0,0.0,0.0,0.0,0.0,0.0,0.0,0.0,0.0,0.0,0.0,0.0,0.0,0.0,0.0,0.0,0.0,0.0,0.0,0.0,0.0,0.0,0.0,0.0,0.0,0.0,0.0,0.0,0.0,0.0,0.0,0.0,0.0,0.0,0.0,0.0,0.0,0.0,0.0,0.0,0.0,0.0,0.0,0.0,0.0,0.0,0.0,0.0,0.0,0.0,0.0,0.0,0.0,0.0,0.0,0.0,0.0,0.0,0.0,0.0,0.0,0.0,0.0,0.0,0.0,0.0,0.0,0.0,0.0,0.0,0.0,0.0,0.0,0.0,0.0,0.0,0.0,0.0,0.0,0.0,0.0,0.0,0.0,0.0,0.0,0.0,0.0,0.0,0.0,0.0,0.0,0.0,0.0,0.0,0.0,0.0,0.0,0.0,0.0,0.0,0.0,0.0,0.0,0.0,0.0,0.0,0.0,0.0,0.0,0.0,0.0,0.0,0.0,0.0,0.0,0.0,0.0,0.0,0.0,0.0,0.0,0.0,0.0,0.0,0.0,0.0,0.0,0.0,0.0,0.0,0.0,0.0,0.0,0.0,0.0,0.0,0.0,0.0,0.0,0.0,0.0,0.0,0.0,0.0,0.0,0.0,0.0,0.0,0.0,0.0,0.0,0.0,0.0,0.0,0.0,0.0,0.0,0.0,0.0,0.0,0.0,0.0,0.0,0.0,0.0,0.0,0.0,0.0,0.0,0.0,0.0,0.0,0.0,0.0,0.0,0.0,0.0,0.0,0.0,0.0,0.0,0.0,0.0,0.0,0.0,0.0,0.0,0.0,0.0,0.0,0.0,0.0,0.0,0.0,0.0,0.0,0.0,0.0,0.0,0.0,0.0,0.0,0.0,0.0,0.0,0.0,0.0,0.0,0.0,0.0,0.0,0.0,0.0,0.0,0.0,0.0,0.0,0.0,0.0,0.0,0.0,0.0,0.0,0.0,0.0,0.0,0.0,0.0,0.0,0.0,0.0,0.0,0.0,0.0,0.0,0.0,0.0,0.0,0.0,0.0,0.0,0.0,0.0,0.0,0.0,-4.5817,0.0,0.0,0.0,0.0,0.0,0.0,0.0,0.0,0.0,0.0,0.0,0.0,0.0,0.0,0.0,0.0,0.0,0.0,0.0,0.0,0.0,0.0,0.0,0.0,-5.0712,-5.0712,-5.0712,-5.0712,-5.0712,-5.0712,0.0,0.0,0.0,0.0,0.0,-5.0712,-5.025,-5.0433,-5.1279,-5.0433,-5.0433,-5.1279,-5.0818,-4.9702,-4.8048,0.0,0.0,0.0,0.0,0.0,0.0,0.0,0.0,0.0,0.0,0.0,0.0,0.0,0.0,0.0,0.0,0.0,0.0,0.0,0.0,0.0,0.0,0.0,0.0,0.0,0.0,0.0,0.0,0.0,0.0,0.0,0.0,0.0,0.0,0.0,0.0,0.0,0.0,0.0,0.0,0.0,0.0,0.0,0.0,0.0,0.0,0.0,0.0,0.0,0.0,0.0,0.0,0.0,0.0,0.0,0.0,0.0,0.0,0.0,0.0,0.0,0.0,0.0,0.0,0.0,0.0,0.0,0.0,0.0,0.0,0.0,-4.6201,0.0,0.0,0.0,0.0,0.0,0.0,0.0,0.0,0.0,0.0,0.0,0.0,0.0,0.0,0.0,0.0,0.0,0.0,0.0,0.0,0.0,-5.0712,-5.0712,-5.0712,-5.075,-5.0894,-5.0789,-5.075,-5.0894,-5.0789,0.0,0.0,-5.0712,-5.0712,-5.0712,-5.0558,-5.0933,-5.1885,-5.1818,-5.2279,-5.3231,-5.3231,-5.2587,-5.1241,-4.7788,0.0,0.0,0.0,0.0,0.0,0.0,0.0,0.0,0.0,0.0,0.0,0.0,0.0,0.0,0.0,0.0,0.0,0.0,0.0,0.0,0.0,0.0,0.0,0.0,0.0,0.0,0.0,0.0,0.0,0.0,0.0,0.0,0.0,0.0,0.0,0.0,0.0,0.0,0.0,0.0,0.0,0.0,0.0,0.0,0.0,0.0,0.0,0.0,0.0,0.0,0.0,0.0,0.0,0.0,0.0,0.0,0.0,0.0,0.0,0.0,0.0,0.0,0.0,-5.3972,-5.428,-5.3857,-5.3703,-5.3703,-5.3664,-4.9856,-4.7971,-4.7432,-4.5547,0.0,0.0,0.0,0.0,0.0,0.0,0.0,0.0,0.0,0.0,0.0,0.0,0.0,0.0,0.0,0.0,0.0,0.0,0.0,-5.0712,-5.0712,-5.0712,-5.0971,-5.1692,-5.1087,-5.101,-5.1692,-5.1087,-5.0712,-5.0712,-5.0712,-5.0712,-5.0712,-4.9971,-5.0356,-5.1885,-5.478,-5.6973,-5.8511,-5.8511,-5.8781,-5.8973,-5.201,0.0,0.0,0.0,0.0,0.0,0.0,0.0,0.0,0.0,0.0,0.0,0.0,0.0,0.0,0.0,0.0,0.0,0.0,0.0,0.0,0.0,0.0,0.0,0.0,0.0,0.0,0.0,0.0,0.0,0.0,0.0,0.0,0.0,0.0,0.0,0.0,0.0,0.0,0.0,0.0,0.0,0.0,0.0,-4.6567,-4.6199,0.0,0.0,0.0,0.0,0.0,0.0,0.0,0.0,0.0,0.0,0.0,0.0,0.0,-5.3972,-5.4703,-5.7973,-5.8511,-5.6368,-5.8704,-5.8627,-5.6483,-5.5703,-5.578,-5.6406,-5.4357,0.0,-5.001,-4.7548,0.0,0.0,0.0,0.0,0.0,0.0,0.0,0.0,0.0,0.0,0.0,0.0,0.0,0.0,0.0,0.0,0.0,0.0,0.0,0.0,0.0,-5.2241,-5.2972,-5.3318,-5.5665,-5.5818,-5.2818,-5.4087,-5.3703,-5.0827,-5.0712,-5.0712,-5.0712,-5.0779,-5.2115,-5.4769,-5.8627,-6.1166,-6.2358,-6.2358,-6.3051,-6.4089,-5.8858,-5.5549,-5.3741,-5.0923,0.0,0.0,0.0,0.0,0.0,0.0,0.0,0.0,0.0,0.0,0.0,0.0,0.0,0.0,0.0,0.0,0.0,0.0,0.0,0.0,0.0,0.0,0.0,0.0,0.0,0.0,0.0,0.0,0.0,0.0,0.0,0.0,0.0,0.0,0.0,0.0,0.0,0.0,0.0,-4.6254,-4.7245,-4.5848,-4.7567,-4.8043,0.0,0.0,0.0,0.0,0.0,0.0,0.0,0.0,0.0,-5.4213,-5.6703,-5.8204,-5.855,-6.1473,-6.2397,-6.1281,-6.2397,-6.2358,-6.1243,-5.9896,-5.9523,-5.9792,-5.855,-5.6857,-5.4664,-5.0664,-4.774,-4.5547,0.0,0.0,0.0,0.0,-4.197,-4.197,0.0,0.0,0.0,0.0,0.0,0.0,0.0,0.0,0.0,0.0,0.0,0.0,-5.2702,-5.4434,-5.5895,-5.6973,-5.9973,-5.9973,-5.5742,-5.6434,-5.5203,-5.1164,-5.0827,-5.0712,-5.0712,-5.2549,-5.5192,-5.8615,-6.2654,-6.5282,-6.6551,-6.6782,-6.7552,-6.8629,-6.591,-6.1973,-5.7203,-5.4164,-5.1433,0.0,0.0,0.0,0.0,0.0,0.0,0.0,0.0,0.0,0.0,0.0,0.0,0.0,0.0,0.0,0.0,0.0,0.0,0.0,0.0,0.0,0.0,0.0,0.0,0.0,0.0,0.0,0.0,0.0,0.0,0.0,0.0,0.0,0.0,0.0,0.0,0.0,0.0,-4.739,-4.8456,-4.5954,-4.9093,-5.0169,0.0,0.0,0.0,0.0,0.0,0.0,-5.4664,-5.6203,-5.7511,-5.8588,-6.1089,-6.2512,-6.2743,-6.4859,-6.5782,-6.559,-6.5359,-6.5128,-6.4897,-6.3397,-6.2627,-6.2358,-6.1512,-6.0165,-5.8242,-5.3587,-5.0164,-4.7663,-4.574,-4.447,-4.3701,-4.347,-4.3393,-4.3393,0.0,0.0,0.0,0.0,0.0,0.0,0.0,0.0,0.0,0.0,0.0,-5.1943,-5.5164,-5.7049,-5.9742,-6.3743,-6.2089,-6.1089,-6.1639,-5.6511,-5.2972,-5.1885,-5.1125,-5.0712,-5.0712,-5.5472,-5.9627,-6.2974,-6.6462,-6.9398,-7.1822,-7.2668,-7.3091,-7.3129,-7.2129,-6.9321,-6.4897,-5.828,-5.5395,-5.4818,0.0,0.0,0.0,0.0,0.0,0.0,0.0,0.0,0.0,0.0,0.0,0.0,0.0,0.0,0.0,0.0,0.0,0.0,0.0,0.0,0.0,0.0,0.0,0.0,0.0,0.0,0.0,0.0,0.0,0.0,0.0,0.0,0.0,0.0,0.0,0.0,0.0,0.0,0.0,-4.7358,-5.2864,0.0,0.0,0.0,0.0,-5.5203,-5.5357,-5.6511,-5.905,-6.005,-6.1281,-6.2935,-6.5436,-6.7167,-6.8013,-6.8975,-6.9052,-6.8205,-6.7359,-6.6551,-6.5782,-6.4897,-6.4012,-6.3205,-6.2397,-6.105,-5.9165,-5.5742,-5.2818,-5.025,-4.774,-4.624,-4.5364,-4.4547,-4.4239,-4.4124,0.0,0.0,0.0,0.0,0.0,-4.6191,-4.7081,-4.7277,-4.7625,-4.8471,-5.0741,-5.3587,-5.7011,-6.0858,-6.4474,-6.7628,-6.8552,-6.7475,-6.3935,-6.0165,-5.7203,-5.528,-5.2818,-5.301,-5.628,-5.9242,-6.2666,-6.6577,-7.0014,-7.2399,-7.3822,-7.413,-7.4591,-7.5053,-7.3668,-7.2206,-7.0398,-6.4089,-5.9204,-5.5395,-5.1933,-4.9202,0.0,0.0,0.0,0.0,0.0,0.0,0.0,0.0,0.0,0.0,0.0,0.0,0.0,0.0,0.0,0.0,0.0,0.0,0.0,0.0,0.0,0.0,0.0,0.0,0.0,0.0,0.0,0.0,0.0,0.0,0.0,0.0,0.0,0.0,0.0,0.0,0.0,-5.3398,-5.8333,0.0,-5.6603,-5.6868,-5.7973,-5.9677,-6.0281,-6.1935,-6.5051,-6.6551,-6.7821,-6.8975,-6.9898,-7.0514,-7.0821,-7.0591,-7.0052,-6.9244,-6.8359,-6.7205,-6.5859,-6.4436,-6.332,-6.2474,-6.1627,-6.0896,-6.0165,-5.7896,-5.5434,-5.2895,-5.0356,-4.8817,-4.7932,-4.7086,-4.6432,-4.5932,0.0,0.0,0.0,0.0,0.0,-4.6074,-4.6653,-4.6858,-4.7192,-4.8009,-5.1318,-5.528,-5.9511,-6.4512,-6.8859,-7.1975,-7.2745,-7.1129,-6.6628,-6.232,-5.8819,-5.6291,-5.3972,-5.4895,-5.9396,-6.232,-6.559,-6.9244,-7.236,-7.4322,-7.513,-7.513,-7.5438,-7.5938,-7.4861,-7.4168,-7.363,-6.9398,-6.3974,-5.8011,-5.5203,-5.2856,-5.0702,0.0,0.0,0.0,0.0,0.0,0.0,0.0,0.0,0.0,0.0,0.0,0.0,0.0,0.0,0.0,0.0,0.0,0.0,0.0,0.0,0.0,0.0,0.0,0.0,0.0,0.0,0.0,0.0,0.0,0.0,0.0,0.0,0.0,0.0,-5.4032,-5.7661,-5.7759,-6.2886,-6.5069,-6.1676,-6.2353,-6.3639,-6.5109,-6.5897,-6.7436,-6.9962,-7.1168,-7.2052,-7.2629,-7.236,-7.2206,-7.2206,-7.1052,-7.009,-6.9244,-6.8398,-6.709,-6.5436,-6.4282,-6.3128,-6.2062,-6.1473,-6.105,-6.0666,-5.8973,-5.7319,-5.5511,-5.2972,-5.1279,-5.0125,-4.9279,-4.8279,-4.724,0.0,0.0,0.0,0.0,0.0,-4.5879,-4.5879,-4.6472,-4.7163,-4.7971,-5.1856,-5.6819,-6.2704,-6.7936,-7.2745,-7.7015,-7.4207,-7.1475,-6.9821,-6.2512,-5.7165,-5.4703,-5.4703,-5.6368,-5.9715,-6.4679,-6.8488,-7.1027,-7.3553,-7.5207,-7.6015,-7.6015,-7.6015,-7.6015,-7.6015,-7.5515,-7.4707,-7.3899,-6.9744,-6.332,-5.9858,-5.7896,-5.6445,0.0,0.0,0.0,0.0,0.0,0.0,0.0,0.0,0.0,0.0,0.0,0.0,0.0,0.0,0.0,0.0,0.0,0.0,0.0,0.0,0.0,0.0,0.0,0.0,0.0,0.0,0.0,0.0,0.0,0.0,0.0,0.0,0.0,-5.0949,-5.7226,-6.1321,-6.024,-6.6537,-6.9565,-6.6008,-6.8451,-7.0598,-7.1416,-7.2011,-7.2706,-7.3591,-7.3591,-7.3591,-7.3538,-7.2706,-7.2206,-7.2206,-7.0552,-6.9244,-6.8385,-6.7513,-6.6205,-6.4551,-6.4551,-6.3628,-6.2062,-6.2024,-6.1562,-6.0627,-5.8934,-5.828,-5.8011,-5.5434,-5.3433,-5.1846,-5.101,-4.9586,-4.7855,0.0,0.0,0.0,-4.6289,-4.608,-4.5879,-4.5879,-4.5937,-4.624,-4.7124,-5.2538,-5.8346,-6.3666,-6.9898,-7.513,-7.8784,-7.4861,-7.1475,-6.9821,-6.1935,-5.706,-5.6329,-5.9242,-6.2524,-6.6079,-6.8576,-7.1185,-7.386,-7.5694,-7.6361,-7.6015,-7.663,-7.6592,-7.6015,-7.6015,-7.5861,-7.563,-7.5399,-7.3553,-7.0167,-6.4282,-6.0666,-5.8357,0.0,0.0,0.0,0.0,0.0,0.0,0.0,0.0,0.0,0.0,0.0,0.0,0.0,0.0,0.0,0.0,0.0,0.0,0.0,0.0,0.0,0.0,0.0,0.0,0.0,0.0,0.0,0.0,0.0,0.0,0.0,-5.2234,-5.5317,-5.6712,-6.1153,-6.5463,-6.862,-7.2596,-7.4688,-7.3649,-7.4615,-7.5372,-7.5618,-7.5225,-7.5322,-7.6207,-7.5668,-7.5014,-7.4399,-7.3591,-7.2822,-7.2206,-7.0552,-6.9244,-6.8385,-6.7513,-6.5897,-6.3666,-6.3666,-6.2743,-6.1127,-6.0473,-6.0089,-5.9742,-5.805,-5.7368,-5.7088,-5.4549,-5.328,-5.2664,-5.1241,-4.9586,-4.7971,0.0,0.0,0.0,-4.6244,-4.602,-4.5905,-4.5846,-4.5694,-4.6172,-4.774,-5.3549,-5.9358,-6.4089,-7.0014,-7.4437,-7.6438,-7.2937,-6.9436,-6.6705,-6.0896,-5.8011,-5.91,0.0,-6.6426,-6.9682,-7.1903,-7.4051,-7.6084,-7.6905,-7.7207,-7.7053,-7.7207,-7.7015,-7.6553,-7.6553,-7.6322,-7.6015,-7.6015,-7.5438,-7.413,-6.9475,-6.6244,-6.3743,-5.8973,-5.6934,-5.6308,-5.3741,-5.308,-5.3112,-5.0763,0.0,0.0,0.0,0.0,0.0,0.0,0.0,0.0,0.0,0.0,0.0,0.0,0.0,0.0,0.0,0.0,0.0,0.0,0.0,0.0,0.0,0.0,0.0,0.0,-5.6051,-5.9722,-6.3697,-6.6303,-6.9229,-7.3046,-7.554,-7.695,-7.6961,-7.7417,-7.7512,-7.7071,-7.6824,-7.6715,-7.6746,-7.6284,-7.5592,-7.4745,-7.3937,-7.3091,-7.2206,-7.0167,-6.8898,-6.8385,-6.6782,-6.5089,-6.3269,-6.2935,-6.205,-6.0742,-5.9896,-5.9511,-5.9358,-5.7703,-5.6791,0.0,0.0,0.0,0.0,0.0,-4.8971,-4.7932,0.0,0.0,0.0,-4.6138,-4.5988,-4.5877,-4.5809,-4.5696,-4.6479,-4.8933,-5.4357,-5.955,-6.3589,-6.8552,-7.1706,-7.1898,-6.9513,-6.6359,-6.2486,-6.0204,-6.0204,-6.2832,-6.6178,-6.9185,-7.1746,-7.4782,-7.6816,-7.7765,-7.7666,-7.7906,-7.8477,-7.7861,-7.7515,-7.7438,-7.7323,-7.6861,-7.613,-7.6053,-7.6015,-7.5861,-7.4399,-7.2629,-7.0206,-6.4012,-6.2397,-6.2858,-5.8204,-5.6165,-5.5472,-5.4318,0.0,0.0,0.0,0.0,0.0,0.0,0.0,0.0,0.0,0.0,0.0,0.0,0.0,0.0,0.0,0.0,0.0,0.0,0.0,0.0,0.0,0.0,0.0,0.0,-5.9905,-6.3503,-7.0449,-7.1541,-7.2496,-7.4882,-7.6484,-7.7426,-7.7426,-7.7905,-7.7916,-7.701,-7.7278,-7.7082,-7.6192,0.0,0.0,0.0,0.0,-7.2976,-7.1937,-6.959,-6.8359,-6.8244,-6.5782,-6.4128,-6.3281,-6.2474,-6.1639,-6.0742,-5.9781,-5.9358,-5.9242,-5.755,-5.6291,-5.5318,-5.4511,-5.3664,-5.2549,-4.9394,-4.8202,-4.7855,0.0,0.0,0.0,-4.6138,-4.5988,-4.5877,-4.5809,-4.5696,-4.6249,-4.8125,-5.2933,-5.728,-6.0165,-6.5013,-6.8629,-7.0052,-6.7205,-6.4705,-6.3166,-6.3281,-6.482,-6.809,-7.1588,-7.4131,-7.5533,-7.7554,-7.8673,-7.8823,-7.9305,-7.9211,-7.8515,-7.9054,-7.8938,-7.8246,-7.7592,-7.7207,-7.6976,-7.6284,-7.6015,-7.5976,-7.5668,-7.3668,-7.0591,-6.7936,-6.5859,-6.4128,-6.2435,-6.2166,-6.2204,-5.9281,-5.8016,-5.7136,-5.4139,0.0,0.0,0.0,0.0,0.0,0.0,0.0,0.0,0.0,0.0,0.0,0.0,0.0,0.0,0.0,0.0,0.0,0.0,0.0,0.0,-6.0126,-6.3392,-6.6953,-7.1615,-7.2826,-7.4147,-7.654,-7.7612,-7.8128,-7.8128,-7.8079,-7.8157,-7.8443,-7.7322,-7.6755,-7.7038,-7.6361,-7.5284,-7.3783,-7.3591,-7.2437,-7.0206,-6.9013,-6.8052,-6.7321,0.0,0.0,-6.3281,-6.2474,-6.1639,-6.0704,-5.9204,-5.855,-5.8396,-5.6665,-5.5049,-5.3587,-5.2731,-5.1895,-5.101,-4.9663,-4.8702,-4.7971,0.0,0.0,0.0,-4.6056,-4.5955,-4.5857,-4.5725,-4.5624,-4.621,-4.7894,-5.1433,-5.4626,-5.6742,-6.0012,-6.2204,-6.2666,-6.0742,-6.0242,-6.1935,-6.4051,-6.7217,-7.1564,-7.5039,-7.7437,-7.8631,-7.9838,-8.0493,-8.053,-8.0262,-8.0058,-7.9957,-7.9836,-7.9592,-7.9131,-7.8746,-7.8323,-7.7861,-7.7438,-7.7246,-7.7207,-7.6823,-7.5091,-7.2629,-7.0937,-6.9244,-6.7513,-6.582,-6.4936,-6.4205,-6.1666,-5.9935,-5.8434,-5.5895,-5.3234,-5.0676,0.0,0.0,0.0,0.0,0.0,0.0,0.0,0.0,0.0,0.0,0.0,0.0,0.0,0.0,-5.1499,-5.3922,0.0,-5.9575,-6.4457,-6.6623,-6.8972,-7.2606,-7.345,-7.4441,-7.646,-7.7002,-7.7197,-7.7197,-7.7459,-7.7403,-7.6776,-7.6368,-7.5938,-7.5633,-7.5551,-7.4727,-7.2885,-7.3283,-7.2476,-7.0321,-6.9052,-6.7975,-6.7051,-6.4974,-6.3512,-6.2666,-6.182,-6.1204,-6.0704,-5.905,-5.8319,-5.8088,-5.5511,-5.3703,-5.2462,-5.1625,-5.1048,-5.0596,-4.9702,-4.8856,-4.7971,0.0,0.0,0.0,-4.5959,-4.5879,-4.5831,-4.5624,-4.5594,-4.6172,-4.7663,-4.9923,-5.1972,-5.3356,-5.5011,-5.5742,-5.5011,-5.5126,-5.7088,0.0,-6.4974,-6.9307,-7.4806,-7.7803,-7.9865,-8.0938,-8.1533,-8.1878,-8.1992,-8.0915,-8.0739,-8.1368,-8.0477,-8.0054,-8.0054,-7.99,-7.94,-7.8746,-7.8554,-7.8415,-7.8207,-7.7553,-7.6169,-7.4322,-7.2783,-7.1552,-7.036,-6.7975,-6.582,-6.3935,-6.2743,-6.055,-5.8088,-5.6819,-5.5164,-5.3123,-5.0298,-4.9075,0.0,0.0,0.0,0.0,0.0,0.0,0.0,0.0,-4.7719,-4.8984,-5.1463,-5.3371,-5.5684,-5.9221,-6.097,-6.3429,-6.8348,-6.9265,-7.033,-7.3083,-7.334,-7.378,-7.5212,-7.5689,-7.5799,-7.5652,-7.624,-7.6022,-7.4692,-7.5042,-7.4929,-7.4011,-7.454,-7.4083,-7.2308,-7.2895,-7.236,-7.0437,-6.909,-6.7821,-6.659,-6.4359,-6.2897,-6.2062,-6.1204,-6.0781,-6.0704,-5.905,-5.8127,-5.755,-5.4472,-5.2779,-5.2038,-5.1087,-5.0712,-5.0558,-4.951,-4.8702,-4.7971,0.0,0.0,0.0,0.0,0.0,-4.5831,-4.5624,-4.5594,-4.5932,-4.6932,-4.8586,-4.974,-4.9933,-5.1471,-5.2423,-5.2308,-5.5742,0.0,-6.5013,-6.8475,-7.3035,-7.9122,-8.0688,-8.1519,-8.1832,-8.209,-8.217,-8.1992,-8.1675,-8.1465,-8.1407,-8.1094,-8.0939,-8.0939,-8.0169,-7.9746,-7.9592,-7.8823,-7.8092,-7.7438,-7.7323,-7.5822,-7.3553,-7.2552,-7.1206,-6.959,-6.7744,-6.5051,-6.2435,-6.2974,-6.1012,-5.8396,-5.8896,-5.7396,-5.4895,-5.2315,-4.9729,-4.735,-4.554,-4.4875,-4.4971,-4.5886,-4.6748,-4.8061,0.0,-5.194,-5.3203,-5.5647,-5.7997,-6.0162,-6.2046,-6.4861,-6.754,-6.9633,-7.0587,-7.1431,-7.2496,-7.2018,-7.1908,-7.2789,-7.4184,-7.4771,-7.4037,-7.4037,-7.4245,-7.4581,-7.4025,-7.3824,-7.4245,-7.4125,-7.3583,-7.2588,-7.2402,-7.1168,-6.8706,-6.8513,-6.7244,-6.4859,-6.382,-6.2897,-6.2062,-6.1204,-6.0781,-6.0704,-5.905,-5.7434,-5.5857,-5.3972,-5.3126,-5.2895,-5.1318,-5.0712,-5.0519,-4.8856,-4.8202,-4.7855,0.0,0.0,0.0,0.0,0.0,-4.5831,-4.5624,-4.5594,-4.5748,-4.6086,-4.674,-4.721,-4.721,-4.7817,-4.824,-4.824,-5.2587,0.0,-6.2589,-6.7936,-7.3483,-7.9319,-8.094,-8.1855,-8.2171,-8.2264,-8.2264,-8.2173,-8.1861,-8.1679,-8.1572,-8.1269,-8.1093,-8.1093,-8.0708,-8.0554,-8.0516,-8.0169,-7.9823,-7.9361,-7.79,-7.6053,-7.3899,-7.1052,-6.8013,-6.5166,-6.4436,-6.2627,0.0,0.0,-5.6896,-5.5395,-5.5742,-5.4741,-5.3087,-5.1048,-4.9595,-4.8286,-4.6589,-4.6609,-4.7176,-4.7716,-4.9196,-5.1246,-5.3883,-5.5281,-5.6822,-5.9722,-6.1887,-6.3759,-6.5375,-6.7173,-6.8935,-7.055,-7.1101,-7.1403,-7.1762,-7.1101,-7.022,-6.9155,-6.9596,-7.0624,-7.2165,-7.2312,-7.2389,-7.2687,-7.3123,-7.3464,-7.3533,-7.3782,-7.342,-7.2402,-7.1776,-7.0937,-6.986,-6.8398,-6.7128,-6.6013,-6.4166,-6.2897,-6.2062,-6.1204,-6.0281,-5.9319,-5.8588,-5.7049,-5.4934,-5.4241,-5.3356,-5.2385,-5.1664,-5.1125,-5.0558,-4.9317,-4.8548,-4.7932,0.0,0.0,0.0,0.0,0.0,-4.5825,-4.5616,-4.5594,-4.5594,-4.5594,-4.5594,-4.5594,-4.5594,-4.5594,-4.5594,-4.5594,-4.9856,0.0,0.0,-6.6205,-7.2434,-7.8224,-8.0333,-8.1655,-8.2304,-8.2304,-8.2304,-8.2304,-8.1967,-8.1739,-8.168,-8.1361,-8.1161,-8.1093,-8.1093,-8.1093,-8.1093,-8.0823,-8.0477,-7.9862,-7.7515,-7.513,-7.2552,-6.8513,-6.4512,-6.1062,-6.1062,-5.9319,0.0,0.0,-5.3049,-5.2241,-5.2702,-5.2423,-5.1577,-4.9894,-4.8894,-4.8202,-4.7432,-4.8094,-4.911,-4.9778,-5.1968,-5.451,-5.6499,-5.8127,-5.9932,-6.261,-6.4127,-6.5448,-6.7063,-6.7834,-6.8862,-7.0697,-7.0807,-7.0734,-7.0954,-6.9889,-6.8385,-6.6402,-6.5558,-6.6145,-6.8715,-6.9779,-7.0403,-7.0624,-7.178,-7.2485,-7.2402,-7.277,-7.2668,-7.1957,-7.1035,-7.0321,-6.986,-6.7782,-6.6397,-6.5705,-6.3858,-6.2551,-6.1716,-6.0819,-5.9665,-5.828,-5.805,-5.6742,-5.478,-5.4318,-5.3395,-5.2192,-5.1741,-5.1202,-5.0558,-4.9433,-4.8625,-4.7971,0.0,0.0,0.0,0.0,0.0,-4.5768,-4.5629,-4.5594,-4.5594,-4.5594,-4.5594,-4.5594,-4.5594,-4.5594,-4.5594,-4.5594,-4.8788,-5.2933,-5.805,-6.3935,-7.0049,-7.6409,-7.9095,-8.1031,-8.2265,-8.2304,-8.2304,-8.2304,-8.2071,-8.1889,-8.1719,-8.1501,-8.1298,-8.1093,-8.1093,-8.1093,-8.1054,-8.0208,-7.89,-7.7246,-7.5476,-7.2283,-6.8231,-6.4769,-6.1358,-5.8434,-5.8434,0.0,0.0,0.0,-5.0894,-4.9817,-5.1423,-5.1923,-5.1577,-4.9894,-4.7663,-4.6056,-4.7625,-4.8692,-4.9864,-5.1964,-5.4979,-5.7666,-5.8445,-6.0501,-6.2599,-6.3836,-6.409,-6.464,-6.6219,-6.6549,-6.7357,-6.9743,-6.9486,-6.9265,-7.0036,-6.8091,-6.6292,-6.5448,-6.3209,-6.2108,-6.2964,-6.5925,-6.8128,-6.8898,-6.9734,-7.0401,-7.0921,-7.0727,-7.0837,-7.1319,-7.0301,-6.8936,-6.7205,-6.6359,-6.4705,-6.2255,-6.2178,-6.1678,-6.0819,-5.9935,-5.9088,-5.8242,-5.7407,-5.6522,-5.5549,-5.3895,-5.3203,-5.301,-5.1356,-5.0712,-5.0481,-4.8779,-4.8125,-4.7971,0.0,0.0,0.0,0.0,0.0,0.0,-4.5629,-4.5594,-4.5594,-4.5594,-4.5594,0.0,0.0,0.0,0.0,0.0,-4.8211,-5.1279,-5.4703,-6.0473,-6.5592,-6.9675,-7.447,-7.7604,-7.8906,-8.0,-8.0859,-8.1445,-8.0668,-8.048,-8.0816,-8.0027,-7.9868,-8.0246,-8.0246,-7.9939,-7.9361,-7.9054,-7.8592,-7.7707,-7.3206,-7.0514,-6.859,-6.2358,-5.7857,-5.4703,0.0,0.0,0.0,0.0,-4.7355,-4.698,-4.7548,-4.7702,-4.7625,-4.7048,-4.7048,-4.7509,-4.8663,-5.0818,-5.3374,-5.5785,-5.8245,-6.0342,-6.1393,-6.2429,-6.3044,-6.2549,-6.1594,-6.086,-6.086,-6.13,-6.2291,-6.4163,-6.5595,-6.6806,-6.7614,-6.699,-6.5595,-6.3135,-6.2108,-6.13,-6.0469,-6.2365,-6.4457,-6.6366,-6.7603,-6.8803,-7.01,-7.075,-7.091,-7.0497,-6.8858,-6.7667,-6.709,-6.5166,-6.4012,-6.3743,-6.205,-6.0781,-5.9896,-5.9088,-5.8242,-5.7434,-5.7137,-5.6522,-5.5665,-5.5088,-5.4203,-5.3126,-5.2587,-5.1664,-5.0635,-5.0048,-4.9086,-4.7894,0.0,0.0,0.0,0.0,0.0,0.0,0.0,0.0,0.0,0.0,0.0,0.0,0.0,0.0,0.0,0.0,0.0,-4.9471,-5.1702,0.0,-6.0654,-6.3508,-6.8175,-7.1266,-7.2445,-7.3548,-7.4681,-7.5804,-7.5558,-7.5824,-7.6682,-7.6351,-7.6525,-7.7092,-7.7092,-7.6938,-7.6669,-7.6053,-7.5245,-7.3976,-6.8975,-6.6244,-6.4474,-5.8011,-5.4049,0.0,0.0,0.0,0.0,0.0,-4.5594,-4.5594,-4.5594,-4.5594,-4.571,-4.6317,-4.7471,-4.9009,-5.1087,-5.3703,-5.6395,-5.8627,-6.061,-6.2084,-6.2383,-6.2597,-6.2288,-6.0661,-5.8917,-5.7457,-5.6624,-5.6566,-5.7336,-5.9538,-6.1227,-6.2842,-6.4494,-6.4237,-6.3319,-6.1777,-6.108,-6.0456,-5.9698,-6.0309,-6.163,-6.3833,-6.5607,-6.6982,-6.7999,-6.9109,-6.9482,-6.8798,-6.74,-6.6359,-6.5743,-6.382,-6.2858,-6.2743,-6.1127,-5.9896,-5.905,-5.8204,-5.7357,-5.6522,-5.6252,-5.5588,-5.478,-5.4472,-5.3703,-5.2702,-5.2433,-5.1664,-5.0635,-5.001,-4.9048,-4.7971,0.0,0.0,0.0,0.0,0.0,0.0,0.0,0.0,0.0,0.0,0.0,0.0,0.0,0.0,0.0,0.0,0.0,0.0,0.0,0.0,0.0,-5.8047,-6.0717,-6.2652,-6.37,-6.3887,-6.474,-6.6293,-6.7324,-6.8447,-6.9624,-7.0542,-7.1203,-7.1668,-7.1668,-7.2129,-7.2745,-7.1091,-6.8975,-6.6474,-6.3101,-5.9792,-5.6483,-5.2174,0.0,0.0,0.0,0.0,0.0,-4.5594,-4.5633,-4.5671,-4.571,-4.5748,-4.6133,-4.7817,-4.8971,-5.0625,-5.4703,-5.7126,-5.8896,-6.0512,-6.2127,-6.2951,-6.1535,-6.1164,-6.0471,-5.8185,-5.6088,-5.4354,-5.3497,-5.2501,-5.2858,-5.6051,-5.6712,-5.7923,-6.1153,-6.0346,-5.9942,-6.141,-6.0346,-5.9698,-6.0346,-5.9771,-5.9979,-6.141,0.0,-6.5029,-6.4875,-6.6053,-6.6597,-6.6309,-6.5929,-6.4936,-6.3281,-6.2397,-6.1127,-5.9511,-5.9396,-5.8973,-5.8204,-5.7319,-5.6483,-5.5588,-5.4818,-5.401,-5.3126,-5.2308,-5.1923,-5.1808,-5.1048,-5.075,-5.0519,-4.8856,-4.8202,-4.8163,0.0,0.0,0.0,0.0,0.0,0.0,0.0,0.0,0.0,0.0,0.0,0.0,0.0,0.0,0.0,0.0,0.0,0.0,0.0,0.0,0.0,0.0,0.0,0.0,0.0,0.0,0.0,0.0,0.0,-6.3541,-6.4321,-6.3953,-6.4067,-6.4679,-6.4679,-6.4436,-6.4012,-6.3551,-6.3012,-6.205,0.0,-5.628,-5.5511,0.0,0.0,0.0,0.0,0.0,0.0,-4.5594,-4.6009,-4.6663,-4.7278,-4.7894,-4.874,-5.0423,-5.2433,-5.4626,-5.6973,-5.9358,-6.1358,-6.2397,-6.2974,-6.281,-6.0838,-5.944,-5.7748,-5.4937,-5.1782,-4.9274,-4.8438,-4.879,-5.0105,-5.2784,-5.5244,-5.7923,-6.1153,-6.1777,-6.1814,-6.163,-6.2328,-6.2218,-6.0566,-6.13,-6.1557,-6.0786,-6.1851,-6.3063,-6.4255,-6.5315,-6.5578,-6.4858,-6.4279,-6.3474,-6.2397,-6.0896,-5.9935,-5.9473,-5.8242,-5.7522,-5.7291,-5.6434,-5.5588,-5.478,-5.4587,-5.401,-5.3164,-5.2972,-5.25,-5.1885,-5.1654,-5.1241,-5.0635,-5.0212,-4.9625,-4.9086,0.0,0.0,0.0,0.0,0.0,0.0,0.0,0.0,0.0,0.0,0.0,0.0,0.0,0.0,0.0,0.0,0.0,0.0,0.0,0.0,0.0,0.0,0.0,0.0,0.0,0.0,0.0,0.0,0.0,0.0,0.0,-5.7721,-5.8092,-5.8742,-5.8742,-5.8704,-5.855,-5.8165,0.0,0.0,0.0,0.0,0.0,0.0,0.0,0.0,0.0,0.0,-4.5787,-4.6903,-4.7586,-4.8202,-4.9385,-5.0356,-5.1471,-5.3538,-5.5434,-5.7396,-5.9819,-6.182,-6.3205,-6.3281,-6.3051,-6.2079,-5.9358,-5.743,-5.5326,-5.2132,-4.9432,-4.7264,-4.5873,-4.6359,-4.7684,-4.9997,-5.2527,-5.5537,-5.9465,-6.0419,-6.1043,-6.1998,-6.2658,-6.2585,-6.1557,-6.163,-6.1667,-6.1484,-6.1887,-6.2218,-6.2475,-6.3771,-6.3955,-6.273,-6.2744,-6.2204,-6.0973,-5.9627,-5.8781,-5.8396,-5.7049,-5.6252,-5.5906,-5.5395,-5.4511,-5.3395,0.0,-5.3241,-5.2087,-5.2087,-5.1587,-5.0818,-5.0818,-5.0548,-5.0087,-4.9702,-4.9471,-4.9356,0.0,0.0,0.0,0.0,0.0,0.0,0.0,0.0,0.0,0.0,-4.5748,-4.5594,0.0,0.0,0.0,0.0,0.0,0.0,0.0,0.0,0.0,0.0,0.0,0.0,0.0,0.0,0.0,0.0,0.0,0.0,0.0,0.0,0.0,0.0,0.0,0.0,0.0,0.0,0.0,0.0,0.0,0.0,0.0,0.0,0.0,0.0,0.0,0.0,0.0,-4.8663,-4.9625,-5.0048,-5.1972,-5.3241,-5.4549,-5.7077,-5.8462,-5.9819,-6.2974,-6.4359,-6.4705,-6.3743,-6.2704,-6.1023,-5.7599,-5.5357,-5.3087,-4.9894,-4.8158,-4.6736,-4.5004,-4.5007,-4.6004,-4.8163,-4.9853,-5.2516,-5.7359,-5.7997,-5.9134,-6.2291,-6.2108,-6.2034,-6.2732,-6.1557,-6.1263,-6.2548,-6.2548,-6.1924,-6.0639,-6.2027,-6.207,-6.0423,-6.1201,-6.0899,-5.9358,-5.855,-5.7742,-5.6983,-5.6011,-5.5164,-5.4511,-5.4395,-5.3433,-5.1923,-5.2692,-5.2125,-5.0712,-5.0712,-5.0212,-4.9394,-4.9394,-4.9394,-4.9317,-4.8548,-4.8817,-4.9471,0.0,0.0,0.0,0.0,0.0,0.0,0.0,0.0,0.0,0.0,-4.6471,-4.5594,0.0,0.0,0.0,0.0,0.0,0.0,0.0,0.0,0.0,0.0,0.0,0.0,0.0,0.0,0.0,0.0,0.0,0.0,0.0,0.0,0.0,0.0,0.0,0.0,0.0,0.0,0.0,0.0,0.0,0.0,0.0,0.0,0.0,0.0,0.0,0.0,0.0,0.0,-5.0933,-5.2,-5.5126,-5.7165,-5.8896,-6.1473,-6.282,-6.3935,-6.5897,-6.6551,-6.6282,-6.4743,-6.2704,-6.0127,-5.6703,-5.3559,-5.0779,-4.874,-4.6845,-4.5448,-4.5087,-4.5407,-4.6592,-4.9353,-5.0582,-5.2803,-5.7367,-5.7997,-5.8951,-6.1484,-6.2291,-6.2658,-6.2805,-6.2523,-6.2218,-6.1851,-6.119,-6.097,-6.1374,-6.1418,-6.0736,-5.9155,-5.9278,-5.9076,-5.85,-5.7665,-5.7137,-5.6983,-5.5434,-5.4626,-5.4472,-5.3741,-5.2856,-5.1923,-5.2038,0.0,-5.0712,-5.0712,-5.0212,-4.9394,-4.9394,-4.9394,-4.9394,-4.924,-4.974,-5.0442,0.0,0.0,0.0,0.0,0.0,0.0,0.0,-4.7278,-4.8009,-4.9279,-4.9125,-4.8355,-4.7048,-4.6133,-4.5594,0.0,0.0,0.0,0.0,0.0,0.0,0.0,0.0,0.0,0.0,0.0,-4.5594,-4.5594,0.0,0.0,0.0,-4.5594,-4.5594,-4.5594,0.0,0.0,0.0,0.0,0.0,0.0,0.0,0.0,0.0,0.0,0.0,0.0,0.0,0.0,0.0,0.0,-5.0856,-5.2577,-5.6472,-5.8819,-6.0666,-6.3243,-6.4589,-6.5628,-6.7321,-6.7782,-6.7282,-6.5128,-6.2358,-5.9127,-5.528,-5.2125,-4.9279,-4.6663,-4.5726,-4.5025,-4.3954,-4.5007,-4.6592,-4.8197,-4.9338,-5.1695,-5.6346,-5.6868,-5.7776,-6.0639,-6.1337,-6.1557,-6.1557,-6.1166,-6.0933,-6.097,-6.0236,-5.9942,-6.0346,-6.0033,-5.9534,-5.8802,-5.8411,-5.7884,-5.7315,-5.6433,-5.5782,-5.531,-5.4506,-5.3782,-5.3164,-5.3203,-5.251,-5.1318,-5.1731,-5.1433,-5.0673,-5.0212,-4.9779,-4.9317,-4.8432,-4.8625,-4.9356,-4.8894,-4.9548,-5.0712,0.0,0.0,0.0,0.0,0.0,0.0,-4.7855,-4.8432,-4.9356,-5.125,-5.1895,-5.1346,-4.9163,-4.7432,-4.621,0.0,0.0,0.0,0.0,0.0,0.0,0.0,0.0,0.0,0.0,0.0,0.0,-4.5594,-4.5594,0.0,0.0,0.0,0.0,0.0,-4.5594,-4.5594,0.0,0.0,0.0,0.0,0.0,-4.5594,0.0,0.0,0.0,0.0,0.0,0.0,0.0,0.0,-5.0125,-5.2,-5.5742,-5.8704,-6.1204,-6.3205,-6.4897,-6.6474,-6.8013,-6.8385,-6.7821,-6.5474,-6.1897,-5.7934,-5.4087,-5.0933,-4.8048,-4.5163,-4.5133,-4.5109,-4.3483,-4.4809,-4.6329,-4.6944,-4.7928,-5.0189,-5.4705,-5.5237,-5.6345,-5.9501,-6.0052,-6.0236,-6.0382,-5.9661,-5.9441,-6.0126,-5.9221,-5.8744,-5.8927,-5.8554,-5.8184,-5.7992,-5.7475,-5.6811,-5.6002,-5.5233,-5.4457,-5.3653,-5.331,-5.2653,-5.1802,-5.2302,-5.1844,-5.075,-5.1356,-5.1279,0.0,-4.974,-4.9279,-4.8971,-4.7663,-4.7971,-4.9048,-4.8548,-4.9356,-5.0712,0.0,0.0,0.0,0.0,0.0,0.0,-4.7855,-4.9433,-5.1366,-5.3818,-5.3549,-5.2702,-5.1654,-5.0048,-4.8125,0.0,0.0,0.0,0.0,0.0,0.0,0.0,0.0,0.0,0.0,0.0,0.0,-4.5594,-4.5594,0.0,0.0,0.0,0.0,0.0,0.0,-4.5594,-4.5594,-4.5594,0.0,0.0,0.0,0.0,0.0,0.0,0.0,0.0,0.0,-4.5594,-4.5864,-4.7625,-4.8856,-4.9971,-5.1885,-5.6319,-6.0858,-6.1089,-6.3935,-6.7205,-6.8129,-6.8385,-6.7975,-6.6205,-6.1473,-5.6522,-5.3818,-5.0048,-4.6817,-4.571,-4.5556,-4.5547,-4.5337,-4.5521,-4.6071,-4.7258,-4.7554,-4.8847,-5.2325,-5.3441,-5.497,-5.7859,-5.8877,-5.9588,-6.0346,-5.9661,-5.9221,-5.9294,-5.7863,-5.7336,-5.807,-5.7381,-5.6472,-5.5399,-5.5676,-5.5476,-5.4698,-5.4234,-5.3753,-5.3256,-5.1767,-5.1171,-5.1317,-5.0694,-5.05,-5.0712,-5.0789,-5.0789,0.0,-4.974,-4.8933,-4.8202,-4.8048,-4.8086,-4.8317,-4.9009,-4.9894,-5.0712,0.0,0.0,0.0,0.0,0.0,0.0,-4.7855,-4.8702,-5.024,-5.3318,-5.3857,-5.3664,-5.2779,-5.1625,-4.9471,-4.5902,0.0,0.0,0.0,0.0,0.0,0.0,0.0,0.0,0.0,0.0,-4.5594,-4.5594,-4.5594,0.0,0.0,0.0,0.0,0.0,0.0,-4.5594,-4.5594,-4.5594,0.0,0.0,0.0,0.0,0.0,0.0,0.0,0.0,0.0,0.0,-4.571,-4.6355,-4.7163,-4.7932,-4.8048,-5.1164,-5.5434,-5.8973,-6.1935,-6.4589,-6.6974,-6.8013,-6.7859,-6.5667,-6.1012,-5.6329,-5.378,-4.9933,-4.6509,-4.5124,-4.5248,-4.5133,-4.3585,-4.4547,-4.5435,-4.4921,-4.5534,-4.696,-4.9556,-4.9989,-5.1528,-5.5383,-5.6124,-5.7005,-5.8767,-5.8657,-5.829,-5.779,-5.7166,-5.6528,-5.5868,-5.5978,-5.576,-5.5024,-5.5155,-5.489,-5.4083,-5.3461,-5.2747,-5.2061,-5.1441,-5.0839,-5.0234,-5.0634,-5.0641,-5.0347,-5.0604,-5.0404,0.0,-4.8971,-4.8394,-4.8048,-4.7586,-4.8009,-4.8933,-4.9279,-4.9933,-5.0712,0.0,0.0,0.0,0.0,0.0,-4.6172,-4.7855,-4.8548,-4.9894,-5.2818,-5.3972,-5.4164,-5.3318,-5.1972,-4.9856,-4.6624,-4.5902,0.0,0.0,0.0,0.0,0.0,0.0,0.0,0.0,0.0,-4.5594,-4.5594,-4.5594,-4.5594,0.0,0.0,-4.5594,-4.5594,0.0,0.0,0.0,0.0,0.0,0.0,0.0,0.0,0.0,0.0,0.0,0.0,0.0,0.0,0.0,0.0,0.0,-4.6394,-4.5787,0.0,0.0,-5.5088,-5.8781,-6.187,-6.4205,-6.6051,-6.6744,-6.4436,-6.0012,-5.5665,-5.3356,-4.9548,-4.6163,-4.4932,-4.5171,-4.5056,-4.3239,-4.4393,-4.521,-4.4008,-4.4633,-4.5878,-4.774,-4.7898,-4.9162,-5.2699,-5.3359,-5.4402,-5.6734,-5.7593,-5.7666,-5.6859,-5.6602,-5.5868,-5.4473,-5.4693,-5.4754,-5.4477,-5.4595,-5.4316,-5.3643,-5.2698,-5.1879,-5.1139,-5.0693,-5.0084,-4.9326,-5.0199,-5.043,-5.0123,-5.038,-5.0095,0.0,-4.8471,-4.7971,-4.7702,-4.7115,-4.7778,-4.9048,-4.9317,-4.9933,-5.0712,0.0,0.0,0.0,0.0,0.0,-4.6172,-4.7855,-4.9548,-5.1279,-5.2972,-5.3972,-5.4164,-5.3318,-5.0933,-4.9048,-4.8163,-4.6547,0.0,0.0,0.0,0.0,0.0,0.0,0.0,0.0,0.0,-4.5594,-4.5594,-4.5594,-4.5594,-4.5594,-4.5594,-4.5594,-4.5594,0.0,0.0,0.0,0.0,0.0,0.0,0.0,0.0,0.0,0.0,0.0,0.0,0.0,0.0,0.0,0.0,0.0,0.0,0.0,-4.5633,-4.6172,0.0,-5.4241,-5.955,-5.9588,-6.205,-6.4243,-6.2563,-5.828,-5.4087,-5.2308,-4.8663,-4.5594,-4.5594,-4.5594,-4.5594,-4.5556,-4.5594,-4.5594,-4.5594,-4.5594,-4.6023,-4.7331,-4.7891,-4.8686,-4.9998,-5.0858,-5.214,-5.4222,-5.6602,-5.7666,-5.6859,-5.6051,0.0,-5.4436,-5.3665,-5.3225,-5.3225,-5.3604,-5.3624,-5.3225,-5.1992,-5.1232,-5.0802,-4.9114,-4.8532,-4.8932,-4.8932,-4.9356,-5.0111,-5.0111,-4.9827,0.0,-4.8471,-4.7625,-4.6923,-4.6885,-4.7394,-4.824,-4.9086,-4.9933,-5.0712,0.0,0.0,0.0,0.0,0.0,0.0,-4.6317,-4.6864,-4.7826,-4.951,-4.9971,-5.0471,-5.1395,-5.024,-4.9048,-4.8202,-4.6586,0.0,0.0,0.0,0.0,0.0,0.0,0.0,0.0,-4.5594,-4.5893,-4.6509,-4.7048,-4.7317,-4.7317,-4.7317,-4.7009,-4.6471,-4.5864,-4.5594,0.0,0.0,0.0,0.0,0.0,0.0,-4.5594,0.0,0.0,0.0,0.0,0.0,0.0,0.0,0.0,0.0,0.0,0.0,0.0,-4.6556,-4.9981,-5.3857,-5.5626,-5.728,-5.8242,-5.7165,-5.4357,-5.1587,-5.0433,-4.7817,-4.5594,-4.5594,-4.5594,-4.5441,-4.4816,-4.521,-4.5402,-4.4816,-4.521,-4.5658,-4.5824,-4.6956,-4.8559,-5.0666,-5.3857,-5.6132,-5.6808,-5.7556,-5.7446,-5.6088,-5.5721,-5.4987,-5.3665,-5.3314,-5.3203,-5.3203,-5.3318,-5.3318,-5.3203,-5.1735,-5.0944,-5.0765,-4.9114,-4.8382,-4.8514,-4.8779,-4.9043,-4.9326,-4.9872,-4.9663,0.0,-4.8356,-4.7625,-4.6885,-4.6885,-4.7394,-4.8202,-4.9086,-4.9933,-5.0712,0.0,0.0,0.0,0.0,0.0,0.0,-4.5594,-4.5902,-4.6471,-4.7509,-4.7932,-4.8625,-5.0048,-4.9433,-4.8817,-4.8625,-4.7048,0.0,0.0,0.0,0.0,0.0,0.0,0.0,-4.5594,-4.5594,-4.6163,-4.7355,-4.8202,-4.8779,-4.9086,-4.9394,-4.8731,-4.7317,-4.6778,-4.621,0.0,0.0,0.0,0.0,0.0,0.0,-4.5594,0.0,0.0,0.0,0.0,0.0,0.0,0.0,0.0,0.0,0.0,0.0,0.0,0.0,-4.7095,-4.9327,-5.1895,-5.3626,-5.4549,-5.3741,-5.1856,-4.9971,-4.9125,-4.7201,-4.5594,-4.5594,-4.5594,-4.5441,-4.4893,-4.4979,-4.5056,-4.4816,-4.4979,-4.5157,-4.5265,-4.6615,-4.8466,-5.0787,-5.4516,-5.6894,-5.683,-5.7265,-5.7005,-5.5684,-5.5317,-5.4583,-5.3298,-5.2931,-5.2747,-5.2747,-5.2747,-5.2601,-5.2307,-5.0986,-5.0362,-5.0325,-4.8967,-4.8306,-4.8306,-4.855,-4.8761,-4.8928,-4.9589,0.0,0.0,-4.8163,-4.7432,-4.6432,-4.6778,-4.7394,-4.8202,-4.9086,-4.9933,-5.0712,0.0,0.0,0.0,0.0,0.0,0.0,0.0,-4.6278,-4.6817,-4.6817,-4.7471,-4.824,-4.9048,-4.8509,-4.8394,-4.9086,-4.7817,0.0,0.0,0.0,0.0,0.0,0.0,0.0,-4.5594,-4.5671,-4.6471,-4.8086,-4.9163,-5.0048,-5.0789,-5.1702,-5.0692,-4.8202,-4.8125,-4.7163,-4.5671,-4.6471,-4.6355,-4.5671,-4.6471,-4.6317,0.0,0.0,0.0,0.0,0.0,0.0,0.0,0.0,0.0,0.0,0.0,0.0,0.0,0.0,0.0,0.0,0.0,-5.0856,-5.2472,-5.1654,-5.0279,-4.8933,-4.8125,-4.6701,0.0,-4.5594,-4.5594,-4.5594,-4.5594,-4.4902,-4.4586,-4.5479,-4.4855,-4.4586,-4.5479,-4.695,-4.8706,-5.0741,-5.3559,-5.5229,-5.4889,-5.6034,-5.6455,-5.5574,-5.4766,-5.3959,-5.3188,-5.2344,-5.1867,-5.183,-5.183,-5.1499,-5.0802,-4.9994,-4.961,-4.961,-4.871,-4.8269,-4.8233,-4.8269,-4.844,0.0,-4.9198,0.0,0.0,-4.7846,-4.7086,-4.5787,-4.6586,-4.7394,-4.8202,-4.9086,-4.9933,-5.0712,0.0,0.0,0.0,0.0,0.0,0.0,0.0,0.0,0.0,0.0,-4.6047,-4.6287,-4.6479,-4.7432,-4.7663,0.0,0.0,0.0,0.0,0.0,0.0,0.0,0.0,0.0,-4.5594,-4.624,-4.7086,-4.8086,-5.0933,-5.2087,-5.1664,-5.3164,-5.2164,-4.9086,-4.8394,-4.7163,-4.5594,-4.5825,-4.5787,-4.5633,-4.5825,-4.5787,0.0,0.0,0.0,0.0,-4.5594,-4.5594,0.0,0.0,0.0,0.0,0.0,0.0,0.0,0.0,-4.5594,-4.5748,-4.6326,0.0,-4.7317,-4.7124,-4.6778,-4.6441,0.0,-4.5902,-4.5594,0.0,-4.5594,-4.5594,-4.5594,-4.4902,-4.4586,-4.5479,-4.4855,-4.4586,-4.5479,-4.8936,-5.1925,-5.3421,-5.6106,-5.6989,-5.4723,-5.5897,-5.6235,-5.4803,-5.3959,-5.3151,-5.2307,-5.1536,-5.0802,-5.0198,-5.0161,-5.0381,-5.0802,-4.9994,-4.961,-4.961,-4.871,-4.7976,-4.7406,-4.7993,-4.7665,-4.6706,0.0,0.0,-4.7136,-4.7162,-4.6971,-4.6624,-4.6808,-4.7394,-4.8202,-4.9086,-4.9933,-5.0712,0.0,0.0,0.0,0.0,0.0,0.0,0.0,0.0,0.0,0.0,-4.5594,-4.5594,-4.5594,-4.6778,-4.7201,0.0,0.0,0.0,0.0,0.0,0.0,0.0,0.0,-4.5594,-4.5594,-4.6432,-4.7702,-4.9279,-5.1933,-5.3356,-5.3664,-5.4626,-5.3241,-4.9894,-4.7855,-4.6432,-4.5633,-4.6009,-4.597,-4.5633,-4.6047,0.0,0.0,0.0,0.0,0.0,-4.5594,-4.5594,0.0,-4.5594,-4.5594,-4.5518,0.0,0.0,0.0,0.0,-4.5287,-4.5594,-4.5594,-4.5594,-4.5594,-4.5594,-4.5594,-4.5594,-4.5594,0.0,0.0,0.0,-4.5594,-4.5594,-4.5594,-4.4902,-4.4586,-4.5479,-4.4855,-4.4855,-4.6509,-4.959,-5.2424,-5.4486,-5.6254,-5.6911,-5.5932,-5.5727,-5.5354,-5.4473,-5.3298,-5.2454,-5.2013,-5.0875,-5.0031,-4.961,-4.9206,-4.9224,-4.9664,-4.9224,-4.9003,-4.8967,-4.8159,-4.7516,-4.7113,-4.7553,-4.7058,-4.5956,0.0,0.0,-4.6474,-4.6571,-4.6636,-4.6684,-4.7232,-4.7857,-4.8562,-4.9625,-5.0289,-5.0712,0.0,0.0,0.0,0.0,0.0,0.0,0.0,0.0,0.0,0.0,0.0,0.0,0.0,0.0,0.0,0.0,0.0,0.0,0.0,0.0,0.0,0.0,-4.5594,-4.571,-4.5979,-4.6586,-4.8163,-5.0712,-5.251,-5.4126,-5.5511,-5.5895,-5.4164,-5.0558,-4.7403,-4.5825,-4.5633,-4.6394,-4.6278,-4.5671,-4.6394,0.0,0.0,0.0,0.0,0.0,0.0,0.0,0.0,-4.5441,-4.5479,-4.5441,-4.4432,0.0,0.0,0.0,0.0,0.0,-4.5556,-4.5594,-4.5594,-4.5594,-4.5594,-4.5594,-4.5594,0.0,0.0,0.0,-4.5594,-4.5594,-4.5594,-4.4902,-4.4586,-4.5479,-4.5201,-4.5817,-4.8509,-5.024,-5.2154,-5.443,-5.5428,-5.6076,-5.6605,-5.5175,-5.4179,-5.4032,-5.2527,-5.161,-5.161,-5.0235,-4.939,-4.939,-4.8673,-4.8306,-4.8306,-4.8306,-4.8233,-4.8122,-4.7443,-4.6966,-4.6746,-4.7003,-4.6526,-4.5626,0.0,0.0,-4.555,-4.5957,-4.6073,-4.6165,-4.7499,-4.8262,-4.8762,-5.0138,-5.0634,-5.0712,0.0,0.0,0.0,0.0,0.0,0.0,0.0,0.0,0.0,0.0,0.0,0.0,0.0,0.0,0.0,0.0,0.0,0.0,0.0,0.0,0.0,-4.5594,-4.5594,-4.624,-4.7702,-4.7201,-4.8163,-5.0712,-5.3126,-5.4434,-5.4741,-5.6896,-5.5318,-5.0596,-4.8625,-4.6932,-4.5594,-4.5748,-4.571,-4.5594,-4.5748,0.0,0.0,0.0,0.0,0.0,0.0,0.0,0.0,-4.4739,-4.4979,-4.5325,-4.3778,0.0,0.0,0.0,0.0,0.0,-4.5402,-4.5594,-4.5594,-4.5594,-4.5594,-4.5594,-4.5594,-4.5594,0.0,0.0,0.0,-4.5594,-4.5594,-4.4902,-4.4586,-4.5479,-4.6663,-4.8663,-5.1972,-5.328,-5.3813,-5.3526,-5.5384,-5.5708,-5.3105,-5.3157,-5.3115,-5.2417,-5.0896,-4.9978,-4.9978,-4.904,-4.8489,-4.8489,-4.8379,-4.8306,-4.8306,-4.8306,-4.7957,-4.7259,-4.7149,-4.6379,-4.5095,-4.6489,-4.592,-4.3973,0.0,-4.5711,-4.4318,-4.4988,-4.5121,-4.5054,-4.6877,-4.7667,-4.7961,-4.9598,-5.0429,-5.0712,0.0,0.0,0.0,0.0,0.0,0.0,0.0,0.0,0.0,0.0,0.0,0.0,0.0,0.0,0.0,0.0,0.0,0.0,0.0,0.0,-4.5825,-4.6278,-4.6317,-4.6663,-4.7432,-4.7971,-4.951,-5.2049,-5.4126,-5.5626,-5.6549,-5.5857,-5.3549,-4.9933,-4.8202,-4.6778,-4.5594,-4.5594,-4.5594,-4.5594,0.0,0.0,0.0,0.0,0.0,0.0,0.0,0.0,0.0,0.0,-4.4893,-4.5325,-4.3624,0.0,0.0,0.0,0.0,0.0,-4.494,-4.5248,-4.5594,-4.5594,-4.5594,-4.5594,-4.5594,-4.5594,-4.5594,0.0,-4.5594,-4.5594,-4.5594,-4.5663,-4.6124,-4.7432,-4.8702,-5.0048,-5.1625,-5.2587,-5.33,-5.3824,0.0,-5.466,-5.4054,-5.3114,-5.2417,-5.2013,-5.0528,-4.9574,-4.9574,-4.8746,-4.8306,-4.8306,-4.8306,-4.8306,-4.8306,-4.7846,-4.748,-4.7113,-4.7113,-4.6269,-4.4745,-4.592,-4.5369,-4.3551,0.0,-4.5058,-4.4346,-4.4676,-4.5114,-4.5632,-4.6979,-4.78,-4.838,-4.9341,-5.0141,-5.0635,0.0,0.0,0.0,0.0,0.0,0.0,0.0,0.0,0.0,0.0,0.0,0.0,0.0,0.0,0.0,0.0,0.0,0.0,0.0,-4.5787,-4.6201,-4.6885,-4.7077,-4.7462,-4.8038,-4.9125,-5.1048,-5.378,-5.528,-5.678,-5.8242,-5.5203,-5.2318,-4.9625,-4.7932,-4.6586,-4.5594,-4.5594,-4.5594,-4.5594,0.0,0.0,0.0,0.0,0.0,0.0,0.0,0.0,0.0,0.0,0.0,0.0,0.0,0.0,0.0,-4.3701,-4.4278,-4.5171,-4.447,-4.494,-4.5518,-4.5094,-4.5325,-4.571,-4.6095,-4.621,-4.6249,-4.6441,-4.6326,-4.6133,-4.5932,-4.6432,-4.7509,-4.9394,-5.0433,-5.1202,-5.1789,-5.2395,-5.3248,-5.449,-5.3954,-5.3984,-5.5145,-5.3106,-5.172,-5.172,-5.0215,-4.926,-4.9224,-4.8453,-4.7993,-4.7993,-4.7829,-4.7755,-4.7755,-4.7113,-4.6819,-4.6819,-4.6636,-4.5792,-4.4452,-4.5259,-4.4819,-4.3551,-4.4342,-4.4547,-4.4369,-4.4546,-4.5003,-4.5773,-4.6935,-4.8022,-4.8997,-4.9276,-4.9933,-5.0596,0.0,0.0,0.0,0.0,0.0,0.0,0.0,0.0,0.0,0.0,0.0,0.0,0.0,0.0,0.0,0.0,0.0,0.0,0.0,-4.6355,-4.6808,-4.6885,-4.7625,-4.9115,-5.15,-5.0933,-5.2212,-5.5511,-5.6445,-5.7357,-5.828,-5.6395,-5.3741,-5.0519,-4.8779,-4.7124,-4.5594,-4.5594,-4.5594,-4.5594,-4.5594,0.0,0.0,0.0,0.0,0.0,0.0,0.0,0.0,0.0,0.0,0.0,0.0,0.0,-4.3393,-4.4047,-4.4316,-4.4393,-4.4316,-4.494,-4.5248,-4.3662,-4.4432,-4.6018,-4.7586,-4.7932,-4.8163,-4.8971,-4.8471,-4.7702,-4.6932,-4.6846,-4.7702,-5.0212,-5.1279,-5.2626,-5.5011,-5.5395,-5.5335,-5.5071,-5.467,-5.4284,-5.3962,-5.2097,-5.0875,-5.0875,-4.9334,-4.8379,-4.8379,-4.7626,-4.7186,-4.7186,-4.6471,-4.6067,-4.6067,-4.603,-4.5993,-4.5993,-4.5223,-4.4415,-4.3608,-4.4415,-4.4305,-4.3551,-4.4342,-4.4267,-4.3631,-4.4327,-4.4265,-4.3919,-4.6157,-4.7994,-4.9428,-4.9433,-4.9933,-5.0596,0.0,0.0,0.0,0.0,0.0,0.0,0.0,0.0,0.0,0.0,0.0,-4.5594,-4.5594,0.0,0.0,0.0,0.0,0.0,0.0,-4.5893,-4.6317,-4.6885,-4.7663,-4.8817,-5.0317,-5.1587,-5.3933,-5.7319,-5.8165,-5.8204,-5.7434,-5.5203,-5.2626,-4.9817,-4.8125,-4.7009,-4.6355,-4.5825,-4.5893,-4.6355,-4.5825,-4.5594,0.0,0.0,0.0,0.0,0.0,0.0,0.0,0.0,-4.4239,-4.4778,-4.2893,-4.3008,-4.3701,-4.297,-4.347,-4.4085,-4.3047,-4.4124,-4.5325,-4.4124,-4.4739,-4.5902,-4.7086,-4.8163,-4.8856,-4.8625,-4.9202,-4.9279,-4.7894,-4.8086,-4.9125,-5.1125,-5.2626,-5.4049,-5.5472,-5.5703,-5.5632,-5.547,-5.489,-5.4231,-5.3503,-5.1825,-5.0362,-4.9334,-4.8673,-4.7865,-4.6874,-4.6966,-4.6856,-4.6361,-4.6067,-4.5883,-4.5883,-4.5406,-4.5149,-4.5149,-4.5369,-4.4745,-4.3551,-4.4342,-4.4268,-4.3515,-4.3828,-4.3909,-4.3818,-4.4102,-4.4332,-4.4672,-4.6569,-4.7758,-4.8446,-4.8869,-4.9598,-5.0243,0.0,0.0,0.0,0.0,0.0,0.0,0.0,0.0,-4.5594,0.0,0.0,0.0,0.0,-4.5594,0.0,0.0,0.0,0.0,-4.5594,-4.5864,-4.6278,-4.6885,-4.7663,-4.8625,-4.9779,-5.1779,-5.4318,-5.7473,-5.8858,-5.8511,-5.656,-5.4241,-5.2125,-5.0087,-4.8163,-4.7278,-4.724,-4.6355,-4.6201,-4.6432,-4.5825,-4.5594,0.0,0.0,0.0,0.0,0.0,0.0,0.0,0.0,-4.4085,-4.4547,-4.3047,-4.3201,-4.3739,-4.2854,-4.3393,-4.3932,-4.2277,-4.347,-4.494,-4.3778,-4.4778,-4.6317,-4.7432,-4.9009,-5.024,-5.0471,-5.0625,-5.025,-4.8779,-4.9009,-4.9933,-5.1615,-5.3356,-5.478,-5.5588,-5.5472,-5.5434,-5.5665,-5.4517,-5.3579,-5.3217,-5.1491,-4.9848,-4.8416,-4.8086,-4.7352,-4.5957,-4.6159,-4.6085,-4.5553,-4.5259,-4.5149,-4.5149,-4.4599,-4.4305,-4.4342,-4.4892,-4.4562,-4.3515,-4.4085,-4.4011,-4.3515,-4.3515,-4.3647,-4.3849,-4.3974,-4.4454,-4.5281,-4.6771,-4.7476,-4.7799,-4.8516,-4.9337,-5.0045,0.0,0.0,0.0,0.0,0.0,0.0,0.0,0.0,-4.5594,-4.5594,-4.5594,0.0,0.0,0.0,0.0,0.0,0.0,0.0,-4.5594,-4.6394,-4.6885,-4.6885,-4.7663,-4.8894,-5.0596,-5.1471,-5.3126,-5.5703,-5.8242,-5.8165,-5.5626,-5.3972,-5.2692,-5.1731,-4.924,-4.8086,-4.8048,-4.724,-4.6394,-4.5594,-4.5594,-4.5594,-4.5594,0.0,0.0,0.0,0.0,0.0,0.0,0.0,-4.3778,-4.3239,-4.4047,-4.3739,-4.3239,-4.4047,-4.4278,-4.3932,-4.2239,-4.3008,-4.3893,-4.2239,-4.4385,-4.7355,-4.9048,-5.0702,-5.2615,-5.5164,-5.302,-5.0442,-4.9586,-4.9433,-4.9971,-5.1615,-5.3356,-5.478,-5.5549,-5.4972,-5.478,-5.5588,-5.3503,-5.2311,-5.3104,-5.0989,-4.9243,-4.8343,-4.7516,-4.6709,-4.592,-4.5149,-4.4691,-4.4691,-4.3901,-4.3515,-4.3515,-4.3515,-4.3515,-4.3515,-4.3515,-4.3515,-4.3515,-4.3515,-4.3515,-4.3515,-4.3515,-4.3515,-4.3549,-4.3865,-4.4467,-4.5295,-4.652,-4.726,-4.7762,-4.8516,-4.9337,-5.0033,0.0,0.0,0.0,0.0,0.0,0.0,0.0,0.0,-4.5594,-4.5594,-4.5594,0.0,0.0,0.0,0.0,0.0,0.0,0.0,-4.5594,-4.5825,-4.597,-4.597,-4.6817,-4.7201,-4.7095,-4.9086,-5.1972,-5.5703,-5.6472,-5.5857,-5.3933,-5.2818,-5.1192,-4.9192,-4.8432,-4.7778,-4.7201,-4.6355,-4.6201,-4.6471,-4.5864,-4.5594,-4.5594,0.0,0.0,0.0,0.0,0.0,0.0,0.0,0.0,0.0,-4.2662,-4.2816,-4.3047,-4.2662,-4.297,-4.3085,-4.1354,-4.2124,-4.3355,-4.2854,-4.4816,-4.7509,-4.9779,-5.0702,-5.1587,-5.3549,-5.2202,-5.0779,-5.1087,-5.1154,-5.1308,-5.1808,-5.2856,-5.3664,-5.3895,-5.3741,-5.3664,-5.3895,-5.2804,-5.1632,-5.077,-4.9465,-4.7865,-4.5902,-4.6067,-4.5663,-4.4286,-4.4525,-4.4452,-4.3864,-4.3608,-4.3515,-4.3515,-4.3515,-4.3515,-4.3515,-4.3515,-4.3515,-4.3515,-4.3515,-4.3515,-4.3515,-4.3515,-4.3515,-4.3549,-4.3865,-4.4131,-4.4445,-4.535,-4.582,-4.6041,-4.6885,-4.7877,-4.8844,0.0,0.0,0.0,0.0,0.0,0.0,-4.5594,-4.5594,-4.5594,-4.5594,-4.5594,-4.5594,0.0,0.0,0.0,0.0,0.0,0.0,-4.5594,-4.5594,-4.5594,-4.5594,-4.6086,-4.6317,-4.6124,-4.8279,-5.0471,-5.2664,-5.3703,-5.351,-5.2202,-5.2,-5.1269,-5.0125,-5.0125,-4.951,-4.8355,-4.7471,-4.6817,-4.6355,-4.5825,-4.5594,-4.5594,0.0,0.0,0.0,0.0,0.0,0.0,0.0,0.0,0.0,-4.2077,-4.2162,-4.247,-4.1962,-4.2162,-4.2277,-4.09,-4.1777,-4.3162,-4.3508,-4.5509,-4.7971,-5.0212,-5.202,-5.3482,-5.4511,-5.3395,-5.2356,-5.2856,-5.2654,-5.2423,-5.2423,-5.3164,-5.3587,-5.3241,-5.2895,-5.2738,-5.2938,-5.1521,-5.0229,-4.9431,-4.8135,-4.6617,-4.4838,-4.5149,-4.4856,-4.3588,-4.3975,-4.4011,-4.3515,-4.3515,-4.3515,-4.3515,-4.3515,-4.3515,-4.3515,-4.3515,-4.3515,-4.3515,-4.3515,-4.3515,-4.3515,-4.3515,-4.3515,-4.3549,-4.3865,-4.3927,-4.3876,-4.4814,-4.5117,-4.5136,-4.611,-4.7168,-4.8092,0.0,0.0,-4.5594,-4.5594,0.0,0.0,-4.5594,-4.5594,-4.5594,-4.5594,-4.5594,-4.5594,0.0,0.0,0.0,-4.5594,0.0,0.0,0.0,-4.5594,-4.5594,-4.5594,-4.5671,-4.6124,-4.7,-4.8432,-4.8779,-4.8009,-5.0462,-5.1279,-5.0481,-5.1471,-5.2231,-5.2856,-5.2933,-5.2049,-5.0404,-4.9433,-4.7702,-4.5594,-4.5594,-4.5594,-4.5594,-4.5594,0.0,0.0,0.0,0.0,0.0,0.0,0.0,0.0,-4.2162,-4.1846,-4.1808,-4.1808,-4.1808,-4.1623,-4.0816,-4.1777,-4.3201,-4.4162,-4.6394,-4.8779,-5.051,-5.3905,-5.6637,-5.6637,-5.5549,-5.4587,-5.4511,-5.3857,-5.328,-5.3126,-5.3741,-5.3933,-5.301,-5.2144,-5.177,-5.208,-4.9792,-4.8265,-4.8642,-4.6905,-4.5443,-4.4654,-4.4599,-4.4268,-4.3551,-4.3515,-4.3515,-4.3515,-4.3515,-4.3515,-4.3515,-4.3515,-4.3515,-4.3515,-4.3515,-4.3515,-4.3515,-4.3515,-4.3515,-4.3515,-4.3515,-4.3515,-4.3495,-4.3818,-4.377,-4.3637,-4.4665,-4.4864,-4.4777,-4.5811,-4.6754,-4.7479,0.0,0.0,-4.5594,-4.5594,0.0,0.0,-4.5594,-4.5594,-4.5594,-4.5594,-4.5594,-4.5594,-4.5594,-4.5594,0.0,-4.5594,-4.5594,0.0,0.0,-4.5594,-4.5594,-4.5594,-4.624,-4.7009,-4.7817,-4.7586,-4.7355,-4.7154,-4.9009,-4.951,-4.8702,-5.0885,-5.1308,-5.024,-5.0933,-5.0279,-4.8548,-4.7048,-4.6095,-4.5594,-4.5594,-4.5594,-4.5594,-4.5594,-4.5594,0.0,0.0,0.0,0.0,0.0,0.0,0.0,-4.2662,-4.2354,-4.1808,-4.1808,-4.1808,-4.1769,-4.1585,-4.1777,-4.2585,-4.4778,-4.7749,-5.0587,-5.2279,-5.3356,-5.401,-5.401,-5.478,-5.5241,-5.4626,-5.4357,-5.378,-5.2385,-5.2346,-5.1933,-5.0433,-4.9838,-4.9339,-4.8735,-4.7631,-4.6673,-4.6147,-4.5409,-4.4635,-4.3828,-4.3754,-4.3681,-4.3515,-4.3515,-4.3515,-4.3515,-4.3515,-4.3515,-4.3515,-4.3515,-4.3515,0.0,-4.3515,-4.3515,-4.3515,-4.3515,-4.3515,-4.3515,-4.3515,-4.3515,-4.3515,-4.358,-4.3726,-4.3881,-4.3861,-4.3985,-4.4162,-4.4157,-4.486,-4.5811,0.0,0.0,0.0,0.0,0.0,0.0,0.0,0.0,-4.6509,-4.571,-4.5594,-4.5594,-4.5594,-4.5594,0.0,0.0,-4.5594,0.0,0.0,0.0,-4.5594,-4.5594,-4.6432,-4.6894,-4.6894,-4.6894,-4.6701,-4.6278,-4.7163,-4.7548,-4.7586,-4.9702,-5.0471,-5.0048,-5.0894,-5.0317,-4.8625,-4.7355,-4.6317,-4.5594,-4.5594,-4.5594,-4.5594,-4.5594,-4.5594,-4.5594,-4.5594,0.0,0.0,0.0,0.0,0.0,0.0,0.0,-4.1731,-4.1316,-4.1162,-4.1162,-4.1162,-4.1777,-4.3124,-4.6047,-4.9048,-5.151,-5.2395,-5.2895,-5.3203,-5.3203,-5.3895,-5.4357,-5.3933,-5.3895,-5.3433,-5.2115,-5.1587,-5.0856,-4.9586,-4.876,-4.8029,-4.7403,-4.6492,-4.568,-4.5082,-4.4461,-4.3938,-4.3551,-4.3515,-4.3515,-4.3515,-4.3515,-4.3515,-4.3515,-4.3515,-4.3515,-4.3515,-4.3515,-4.3515,-4.3515,-4.3515,-4.3515,-4.3515,-4.3515,-4.3515,-4.3515,-4.3515,-4.3515,-4.3515,-4.3515,-4.3614,-4.3742,-4.3563,-4.3614,-4.3742,-4.3546,-4.4147,-4.4971,0.0,0.0,0.0,0.0,0.0,0.0,0.0,0.0,0.0,-4.5787,-4.5594,-4.5594,-4.5594,-4.5594,-4.5594,0.0,0.0,0.0,0.0,0.0,0.0,-4.5825,-4.6509,-4.6624,-4.6056,-4.6586,-4.6547,-4.5825,-4.5671,-4.6124,-4.7154,-4.8663,-4.9779,-5.0519,-5.1164,-5.0625,-4.9125,-4.8086,-4.6855,-4.5594,-4.5594,-4.5594,-4.5594,-4.5594,-4.5594,-4.5594,-4.5594,-4.5594,-4.5479,-4.4778,0.0,0.0,0.0,0.0,-4.147,-4.0893,-4.0631,-4.0516,-4.0669,-4.2085,-4.4201,-4.6971,-4.9586,-5.1462,-5.1462,-5.2049,-5.2549,-5.2549,-5.2895,-5.3164,-5.301,-5.2972,-5.2702,-5.1808,-5.1125,-5.0327,-4.9317,-4.822,-4.7288,-4.6677,-4.5627,-4.4872,-4.4524,-4.3901,-4.3515,-4.3515,-4.3515,-4.3515,-4.3515,-4.3515,-4.3441,-4.3294,-4.3441,-4.3441,-4.3277,-4.3441,-4.3515,-4.3515,-4.3515,-4.3515,-4.3515,-4.3515,-4.3515,-4.3515,-4.3515,-4.3515,-4.3515,-4.3515,-4.3515,-4.3515,-4.3515,-4.3515,-4.3515,-4.3515,-4.3901,-4.4431,0.0,0.0,0.0,0.0,0.0,0.0,0.0,0.0,0.0,0.0,-4.5594,-4.5594,-4.5594,-4.5594,-4.5594,-4.5594,-4.5594,-4.5594,-4.5594,0.0,0.0,-4.6701,-4.6846,-4.7163,-4.774,-4.7201,-4.6846,-4.674,-4.597,-4.6394,-4.7971,-4.8933,-4.9471,-4.9586,-4.9702,-4.9202,-4.8163,-4.6586,-4.5787,-4.5594,-4.5594,-4.5594,-4.5594,-4.5594,-4.5594,-4.5594,-4.5594,-4.5594,-4.5594,-4.5479,-4.447,0.0,0.0,0.0,-4.0785,-4.1431,-4.1085,-4.0669,-4.1431,-4.3393,-4.5364,-4.5825,-4.7855,-4.974,-4.974,-4.9817,-4.9894,-4.9894,-5.1664,-5.2972,-5.2192,-5.2077,-5.1818,-5.0971,-5.0789,-5.0125,-4.8509,-4.7621,-4.6617,-4.5115,-4.4212,-4.373,-4.3662,-4.3534,-4.3515,-4.3515,-4.3515,-4.3515,-4.3515,-4.3515,-4.3167,-4.247,-4.313,-4.3167,-4.247,-4.313,-4.3515,-4.3515,-4.3515,-4.3515,-4.3515,-4.3515,-4.3515,-4.3515,-4.3515,-4.3515,-4.3515,-4.3515,-4.3515,-4.3515,-4.3515,-4.3515,-4.3515,-4.3515,-4.3588,-4.3662,0.0,0.0,0.0,0.0,0.0,0.0,0.0,0.0,0.0,0.0,0.0,-4.5594,-4.5594,-4.5594,-4.5594,-4.5594,-4.5594,-4.5594,-4.5594,-4.5594,-4.5787,-4.6163,-4.6163,-4.6355,-4.6701,-4.6355,-4.6163,-4.6163,-4.5787,-4.6471,-4.8125,-4.8971,-4.9894,-5.0779,-4.9817,-4.9202,-4.8702,-4.6518,-4.5594,-4.5594,-4.5594,-4.5594,-4.5594,-4.5594,-4.5594,-4.5556,-4.5056,-4.4855,-4.4855,-4.4855,-4.4393,-4.3778,-4.3662,0.0,0.0,0.0,-4.0785,-4.0708,-4.1546,-4.297,-4.4432,-4.5364,-4.6817,-4.8125,-4.8586,-4.8663,-4.8663,-4.8663,-4.9548,-5.024,-4.9846,-4.9769,-4.9663,-4.9317,-4.8856,-4.8231,-4.7238,-4.6288,-4.5337,-4.4402,-4.3823,-4.3515,-4.3515,-4.3515,-4.3314,-4.2873,-4.324,-4.3294,-4.2837,-4.2837,-4.2653,-4.2323,-4.2213,-4.2213,-4.2286,-4.2653,-4.3057,-4.3515,-4.3515,-4.3515,-4.3515,-4.3515,-4.3515,-4.3515,-4.3515,-4.3515,-4.3515,-4.3515,-4.3515,-4.3515,-4.3515,-4.3515,-4.3515,-4.3515,-4.3515,-4.3515,0.0,0.0,0.0,0.0,0.0,0.0,0.0,0.0,0.0,0.0,0.0,-4.5457,-4.5457,0.0,0.0,0.0,-4.5594,-4.5594,-4.5594,-4.5594,-4.5594,-4.5594,-4.5594,-4.5594,-4.5594,-4.5594,-4.5594,-4.5594,-4.5594,-4.652,-4.8288,-4.9133,-5.0553,-5.2329,-5.0749,-4.9635,-4.8807,-4.7029,-4.6249,-4.6163,-4.5518,-4.5287,-4.5248,-4.5056,-4.4979,-4.4902,-4.447,-4.4316,-4.4316,-4.4547,-4.4355,-4.3932,-4.3547,-4.297,0.0,0.0,0.0,-4.0631,-4.1277,-4.2124,-4.3085,-4.4316,-4.5624,-4.674,-4.7317,-4.7625,-4.7817,-4.7817,-4.7625,-4.7471,-4.7471,-4.7817,-4.8086,-4.8086,-4.753,-4.6886,-4.638,-4.5407,-4.4594,-4.4065,-4.371,-4.3515,-4.3515,-4.3331,-4.2947,-4.2359,-4.2873,-4.2837,-4.2029,-4.2176,-4.2103,-4.1699,-4.1515,-4.1589,-4.1992,-4.2396,-4.291,-4.3515,-4.3515,-4.3515,-4.3515,-4.3515,-4.3515,-4.3515,-4.3515,-4.3515,-4.3515,-4.3515,-4.3515,-4.3515,-4.3515,-4.3515,-4.3515,-4.3515,-4.3515,-4.3515,0.0,0.0,0.0,0.0,0.0,0.0,0.0,0.0,0.0,0.0,0.0,0.0,-4.5137,-4.541,-4.5594,-4.5594,-4.5594,-4.5594,-4.5594,-4.5594,-4.5594,-4.5594,-4.5594,0.0,-4.5594,-4.5594,-4.5594,-4.5594,-4.5594,-4.6685,-4.8788,-4.9604,-5.1344,-5.3722,-5.2384,-5.0263,-4.7701,-4.7876,-4.7971,-4.7778,-4.5355,-4.4355,-4.4278,-4.3508,-4.3239,-4.3316,-4.4047,-4.4316,-4.4432,-4.5248,-4.447,-4.3278,-4.4008,-4.2593,-4.0785,0.0,0.0,0.0,-4.0554,-4.12,-4.1885,-4.1962,-4.3855,-4.5671,-4.571,-4.6355,-4.6962,-4.6962,-4.6317,-4.5748,-4.5748,-4.7048,-4.8086,-4.8086,-4.7813,-4.7258,-4.6434,-4.569,-4.4953,-4.4109,-4.371,-4.3515,-4.3515,-4.28,-4.2359,-4.2286,-4.2323,-4.2029,-4.1205,-4.1882,-4.1589,-4.0047,-4.1442,-4.1882,-4.1168,-4.269,-4.3478,-4.3515,-4.3515,-4.3515,-4.3515,-4.3515,-4.3515,-4.3515,-4.3515,-4.3515,-4.3515,-4.3515,-4.3515,-4.3515,-4.3515,-4.3515,-4.3515,-4.3515,-4.3515,-4.3515,0.0,0.0,0.0,0.0,0.0,0.0,0.0,0.0,0.0,0.0,0.0,0.0,0.0,-4.5541,-4.5594,-4.5594,-4.5594,-4.5594,-4.5594,-4.5594,-4.5594,-4.5594,-4.5594,-4.5594,-4.5594,-4.5594,-4.5594,-4.5594,-4.539,-4.5948,-4.7213,-4.7846,-4.8642,-4.9554,-5.0326,-5.0281,-4.9458,-4.7152,-4.6192,-4.6038,-4.4574,-4.3861,-4.358,-4.2995,-4.2659,-4.2428,-4.221,-4.2591,-4.3264,-4.357,-4.3434,-4.3162,-4.3431,-4.2508,-4.1277,-4.1046,-4.0746,-4.0516,-4.0516,-4.0746,-4.1085,-4.1662,-4.2508,-4.3316,-4.3855,-4.4624,-4.524,-4.524,-4.5432,-4.5541,-4.5303,-4.5947,-4.6425,-4.6212,-4.6069,-4.5715,-4.4934,-4.4639,-4.4278,-4.3747,-4.3563,-4.3294,-4.2763,-4.247,-4.1882,-4.0818,-4.1258,-4.1185,-4.0377,-4.1111,-4.1258,-4.0708,-4.1222,-4.1662,-4.1882,-4.2947,-4.3515,-4.3515,-4.3515,-4.3515,-4.3515,-4.3515,-4.3515,-4.3515,-4.3515,-4.3515,-4.3515,-4.3515,-4.3515,-4.3515,-4.3515,-4.3515,-4.3515,-4.3515,-4.3515,-4.3515,0.0,0.0,0.0,-4.4812,0.0,-4.4387,-4.4387,-4.4482,-4.4561,-4.4561,0.0,0.0,0.0,0.0,-4.5263,-4.5263,-4.5263,-4.5263,-4.5263,-4.5263,-4.5263,-4.5263,-4.5263,-4.5263,-4.5263,-4.5263,-4.5263,-4.5263,-4.5033,-4.5252,-4.5937,-4.6581,-4.7047,-4.7377,-4.8366,-4.9201,-4.9751,-4.7243,-4.6033,-4.5665,-4.4337,-4.3783,-4.3643,-4.3167,-4.2758,-4.2422,-4.1976,-4.2079,-4.2455,-4.256,-4.2488,-4.2365,-4.2365,-4.1743,-4.0987,-4.0492,-4.0274,-4.023,-4.0347,-4.0364,-4.0611,-4.1561,-4.1808,-4.1962,-4.2547,-4.3227,-4.3711,-4.3702,-4.4288,-4.4868,-4.4928,-4.5099,-4.5201,-4.4966,-4.4837,-4.4561,-4.4058,-4.3912,-4.3758,-4.3549,-4.3515,-4.3167,-4.2396,-4.2066,-4.1332,-4.001,0.0,0.0,-3.9533,-4.0524,-4.1205,-4.1499,-4.1515,-4.1882,-4.269,-4.3204,-4.3515,-4.3515,-4.3515,-4.3515,-4.3515,-4.3515,-4.3515,-4.3515,-4.3515,-4.3515,-4.3515,-4.3515,-4.3515,-4.3515,-4.3515,-4.3515,-4.3515,-4.3515,-4.3515,-4.3515,-4.5568,-4.5283,-4.5044,-4.5044,-4.4468,-4.3967,-4.3967,-4.3726,-4.3495,-4.3495,0.0,0.0,0.0,0.0,0.0,-4.4612,-4.4612,-4.4649,-4.4612,-4.4612,-4.4612,-4.4612,-4.4612,-4.4612,-4.4612,-4.4612,-4.4612,-4.4612,-4.4599,-4.4787,-4.5174,-4.5962,-4.6813,-4.7676,-4.6776,-4.7086,-4.829,-4.8211,-4.7758,-4.6841,-4.4653,-4.4066,-4.442,-4.3836,-4.3424,-4.3176,-4.3494,-4.2993,-4.2183,-4.2466,-4.1857,-4.0974,-4.0899,-4.0321,-3.9675,-3.9992,-3.9878,-3.9687,0.0,0.0,0.0,-4.1473,-4.1715,-4.1715,-4.1715,-4.2134,-4.2494,-4.2463,-4.289,-4.353,-4.4372,-4.4523,-4.4561,-4.4548,-4.4247,-4.3982,-4.3967,-4.371,-4.3515,-4.3515,-4.3515,-4.3167,-4.2323,-4.1552,-4.0781,0.0,-3.9863,-3.9533,-3.8799,-4.0251,-4.1515,-4.2323,-4.2323,-4.2727,-4.3515,-4.3515,-4.3515,-4.3515,-4.3515,-4.3515,-4.3515,-4.3515,-4.3515,-4.3515,-4.3515,-4.3515,-4.3515,-4.3515,-4.3515,-4.3515,-4.3515,-4.3515,-4.3515,-4.3515,-4.3515,-4.3515,-4.4536,-4.4387,-4.4233,-4.3989,-4.3775,-4.3647,-4.3647,-4.3775,-4.3865,0.0,0.0,0.0,-4.4428,-4.506,-4.5227,-4.4649,-4.5114,-4.5227,-4.4649,-4.4612,-4.4612,-4.4612,-4.4612,-4.4612,-4.4612,-4.4612,-4.4612,-4.4612,-4.4304,-4.4214,-4.4318,-4.4313,-4.4918,-4.5982,-4.5423,-4.5539,-4.6143,-4.5462,-4.541,-4.5559,-4.3798,-4.3371,-4.3675,-4.26,-4.1954,-4.1702,-4.1787,-4.2135,-4.2506,-4.2029,-4.2221,-4.2398,-4.1228,-4.0651,-4.0361,-3.9872,-4.0091,-4.0361,-3.9872,0.0,0.0,0.0,0.0,0.0,-4.0062,-4.0361,-4.0669,-4.1215,-4.194,-4.241,-4.2411,-4.2918,-4.3229,-4.2965,-4.354,-4.3927,-4.366,-4.3546,-4.3515,-4.3515,-4.3515,-4.2947,-4.1572,-4.1242,-4.0508,0.0,-3.9019,-3.9203,-3.9533,-4.1075,-4.2323,-4.313,-4.3167,-4.3294,-4.3515,-4.3515,-4.3515,-4.3515,-4.3515,-4.3515,-4.3515,-4.3515,-4.3515,-4.3515,-4.3515,-4.3515,-4.3515,-4.3515,-4.3515,-4.3515,-4.3515,-4.3515,-4.3515,-4.3515,-4.3515,-4.3515,-4.4332,-4.4102,-4.3958,-4.3742,-4.3892,-4.3901,-4.3551,-4.3939,-4.4177,0.0,0.0,0.0,-4.414,-4.4871,-4.5021,-4.4214,-4.4573,-4.4647,-4.4177,-4.414,-4.414,-4.414,-4.414,-4.414,-4.414,-4.414,-4.414,-4.414,-4.3896,-4.377,-4.3807,-4.3597,-4.3889,-4.4543,-4.4297,-4.4331,-4.4485,-4.3638,-4.377,-4.4416,-4.3608,-4.3569,-4.3916,-4.3345,-4.2902,-4.2597,-4.2394,-4.2633,-4.2928,-4.1942,-4.1954,-4.216,-4.095,-4.0747,-4.0877,-4.0514,-4.0673,-4.084,-4.0527,-4.0777,-4.1028,-4.0752,0.0,0.0,-3.9139,-3.902,-3.8975,-3.9101,-3.9676,-4.0242,-4.0362,-4.1059,-4.1539,-4.1344,-4.2426,-4.3356,-4.3475,-4.3515,-4.3515,-4.3515,-4.3515,-4.2873,-4.1242,-4.1095,-4.0435,-3.8836,-3.8689,-3.9203,-4.0341,-4.1625,-4.2653,-4.3478,-4.3515,-4.3515,-4.3515,-4.3515,-4.3515,-4.3515,-4.3515,-4.3515,-4.3515,-4.3515,-4.3515,-4.3515,-4.3515,-4.3515,-4.3515,-4.3515,-4.3515,-4.3515,-4.3515,-4.3515,-4.3515,-4.3515,-4.3515,-4.3515,0.0,-4.4175,-4.3958,-4.407,-4.4415,-4.4488,-4.3864,-4.4305,-4.4488,0.0,-4.3698,-4.3644,-4.3772,-4.4342,-4.4415,-4.3681,-4.3608,-4.3625,-4.3515,-4.3515,-4.3515,-4.3515,-4.3515,-4.3515,-4.3515,-4.3515,-4.3515,-4.3515,-4.3515,-4.3515,-4.3515,-4.3515,-4.3515,-4.3515,-4.3515,-4.3441,-4.3331,-4.269,-4.28,-4.3385,-4.3706,-4.4182,-4.4707,-4.493,-4.4831,-4.4487,-4.4082,-4.3763,-4.3345,-4.2187,-4.1561,-4.116,-4.0667,-4.0806,-4.1176,-4.146,-4.1308,-4.1176,-4.1475,-4.1601,-4.1725,-4.1956,-4.133,0.0,-3.8884,-3.829,-3.7798,-3.7052,-3.729,-3.786,-3.8579,-3.9423,-4.001,-3.99,-4.1258,-4.2506,-4.313,-4.3404,-4.3441,-4.324,-4.3404,-4.2837,-4.1132,-4.1058,-4.0435,-3.8836,-3.8799,-3.9496,-4.1022,-4.1882,-4.2653,-4.3478,-4.3515,-4.3515,-4.3515,-4.3515,-4.3515,-4.3515,-4.3515,-4.3515,-4.3515,-4.3515,-4.3515,-4.3515,-4.3515,-4.3515,-4.3515,-4.3515,-4.3515,-4.3515,-4.3515,-4.3515,-4.3515,-4.3515,-4.3515,-4.3515,-4.3758,-4.3664,-4.3818,-4.4427,-4.4651,-4.4892,-4.5369,-4.5039,-4.4892,-4.5369,-4.4856,-4.4709,-4.5369,-4.5002,-4.4635,-4.4488,-4.4488,-4.4195,-4.3551,-4.3515,-4.3515,-4.3515,-4.3515,-4.3515,-4.3515,-4.3515,-4.3515,-4.3515,-4.3515,-4.3515,-4.3515,-4.3515,-4.3515,-4.3515,-4.3515,-4.313,-4.258,-4.3057,-4.2983,-4.2543,-4.2607,-4.3456,-4.4635,-4.4042,-4.3804,-4.3735,-4.3637,-4.3583,-4.3441,-4.3195,-4.2647,-4.2046,-4.1944,-4.1528,-4.1111,-4.1192,-4.116,-4.1111,-4.1156,-4.1666,-4.2014,-4.1446,-4.0686,0.0,-3.9689,-3.9039,-3.8501,-3.8354,-3.8404,-3.8505,-3.8689,-3.99,-4.0671,-4.001,-4.1258,-4.2139,-4.1662,-4.269,-4.302,-4.1735,-4.2727,-4.2633,-4.0341,-4.0744,-4.0435,-3.8836,-3.9313,-4.0084,-4.1058,-4.1882,-4.2653,-4.3478,-4.3515,-4.3515,-4.3515,-4.3515,-4.3515,-4.3515,-4.3515,-4.3515,-4.3515,-4.3515,-4.3515,-4.3515,-4.3515,-4.3515,-4.3515,-4.3515,-4.3515,-4.3515,-4.3515,-4.3515,-4.3515,-4.3515,-4.3515,-4.3515,-4.3512,-4.3515,-4.3625,-4.4011,-4.4452,-4.4838,-4.5259,-4.5296,-4.5443,-4.5847,-4.592,-4.5718,-4.5369,-4.5296,-4.4966,-4.4158,-4.4085,-4.3938,-4.3551,-4.3515,-4.3515,-4.3515,-4.3515,-4.3515,-4.3515,-4.3515,-4.3515,-4.3515,-4.3515,-4.3515,-4.3515,-4.3515,-4.3515,-4.3478,-4.3057,-4.291,-4.2873,-4.247,-4.2543,-4.291,-4.291,-4.3387,-4.4048,-4.3662,-4.3515,-4.3515,-4.3515,-4.3515,-4.3515,-4.3515,-4.3204,-4.2837,-4.2433,-4.2029,-4.1772,-4.2176,-4.2029,-4.1809,-4.2176,-4.258,-4.2727,-4.1919,-4.1405,0.0,0.0,-3.9276,-3.8689,-3.8689,-3.8065,-3.7624,-3.8028,-3.8762,-3.9166,-3.8778,-3.9717,-4.0377,-3.9958,-4.1295,-4.1992,-4.1205,-4.1809,-4.1662,-4.0047,-4.0267,-4.001,-3.8799,-3.9827,-4.0671,-4.1058,-4.2249,-4.3057,-4.3515,-4.3515,-4.3515,-4.3515,-4.3515,-4.3515,-4.3515,-4.3515,-4.3515,-4.3515,-4.3515,-4.3515,-4.3515,-4.3515,-4.3515,-4.3515,-4.3515,-4.3515,-4.3515,-4.3515,-4.3515,-4.3515,-4.3515,-4.3515,-4.3515,-4.3515,-4.3515,-4.3551,-4.3681,-4.4268,-4.4728,-4.4929,-4.5369,-4.5736,-4.5883,-4.6471,-4.6489,-4.5498,-4.5553,-4.5333,-4.4488,-4.3882,-4.3625,-4.3938,-4.3662,-4.3515,-4.3515,-4.3515,-4.3515,-4.3515,-4.3515,-4.3515,-4.3515,-4.3515,-4.3515,-4.3515,-4.3515,-4.3515,-4.3478,-4.28,-4.28,-4.3167,-4.2066,-4.2213,-4.3277,-4.3441,-4.3515,-4.3515,-4.3515,-4.3515,-4.3515,-4.3515,-4.3515,-4.3515,-4.3515,-4.3515,-4.3404,-4.2727,-4.2323,-4.2249,-4.3204,-4.28,-4.2286,-4.3258,-4.3515,-4.3314,-4.269,-4.2543,-4.2139,0.0,0.0,0.0,-3.9203,-3.7991,0.0,-3.786,0.0,0.0,-3.7749,0.0,0.0,0.0,-3.9811,0.0,-4.0838,-4.0891,-4.0634,-3.9974,-3.9753,-3.9386,-3.8762,-3.9884,-4.0765,-4.1058,-4.2323,-4.3167,-4.3515,-4.3515,-4.3515,-4.3515,-4.3515,-4.3515,-4.3515,-4.3515,-4.3515,-4.3515,-4.3515,-4.3515,-4.3515,-4.3515,-4.3515,-4.3515,-4.3515,-4.3515,-4.3515,-4.3515,-4.3515,-4.3515,-4.3515,-4.3515,-4.3515,-4.3515,-4.3515,-4.3718,-4.4452,-4.4635,-4.4966,-4.5663,-4.5259,-4.5112,-4.581,-4.5993,-4.6507,-4.7755,-4.6067,-4.5626,-4.7572,-4.5149,-4.4085,-4.5516,-4.4268,-4.3515,-4.3515,-4.3515,-4.3515,-4.3515,-4.3515,-4.3515,-4.3515,-4.3515,-4.3515,-4.3515,-4.3515,-4.3515,-4.3515,-4.3387,-4.302,-4.247,-4.2983,-4.291,-4.2506,-4.3221,-4.3515,-4.3515,-4.3515,-4.3515,-4.3515,-4.3515,-4.3515,-4.3515,-4.3515,-4.3515,-4.3478,-4.3404,-4.2396,-4.1552,-4.3057,-4.2433,-4.1572,-4.3094,-4.3515,-4.3478,-4.3404,-4.3368,-4.3147,-4.2213,0.0,-4.1699,-4.0948,0.0,-3.9496,-3.9622,0.0,0.0,0.0,0.0,0.0,-3.8689,-3.8872,-3.9239,-3.9937,-4.0047,-4.001,0.0,-3.9239,-3.8799,-3.8726,-3.8872,-3.9591,-4.1022,-4.1279,-4.2029,-4.3441,-4.3515,-4.3515,-4.3515,-4.3515,-4.3515,-4.3515,-4.3515,-4.3515,-4.3515,-4.3515,-4.3515,-4.3515,-4.3515,-4.3515,-4.3515,-4.3515,-4.3515,-4.3515,-4.3515,-4.3515,-4.3515,-4.3515,-4.3515,-4.3515,-4.3515,-4.3515,-4.3625,-4.3938,-4.4011,-4.4268,-4.5076,-4.5718,-4.6195,-4.6526,-4.7021,-4.7572,-4.8233,-4.7388,-4.7003,-4.7553,-4.5957,-4.4966,-4.5186,-4.4121,-4.3718,-4.4195,-4.3754,-4.3718,-4.4195,-4.3718,-4.3515,-4.3515,-4.3515,-4.3515,-4.3515,-4.3515,-4.3515,-4.3478,-4.302,-4.2873,-4.2983,-4.2873,-4.2616,-4.2359,-4.3167,-4.3204,-4.2837,-4.3331,-4.3515,-4.3515,-4.3515,-4.3515,-4.3515,-4.3515,-4.3515,-4.3441,-4.2947,-4.2323,-4.1919,-4.2616,-4.2323,-4.2066,-4.3167,-4.3515,-4.3515,-4.3515,-4.3515,-4.3404,-4.3057,-4.2286,-4.1772,-4.2359,0.0,0.0,0.0,0.0,0.0,0.0,-3.8322,0.0,0.0,0.0,-3.7206,0.0,0.0,0.0,-3.9203,0.0,0.0,0.0,-3.9129,-3.968,-4.0377,-4.1295,-4.2103,-4.2763,-4.324,-4.3515,-4.3515,-4.3515,-4.3515,-4.3515,-4.3515,-4.3515,-4.3515,-4.3515,-4.3515,-4.3515,-4.3515,-4.3515,-4.3515,-4.3515,-4.3515,-4.3515,-4.3515,-4.3515,-4.3515,-4.3515,-4.3515,-4.3515,-4.3515,-4.3515,-4.3515,-4.3515,-4.3515,-4.3681,-4.4268,-4.5369,-4.6269,-4.6709,-4.7278,-4.7902,-4.8563,-4.8673,-4.871,-4.8764,-4.7645,-4.6654,-4.6067,-4.4856,-4.4232,-4.4378,-4.3791,-4.3754,-4.4378,-4.3791,-4.3515,-4.3515,-4.3515,-4.3515,-4.3515,-4.3515,-4.3515,-4.3478,-4.2873,-4.2947,-4.3478,-4.2873,-4.2616,-4.269,-4.324,-4.313,-4.269,-4.3277,-4.3515,-4.3515,-4.3515,-4.3515,-4.3515,-4.3515,-4.3515,0.0,-4.28,-4.2323,-4.2066,-4.2506,-4.2323,-4.2176,-4.3204,0.0,-4.3515,0.0,0.0,0.0,0.0,0.0,0.0,0.0,0.0,0.0,0.0,0.0,-3.9019,-3.9019,0.0,-3.7823,0.0,-3.6597,0.0,0.0,0.0,0.0,0.0,0.0,0.0,0.0,0.0,-3.968,-3.99,-4.1222,-4.2066,-4.2286,-4.3057,-4.3515,-4.3515,-4.3515,-4.3515,-4.3515,-4.3515,-4.3515,-4.3515,-4.3515,-4.3515,-4.3515,-4.3515,-4.3515,-4.3515,-4.3515,-4.3515,-4.3515,-4.3515,-4.3515,-4.3515,-4.3515,-4.3515,-4.3515,-4.3515,-4.3515,-4.3515,-4.3515,-4.3515,-4.3515,-4.3551,-4.3588,-4.4158,-4.5736,-4.5957,-4.6874,-4.9317,-4.9574,-5.0472,-5.2821,-5.0839,-4.9463,-4.9463,-4.7168,-4.5149,-4.3625,-4.3497,-4.3497,-4.3551,-4.3497,-4.3515,-4.3515,-4.3515,-4.3515,-4.3515,-4.3515,-4.3515,-4.3515,-4.3478,-4.3478,-4.3515,-4.3478,-4.3478,-4.3478,-4.3515,-4.3478,-4.3478,-4.3515,-4.3515,-4.3515,-4.3515,0.0,0.0,-4.3515,-4.3515,0.0,0.0,0.0,0.0,0.0,0.0,0.0,0.0,0.0,0.0,-4.3515,0.0,0.0,0.0,0.0,-4.3441,0.0,0.0,0.0,0.0,-4.0928,-3.9863,-3.9863,-3.9203,0.0,0.0,0.0,-3.7749,-3.8615,0.0,0.0,0.0,-3.9166,0.0,0.0,0.0,0.0,-3.9863,-4.0708,-4.1515,-4.2286,-4.3057,-4.3515,-4.3515,-4.3515,-4.3515,-4.3515,-4.3515,-4.3515,-4.3515,-4.3515,-4.3515,-4.3515,-4.3515,-4.3515,-4.3515,-4.3515,-4.3515,-4.3515,-4.3515,-4.3515,-4.3515,-4.3515,-4.3515,-4.3515,-4.3515,-4.3515,-4.3515,-4.3515,-4.3515,-4.3515,-4.3515,-4.3938,-4.5076,-4.7205,-4.7976,-4.9481,-5.2454,-5.2784,-5.3115,-5.3922,-5.2747,-5.1536,-5.0472,-4.8563,-4.7021,-4.592,-4.5369,-4.4819,-4.4305,-4.4305,-4.4011,-4.3515,-4.3515,-4.3515,-4.3515,-4.3515,-4.3515,-4.3515,-4.3515,-4.3515,-4.3515,-4.3515,-4.3167,-4.2727,-4.2727,-4.302,-4.3515,0.0,-4.3515,-4.3515,-4.3515,-4.3515,0.0,-4.3515,-4.3515,-4.3404,-4.2873,-4.269,-4.269,-4.269,-4.269,0.0,0.0,0.0,-4.3515,-4.3515,0.0,0.0,0.0,0.0,0.0,0.0,0.0,0.0,0.0,-4.1442,-4.0708,-4.0708,-4.001,-3.9129,0.0,-3.7235,-3.7015,-3.7823,-3.8615,-3.9129,0.0,0.0,0.0,0.0,0.0,0.0,0.0,-4.0084,-4.1205,-4.1515,-4.28,-4.3515,-4.3515,-4.3515,-4.3515,-4.3515,-4.3515,-4.3515,-4.3515,-4.3515,-4.3515,-4.3515,-4.3515,-4.3515,-4.3515,-4.3515,-4.3515,-4.3515,-4.3515,-4.3515,-4.3515,-4.3515,-4.3515,-4.3515,-4.3551,-4.3515,-4.3515,-4.3515,-4.3515,-4.3515,-4.3515,-4.4672,-4.6195,-4.8049,-4.9554,-5.1463,-5.4106,-5.4656,-5.495,-5.5244,-5.4803,-5.3555,-5.1353,-5.0215,-4.8746,-4.6746,-4.6471,-4.581,-4.4728,-4.5002,-4.4599,-4.3515,-4.3791,-4.3791,-4.3515,-4.3515,-4.3515,-4.3515,-4.3515,-4.3515,-4.3515,-4.3515,-4.3204,-4.2727,-4.2727,-4.302,-4.3515,0.0,-4.3515,-4.3515,0.0,-4.3515,-4.3515,-4.3515,-4.3515,-4.3404,-4.2873,-4.2873,-4.302,-4.28,-4.2873,-4.313,-4.3441,-4.3515,0.0,-4.3515,-4.3515,0.0,-4.3515,0.0,-4.2873,0.0,0.0,0.0,0.0,0.0,-4.1662,-4.0818,-4.0487,-3.9643,0.0,-3.7309,-3.7221,-3.7456,-3.8212,-3.8689,-3.8689,0.0,0.0,0.0,0.0,0.0,0.0,0.0,-4.1095,-4.1095,-4.2653,-4.3515,-4.3515,-4.3515,-4.3515,-4.3515,-4.3515,-4.3515,-4.3515,-4.3515,-4.3515,-4.3515,-4.3515,-4.3515,-4.3515,-4.3515,-4.3515,-4.3515,-4.3515,-4.3515,-4.3515,-4.3515,-4.3515,-4.3515,-4.3644,-4.3551,-4.3551,-4.3551,-4.3551,-4.3497,-4.3551,-4.559,-4.7443,-4.8379,-5.0618,-5.2747,-5.4399,-5.5244,-5.6014,-5.6785,-5.6859,-5.5537,-5.2417,-5.216,-5.0362,-4.6361,-4.6856,-4.6452,-4.4819,-4.5516,-4.5112,-4.3551,-4.4305,-4.4268,-4.3551,-4.3515,-4.3515,-4.3515,-4.3515,-4.3515,-4.3515,-4.3515,-4.3515,-4.3515,-4.3515,-4.3515,-4.3515,-4.3515,-4.3515,-4.3515,-4.3515,-4.3515,-4.3515,-4.3515,-4.3515,-4.3515,-4.3515,-4.2983,-4.2506,-4.3277,-4.2947,-4.2543,-4.3277,-4.3515,-4.3515,-4.3515,0.0,0.0,0.0,0.0,-4.3515,0.0,0.0,0.0,0.0,0.0,0.0,-4.0377,-4.0561,-4.0194,-3.7896,-3.8175,-3.8395,-3.7713,-3.8248,-3.8689,-3.8689,-3.7955,0.0,0.0,0.0,0.0,0.0,0.0,-4.1095,-4.1095,-4.2653,-4.3515,-4.3515,-4.3515,-4.3515,-4.3515,-4.3515,-4.3515,-4.3515,-4.3515,-4.3515,-4.3515,-4.3515,-4.3515,-4.3515,-4.3515,-4.3515,-4.3515,-4.3515,-4.3515,-4.3515,-4.3515,-4.3515,-4.3515,-4.3644,-4.3975,-4.4378,-4.4378,-4.3901,-4.3681,-4.4305,-4.5938,-4.803,-5.0692,-5.2637,-5.462,-5.6822,-5.7262,-5.7483,-5.7666,-5.7703,-5.7079,-5.5647,-5.4436,-5.2784,-5.0508,-4.9481,-4.7902,-4.5626,-4.5773,-4.5406,-4.4378,-4.4011,-4.4011,-4.4378,-4.3791,-4.3515,-4.3515,-4.3515,-4.3515,-4.3515,-4.3515,-4.3515,-4.3515,-4.3515,-4.3515,-4.3515,0.0,-4.3515,-4.3515,-4.3515,-4.3515,-4.3515,-4.3515,-4.3515,-4.3515,-4.3515,-4.3368,-4.3204,-4.3441,-4.3368,-4.3258,-4.3441,-4.3515,-4.3515,-4.3515,-4.3515,-4.3515,0.0,0.0,0.0,0.0,0.0,0.0,0.0,0.0,0.0,-4.1882,-4.0341,-3.9093,-3.8469,-3.8028,-3.819,-3.9182,-3.8946,-3.8689,-3.8689,-3.7955,0.0,0.0,0.0,0.0,0.0,0.0,0.0,-4.1095,-4.2653,-4.3515,-4.3515,-4.3515,-4.3515,-4.3515,-4.3515,-4.3515,-4.3515,-4.3515,-4.3515,-4.3515,-4.3515,-4.3515,-4.3515,-4.3515,-4.3515,-4.3515,-4.3515,-4.3515,-4.3515,-4.3515,-4.3515,-4.3515,-4.4121,-4.4672,-4.5112,-4.4764,-4.5186,-4.5736,-4.6214,-4.7039,-4.8563,-5.1132,-5.3188,-5.4913,-5.6271,-5.7373,-5.7997,-5.7997,-5.7997,-5.7519,-5.6345,-5.5427,-5.4032,-5.2087,-5.0802,-4.8967,-4.6471,-4.6434,-4.57,-4.4195,-4.4085,-4.4085,-4.4158,-4.3718,-4.3515,-4.3515,-4.3515,-4.3515,-4.3515,-4.3515,-4.3515,-4.3515,-4.3515,-4.3515,0.0,-4.3515,-4.3515,-4.3515,-4.3515,-4.3515,-4.3515,-4.3515,-4.3515,-4.3515,-4.3515,-4.3515,-4.3515,-4.3515,-4.3515,-4.3515,-4.3515,-4.3515,-4.3515,-4.3515,-4.3515,-4.3515,-4.3515,-4.3515,-4.3515,0.0,0.0,0.0,0.0,0.0,0.0,-4.1956,-4.0341,-3.9093,-3.8762,-3.8322,-3.8358,-3.9276,-3.9276,-3.9093,-3.8726,-3.7955,0.0,0.0,0.0,0.0,0.0,0.0,0.0,-4.1095,-4.2653,-4.3515,-4.3515,-4.3515,-4.3515,-4.3515,-4.3515,-4.3515,-4.3515,-4.3515,-4.3515,-4.3515,-4.3515,-4.3515,-4.3515,-4.3515,-4.3515,-4.3515,-4.3515,-4.3515,-4.3515,-4.3515,-4.3515,-4.3515,-4.4728,-4.5516,-4.592,-4.5039,-4.6948,-4.871,-4.893,-4.904,-4.9664,-5.1206,-5.3445,-5.4876,-5.4876,-5.6748,-5.7997,-5.7997,-5.7886,-5.7262,-5.5831,-5.5537,-5.4509,-5.2417,-5.1353,-4.9701,-4.7296,-4.7039,-4.5883,-4.3644,-4.4268,-4.4195,-4.3515,-4.3404,-4.3314,-4.3314,-4.3314,-4.3387,-4.3515,-4.3515,-4.3515,-4.3515,-4.3515,-4.3515,-4.3515,-4.3515,-4.3515,-4.3515,-4.3515,-4.3515,-4.3515,-4.3515,-4.3515,-4.3515,-4.3515,-4.3515,-4.3515,-4.3515,-4.3515,-4.3515,-4.3515,-4.3515,-4.3515,-4.3515,-4.3515,-4.3515,-4.3515,-4.3515,-4.3515,-4.3515,-4.3515,-4.3277,0.0,0.0,0.0,-4.1462,-4.0598,-3.979,-3.8982,-3.8872,-3.8872,-3.8872,-3.946,0.0,0.0,0.0,0.0,0.0,0.0,0.0,0.0,0.0,0.0,-4.1095,-4.2653,-4.3515,-4.3515,0.0,-4.3515,-4.3515,-4.3515,-4.3515,-4.3515,-4.3515,-4.3515,-4.3515,-4.3515,-4.3515,-4.3515,-4.3515,-4.3515,-4.3515,-4.3515,-4.3515,-4.3515,-4.3515,-4.3515,-4.3515,-4.4948,-4.6434,-4.7425,-4.5957,-4.8269,-5.0802,-5.2139,-5.2931,-5.3665,-5.462,-5.6271,-5.7373,-5.7373,-5.774,-5.7997,-5.7997,-5.7409,-5.6895,-5.6602,-5.5354,-5.4399,-5.3995,-5.194,-4.9958,-4.8122,-4.6801,-4.559,-4.4488,-4.3975,-4.3644,-4.3515,-4.28,-4.2506,-4.2506,-4.2506,-4.2873,-4.3515,-4.3515,0.0,-4.3515,-4.3515,-4.3515,-4.3515,-4.3515,-4.3515,-4.3515,-4.3515,-4.3515,-4.3515,-4.3515,-4.3515,-4.3515,-4.3515,-4.3515,-4.3515,-4.3515,-4.3515,-4.3515,-4.3515,-4.3515,-4.3515,-4.3515,-4.3515,-4.3515,-4.3515,-4.3515,-4.3515,-4.3515,-4.3515,-4.3478,-4.3331,0.0,0.0,0.0,0.0,0.0,-3.979,-3.968,-3.968,-3.968,-3.979,-3.9827,0.0,0.0,0.0,0.0,0.0,0.0,0.0,0.0,0.0,0.0,-4.2653,0.0,0.0,0.0,-4.3515,-4.3515,-4.3515,-4.3515,-4.3515,-4.3515,-4.3515,-4.3515,-4.3515,-4.3515,-4.3515,-4.3515,-4.3515,-4.3515,-4.3515,-4.3515,-4.3515,-4.3515,-4.3515,-4.3515,-4.6801,-4.7498,-4.8343,-4.8416,-5.0105,-5.1977,-5.3592,-5.5207,-5.5941,-5.5097,-5.5647,-5.6124,-5.6124,-5.6895,-5.7373,-5.7373,-5.6638,-5.6161,-5.6161,-5.506,-5.4399,-5.4399,-5.2087,-5.0031,-4.8343,-4.6728,-4.5296,-4.4085,-4.3681,-4.3277,-4.2873,-4.247,-4.2103,-4.1699,-4.2103,-4.2763,0.0,0.0,0.0,-4.3515,-4.3515,-4.3515,-4.3515,-4.3515,-4.3515,-4.3515,-4.3515,-4.3515,-4.3515,-4.3515,-4.3515,-4.3515,-4.3515,-4.3515,-4.3515,-4.3515,-4.3515,-4.3515,-4.3515,-4.3515,-4.3515,-4.3515,-4.3515,-4.3515,-4.3515,-4.3515,-4.3515,-4.3515,-4.3515,-4.3515,-4.3515,-4.3167,0.0,0.0,0.0,0.0,0.0,-4.0524,-4.0377,-3.9937,-4.0267,-4.0194,-3.935,-3.9643,-3.957,-3.8762,-3.8689,-3.8689,0.0,0.0,0.0,0.0,0.0,0.0,0.0,0.0,0.0,-4.3515,-4.3515,-4.3515,-4.3515,-4.3515,-4.3515,-4.3515,-4.3515,-4.3515,-4.3515,-4.3515,-4.3515,-4.3515,-4.3515,-4.3515,-4.3515,-4.3515,-4.3515,-4.3515,-4.871,-4.871,-4.9297,-5.0802,-5.1867,-5.2968,-5.4436,-5.6565,-5.7299,-5.5427,-5.5023,-5.4913,-5.4913,-5.5904,-5.6528,-5.6528,-5.5794,-5.5317,-5.5317,-5.4583,-5.4069,-5.3885,-5.1903,-4.9958,-4.8086,-4.6654,-4.5112,-4.3515,-4.3515,-4.2983,-4.2066,-4.2213,-4.1956,0.0,0.0,0.0,0.0,0.0,-4.3515,-4.3515,-4.3515,-4.3515,-4.3515,-4.3515,-4.3515,-4.3515,-4.3515,-4.3515,-4.3515,-4.3515,-4.3515,-4.3515,-4.3515,-4.3515,-4.3515,-4.3515,-4.3515,-4.3515,-4.3515,-4.3515,-4.3515,-4.3515,-4.3515,-4.3515,-4.3515,-4.3515,-4.3515,-4.3515,-4.3515,-4.3515,-4.3515,-4.3515,0.0,0.0,0.0,0.0,0.0,0.0,-4.1001,-4.001,-4.0634,-4.0471,-3.8872,0.0,0.0,0.0,-3.8689,-3.8689,-3.8689,-4.0215,-4.1095,0.0,0.0,-4.3515,-4.3515,0.0,-4.3515,-4.3515,-4.3515,-4.3515,-4.3515,-4.3515,-4.3515,-4.3515,-4.3515,-4.3515,-4.3515,-4.3515,-4.3515,-4.3515,-4.3515,-4.3515,-4.3515,-4.3515,-4.3515,-4.3515,-4.95,-5.0068,-5.0839,-5.172,-5.3151,-5.4473,-5.5354,-5.6932,-5.7923,-5.7703,-5.7042,-5.6602,-5.6602,-5.6051,-5.5684,-5.5684,-5.4987,-5.4509,-5.4509,-5.3775,-5.3004,-5.227,-5.1316,-4.9664,-4.7259,-4.6361,-4.5112,-4.3515,-4.3515,-4.2727,-4.1242,-4.1956,0.0,0.0,0.0,0.0,0.0,-4.3515,-4.3515,-4.3515,-4.3515,-4.3515,-4.3515,-4.3515,-4.3515,-4.3515,-4.3515,-4.3515,-4.3515,-4.3515,-4.3515,-4.3515,-4.3515,-4.3515,-4.3515,-4.3515,-4.3515,-4.3515,-4.3515,-4.3515,-4.3515,-4.3515,-4.3515,-4.3515,-4.3515,-4.3515,-4.3515,-4.3515,-4.3515,-4.3515,-4.3515,-4.3515,-4.3478,0.0,0.0,0.0,0.0,0.0,-4.1625,-4.0084,-4.0634,-4.0471,-3.8872,-3.9423,0.0,0.0,-3.8689,-3.8689,-3.8689,-4.0215,-4.1095,-4.1095,0.0,-4.3515,-4.3515,-4.3515,-4.3515,-4.3515,-4.3515,-4.3515,-4.3515,-4.3515,-4.3515,-4.3515,-4.3515,-4.3515,-4.3515,-4.3515,-4.3515,-4.3515,-4.3515,-4.3515,-4.3515,-4.3515,-4.3515,-4.3515,-5.1867,-5.2013,-5.2821,-5.4583,-5.462,-5.484,0.0,-5.6859,-5.7116,-5.6602,-5.6712,-5.6638,-5.6124,-5.5354,-5.4876,-5.4876,-5.4142,-5.3702,-5.3702,-5.3408,-5.2858,-5.2013,-5.1242,-4.9884,-4.7846,-4.6544,-4.5333,0.0,-4.3718,-4.291,-4.1846,0.0,0.0,0.0,0.0,-4.3057,-4.3515,-4.3515,-4.3515,-4.3515,-4.3515,-4.3515,-4.3515,-4.3515,-4.3515,-4.3515,-4.3515,-4.3515,-4.3515,-4.3515,-4.3515,-4.3515,-4.3515,-4.3515,-4.3515,-4.3515,-4.3515,-4.3515,-4.3515,-4.3515,-4.3515,-4.3515,-4.3515,-4.3515,-4.3515,-4.3515,-4.3515,-4.3515,-4.3515,-4.3515,-4.3515,-4.3515,-4.3515,0.0,0.0,0.0,0.0,0.0,-4.258,-4.1479,-4.1222,-4.0655,-3.9533,-3.9276,0.0,0.0,0.0,-3.8689,-3.8689,-4.0215,0.0,-4.1095,0.0,-4.3515,-4.3515,-4.3515,-4.3515,-4.3515,-4.3515,-4.3515,-4.3515,-4.3515,-4.3515,-4.3515,-4.3515,-4.3515,-4.3515,-4.3515,-4.3515,-4.3515,-4.3515,-4.3515,-4.3515,-4.3515,-4.3515,-4.3515,-5.3298,0.0,-5.3628,0.0,-5.5317,-5.4876,-5.6235,-5.6455,-5.6161,-5.5354,-5.5757,-5.5868,-5.5317,-5.4509,-5.4069,-5.4069,-5.3555,-5.3093,-5.2858,-5.2858,-5.238,-5.1336,-5.0729,0.0,-4.7957,-4.6617,-4.5516,-4.4691,-4.3901,0.0,0.0,0.0,0.0,0.0,-4.2653,-4.2947,-4.3515,-4.3515,-4.3515,-4.3515,-4.3515,-4.3515,-4.3515,-4.3515,-4.3515,-4.3515,-4.3515,-4.3515,-4.3515,-4.3515,-4.3515,-4.3515,-4.3515,-4.3515,-4.3515,-4.3515,-4.3515,-4.3515,-4.3515,-4.3515,-4.3515,-4.3515,-4.3515,-4.3515,-4.3515,-4.3515,-4.3515,-4.3515,-4.3515,-4.3515,-4.3515,-4.3515,-4.3515,-4.3515,0.0,0.0,0.0,-4.3374,0.0,-4.2135,-4.1689,-4.1148,-4.0341,-3.9753,0.0,0.0,0.0,0.0,0.0,0.0,0.0,0.0,0.0,0.0,0.0,-4.3515,-4.3515,-4.3515,-4.3515,-4.3515,-4.3515,-4.3515,-4.3515,-4.3515,-4.3515,-4.3515,-4.3515,-4.3515,-4.3515,-4.3515,-4.3515,-4.3515,-4.3515,-4.3515,-4.3515,-4.3515,-5.3078,-5.2564,-5.2784,-5.5192,-5.495,-5.4656,-5.5486,-5.5611,-5.5317,-5.4509,-5.4436,-5.4436,-5.4436,-5.3702,-5.3203,-5.3203,-5.3203,-5.2858,-5.205,-5.2013,-5.1279,0.0,0.0,-4.882,-4.7149,-4.6324,-4.5516,-4.4691,0.0,0.0,-4.2286,0.0,-4.2727,-4.3515,-4.3515,-4.3515,-4.3515,-4.3515,-4.3515,-4.3515,-4.3515,-4.3515,-4.3515,-4.3515,-4.3515,-4.3515,-4.3515,-4.3515,-4.3515,-4.3515,-4.3515,-4.3515,-4.3515,-4.3515,-4.3515,-4.3515,-4.3515,-4.3515,-4.3515,-4.3515,-4.3515,-4.3515,-4.3515,-4.3515,-4.3515,-4.3515,-4.3515,-4.3515,-4.3515,-4.3515,-4.3515,-4.3515,-4.3515,-4.3515,0.0,0.0,0.0,-4.3178,0.0,-4.1594,-4.1938,-4.1992,-4.1168,-4.1058,0.0,0.0,0.0,0.0,0.0,0.0,0.0,-4.2249,-4.3057,0.0,-4.3515,-4.3515,-4.3515,-4.3515,-4.3515,-4.3515,-4.3515,-4.3515,-4.3515,-4.3515,-4.3515,-4.3515,-4.3515,-4.3515,-4.3515,-4.3515,-4.3515,-4.3515,-4.3515,-4.3515,-4.3515,-4.3515,-5.3959,-5.4252,-5.4715,-5.5486,-5.539,-5.5097,-5.484,-5.4766,-5.4473,-5.3702,-5.3592,-5.3592,-5.3592,-5.3371,-5.3203,0.0,-5.3203,-5.3115,0.0,-5.2307,-5.1536,-5.0472,-4.9904,-4.882,-4.7149,-4.6324,-4.5516,-4.4691,0.0,0.0,0.0,-4.313,-4.324,-4.3515,-4.3515,-4.3515,-4.3515,-4.3515,-4.3515,-4.3515,-4.3515,-4.3515,-4.3515,-4.3515,-4.3515,-4.3515,-4.3515,-4.3515,-4.3426,-4.3087,-4.294,-4.2884,-4.2446,-4.2866,-4.3515,-4.3515,-4.3515,-4.3515,-4.3515,-4.3515,-4.3515,-4.3515,-4.3515,-4.3515,-4.3515,-4.3214,-4.2846,-4.2406,-4.2346,-4.2346,-4.2346,-4.2676,-4.294,-4.294,-4.325,0.0,-4.3268,0.0,-4.3335,-4.2902,-4.2531,-4.2213,-4.1956,-4.1425,0.0,0.0,0.0,0.0,0.0,0.0,0.0,0.0,-4.3057,0.0,-4.3515,-4.3515,-4.3515,-4.3515,-4.3515,-4.3515,-4.3515,-4.3515,-4.3515,-4.3515,-4.3515,-4.3515,-4.3515,-4.3515,-4.3515,-4.3515,-4.3515,-4.3515,-4.3515,-4.3515,-4.3515,-4.3515,-5.3959,-5.4363,-5.4693,-5.4693,-5.4693,-5.4509,-5.4032,-5.3959,-5.3775,-5.3298,-5.3203,-5.3203,-5.3203,-5.3203,0.0,-5.3203,-5.2931,-5.2637,-5.2344,-5.1536,-5.0729,-4.9884,-4.937,-4.8489,-4.7113,-4.6324,0.0,-4.4691,-4.3901,-4.3515,-4.3515,-4.3515,-4.3515,-4.3515,-4.3515,-4.3515,-4.3515,-4.3515,-4.3515,-4.3515,-4.3515,-4.3515,-4.3515,-4.3515,-4.3515,-4.3515,-4.3515,-4.3515,-4.3445,-4.2865,-4.2693,-4.2596,-4.1979,-4.2286,-4.2847,-4.2847,-4.3014,-4.3196,-4.3196,-4.3196,-4.325,-4.3463,-4.3515,-4.3463,-4.325,-4.2957,-4.2537,-4.1916,-4.181,-4.181,-4.181,-4.2103,-4.2362,-4.2362,-4.2638,-4.2791,-4.2563,0.0,-4.2847,0.0,0.0,0.0,0.0,-4.2286,-4.2103,0.0,0.0,0.0,0.0,0.0,0.0,-4.2727,-4.3258,0.0,-4.3515,-4.3515,-4.3515,-4.3515,-4.3515,-4.3515,-4.3515,-4.3515,-4.3515,-4.3515,-4.3515,-4.3515,-4.3515,-4.3515,-4.3515,-4.3515,-4.3515,-4.3515,-4.3515,-4.3515,-4.3515,-4.3515,-5.3203,-5.3203,-5.3203,0.0,-5.3203,0.0,-5.3203,-5.3203,-5.3203,-5.3203,-5.3203,-5.3203,-5.3203,-5.3203,-5.3167,-5.3093,0.0,0.0,0.0,-5.0031,-4.9243,-4.8416,-4.8343,-4.7939,-4.7113,-4.6324,-4.548,-4.4618,-4.3864,-4.3515,-4.3515,-4.3515,-4.3515,-4.3515,-4.3515,-4.3515,-4.3515,-4.3515,-4.3515,-4.3515,-4.3515,-4.3515,-4.3515,-4.3515,-4.3515,-4.3497,-4.3463,-4.3426,-4.3339,-4.277,-4.2577,-4.2462,-4.1874,-4.1725,-4.1746,-4.1789,-4.2221,-4.2635,-4.2635,-4.2635,-4.2751,-4.3268,-4.3374,-4.325,-4.2693,-4.2577,-4.2402,-4.181,-4.1682,-4.1682,-4.1682,-4.1725,-4.1746,-4.1746,-4.1789,-4.1582,-4.1024,-4.1464,-4.181,0.0,0.0,0.0,0.0,-4.3426,-4.3133,0.0,0.0,0.0,0.0,0.0,-4.2727,-4.3478,-4.3515,-4.3515,-4.3515,-4.3515,-4.3515,-4.3515,-4.3515,-4.3515,-4.3515,-4.3515,-4.3515,-4.3515,-4.3515,-4.3515,-4.3515,-4.3515,-4.3515,-4.3515,-4.3515,-4.3515,-4.3515,-4.3515,-4.3515,-4.3515,0.0,0.0,-5.3203,-5.3203,-5.3203,-5.3203,-5.3203,-5.3203,-5.3203,-5.3203,-5.3203,-5.3203,-5.3203,-5.3203,-5.2968,-5.2344,-5.2087,-5.1646,-5.0839,-5.0031,-4.95,-4.9317,-4.8636,-4.7939,-4.7113,-4.6324,-4.5223,-4.3791,-4.3571,-4.3515,-4.3515,-4.3515,-4.3515,-4.3515,-4.3515,-4.3515,-4.3515,-4.3515,-4.3515,-4.3515,-4.3515,-4.3515,-4.3515,-4.3515,-4.3515,-4.3463,-4.305,-4.2865,-4.2732,-4.1703,-4.1318,-4.1241,-4.0672,-4.0791,-4.1183,-4.1647,-4.1895,-4.2,-4.2,-4.2,-4.2041,-4.2165,-4.2206,-4.2062,-4.1451,-4.1318,-4.1173,-4.0635,-4.049,-4.049,-4.049,-4.0827,-4.1093,-4.1093,-4.1495,-4.1768,-4.1617,-4.1725,-4.181,0.0,-4.1916,-4.2226,-4.2827,-4.2865,-4.2996,0.0,0.0,0.0,0.0,-4.3204,-4.3294,-4.3515,-4.3515,-4.3515,-4.3515,-4.3515,-4.3515,-4.3515,-4.3515,-4.3515,-4.3515,-4.3515,-4.3515,-4.3515,-4.3515,-4.3515,-4.3515,-4.3515,-4.3515,-4.3515,-4.3515,-4.3515,-4.3515,-4.3515,-4.3515,-4.3515,-5.3203,-5.3203,-5.3203,-5.3203,-5.3203,-5.3203,-5.3203,-5.3203,-5.3203,-5.3203,-5.3203,-5.3203,-5.3203,-5.3203,-5.2747,-5.1536,-5.1463,-5.1096,-5.0288,-4.9481,-4.9003,-4.9003,-4.8563,-4.7755,-4.6581,-4.6104,-4.5112,-4.3515,-4.3515,-4.3515,-4.3515,-4.3515,-4.3515,-4.3515,-4.3515,-4.3515,-4.3515,-4.3515,-4.3515,-4.3515,-4.3515,-4.3515,-4.3515,-4.3515,-4.3515,-4.3445,-4.2884,-4.2693,-4.2537,-4.1296,-4.092,-4.0803,-4.0279,-4.0294,-4.0601,-4.0932,-4.1196,-4.1385,-4.1385,-4.1385,-4.1429,-4.1746,-4.181,-4.166,-4.1024,-4.092,-4.0733,-4.0204,-4.0113,-4.0113,-4.0113,-4.0343,-4.0528,-4.0528,-4.0814,-4.1013,-4.1013,-4.1013,0.0,-4.134,-4.1385,-4.1639,-4.2241,-4.2302,-4.2422,-4.2715,-4.2734,0.0,-4.2734,-4.2977,-4.325,-4.3497,-4.3515,-4.3515,-4.3515,-4.3515,-4.3515,-4.3515,-4.3515,-4.3515,-4.3515,-4.3515,-4.3515,-4.3515,-4.3515,-4.3515,-4.3515,-4.3515,-4.3515,-4.3515,-4.3515,-4.3515,-4.3515,-4.3515,-4.3515,-4.3515,-5.3203,-5.3203,-5.3203,-5.3203,-5.3203,-5.3203,-5.3203,-5.3203,-5.3203,-5.3203,-5.3203,-5.3203,-5.3203,-5.3203,-5.2601,-5.1096,-5.0875,-5.0398,-4.9463,-4.871,-4.8306,-4.8306,-4.8196,-4.7498,-4.6104,-4.5847,-4.5002,-4.3515,-4.3515,-4.3515,-4.3515,-4.3515,-4.3515,-4.3515,-4.3515,-4.3515,-4.3515,-4.3515,-4.3515,-4.3497,-4.3391,-4.3356,-4.3356,-4.3286,-4.325,-4.316,-4.2619,-4.2422,-4.2262,-4.1173,-4.078,-4.0685,-4.0254,-4.0113,-4.0113,-4.0113,-4.0441,-4.078,-4.078,-4.078,-4.0897,-4.142,-4.1552,-4.1455,-4.1035,-4.0849,-4.0707,-4.0485,-4.035,-4.0282,-4.0282,-4.0282,-4.0248,-4.0113,-4.0113,-4.0113,-4.0113,0.0,-4.0279,-4.0709,-4.078,-4.1013,-4.1617,-4.1647,-4.1703,-4.181,-4.181,-4.181,-4.181,-4.2282,-4.2808,-4.3356,-4.3463,-4.3515,-4.3515,-4.3515,-4.3515,-4.3515,-4.3515,-4.3515,-4.3515,-4.3515,-4.3515,-4.3515,-4.3515,-4.3515,-4.3515,-4.3515,-4.3515,-4.3515,-4.3515,-4.3515,-4.3515,-4.3515,-4.3515,-4.3515,-5.3203,-5.3203,-5.3203,-5.3203,-5.3203,-5.3203,-5.3203,-5.3203,-5.3203,-5.3203,-5.3203,-5.3203,-5.3203,-5.3203,-5.2821,-5.1867,-5.1206,-5.0141,-4.86,-4.8379,-4.8306,-4.8306,-4.7626,-4.7186,-4.6929,-4.5572,-4.4415,-4.3515,-4.3515,-4.3515,-4.3515,-4.3515,-4.3515,-4.3515,-4.3515,-4.3515,-4.3515,-4.3515,-4.3515,-4.348,-4.3013,-4.2808,-4.277,-4.2246,-4.2062,-4.2,-4.1385,-4.1161,-4.1105,-4.0441,-4.0229,-4.0204,-4.0138,-4.0113,-4.0113,-4.0113,-4.0154,-4.0229,-4.0229,-4.0229,-4.0254,-4.0353,-4.0343,-4.0489,-4.1044,-4.0679,-4.0544,-4.1704,-4.1441,-4.1035,-4.1035,-4.1035,-4.0832,-4.0214,-4.0113,-4.0113,-4.0113,0.0,-4.0104,-4.0204,-4.0229,-4.0441,-4.099,-4.1024,-4.1228,-4.1768,-4.181,-4.181,-4.181,-4.1895,-4.2185,-4.2789,-4.3268,-4.3515,-4.3515,-4.3515,-4.3515,-4.3515,-4.3515,-4.3515,-4.3515,-4.3515,-4.3515,-4.3515,-4.3515,-4.3515,-4.3515,-4.3515,-4.3515,-4.3515,-4.3515,-4.3515,-4.3515,-4.3515,-4.3515,-4.3515,-5.3203,-5.3203,-5.3203,-5.3203,-5.3203,-5.3203,-5.3203,-5.3203,-5.3203,-5.3203,-5.3203,-5.3041,-5.2601,-5.2564,-5.205,-5.0822,-5.0381,-4.9627,-4.8379,-4.8306,-4.8122,-4.7663,-4.7296,-4.6672,-4.5828,-4.4672,-4.3864,-4.3515,-4.3515,-4.3515,-4.3515,-4.3515,-4.3339,-4.3087,-4.3087,-4.2902,-4.2563,-4.2563,-4.2563,-4.2544,-4.2286,-4.2221,-4.2165,-4.1916,-4.181,-4.1725,-4.1093,-4.092,-4.0827,-4.0303,-4.0113,-4.0113,-4.0113,-4.0113,-4.0113,-4.0113,-4.0113,-4.018,-4.0561,-4.0696,-4.0798,-4.1196,-4.1297,-4.1373,-4.1711,-4.1508,-4.15,-4.2151,-4.2016,-4.1677,-4.1271,-4.1204,-4.0967,-4.0214,-4.0113,0.0,0.0,-4.0113,-4.0113,-4.0113,-4.0113,-4.0204,-4.0466,-4.049,-4.0577,-4.0861,-4.0885,-4.0885,-4.0885,-4.1173,-4.1617,-4.22,-4.3051,-4.3515,-4.3515,-4.3515,-4.3515,-4.3515,-4.3515,-4.3515,-4.3515,-4.3515,-4.3515,-4.3515,-4.3515,-4.3515,-4.3515,-4.3515,-4.3515,-4.3515,-4.3515,-4.3515,-4.3515,-4.3515,-4.3515,-4.3515,-5.3203,-5.3203,-5.3203,-5.3203,-5.3203,-5.3203,-5.3203,-5.3203,-5.3203,-5.3203,-5.3203,-5.2968,-5.2344,-5.2087,-5.152,-5.0271,-4.9831,-4.9317,-4.8636,-4.8416,-4.7993,-4.7406,-4.7003,-4.6049,-4.4452,-4.3828,-4.3515,-4.3515,-4.3515,-4.3445,-4.3303,-4.3303,-4.3014,-4.2498,-4.2498,-4.2241,-4.181,-4.181,-4.181,-4.1789,-4.166,-4.1617,-4.1595,-4.1464,-4.1397,-4.1353,-4.0874,-4.0709,-4.0672,-4.0254,-4.0113,-4.0113,-4.0113,-4.0214,-4.0383,-4.0383,-4.0485,-4.0756,-4.1305,-4.1339,-4.1373,-4.2117,-4.2286,-4.232,-4.2523,-4.2422,-4.2388,-4.276,-4.2692,-4.2388,-4.1813,-4.1576,-4.1204,-4.0485,0.0,0.0,0.0,-4.0113,-4.0113,-4.0113,-4.0113,-4.0113,-4.0113,-4.0282,-4.0383,-4.0383,-4.0519,-4.062,-4.062,-4.1028,-4.1418,-4.1855,-4.2937,-4.3515,-4.3515,-4.3515,-4.3571,-4.3791,-4.3791,-4.3791,-4.3791,-4.3791,-4.3698,-4.3515,-4.3515,-4.3515,-4.3515,-4.3515,-4.3515,-4.3515,-4.3515,-4.3515,-4.3515,-4.3515,-4.3515,-4.3515,-5.3203,-5.3203,-5.3203,-5.3203,-5.3203,-5.3203,-5.3203,-5.3203,-5.3203,-5.3203,-5.3203,-5.3167,-5.3093,-5.2454,-5.194,-5.183,-5.0455,-4.9574,-4.95,-4.8746,-4.8269,-4.8233,-4.6801,-4.5223,-4.3608,-4.3551,-4.3515,-4.3515,-4.3515,-4.325,-4.2751,-4.2751,-4.2422,-4.1874,-4.1874,-4.1853,-4.181,-4.181,-4.181,-4.1768,-4.1183,-4.099,-4.092,-4.0417,-4.0229,-4.0204,-4.0154,-4.0154,-4.0129,-4.0138,-4.0113,-4.0113,-4.0113,-4.0561,-4.1136,-4.1136,-4.161,-4.2151,-4.2185,-4.1711,-4.1373,-4.2117,-4.2286,-4.2489,-4.3139,-4.2794,-4.2692,-4.4141,-4.3842,-4.3274,-4.324,-4.2692,-4.1982,-4.1238,0.0,0.0,-4.0113,-4.0113,-4.0113,-4.0113,-4.0113,-4.0113,-4.0113,-4.0696,-4.1136,-4.1136,-4.1745,-4.2117,-4.2117,-4.217,-4.2168,-4.2087,-4.2979,-4.3515,-4.3515,-4.3515,-4.3864,-4.4635,-4.4635,-4.4635,-4.4635,-4.4635,-4.4195,-4.3515,-4.3515,-4.3515,-4.3515,-4.3515,-4.3515,-4.3515,-4.3515,-4.3515,-4.3515,-4.3515,-4.3515,-4.3515,-5.2454,-5.2858,-5.3203,-5.3203,-5.3203,-5.3203,-5.3203,-5.3203,-5.3203,-5.3203,-5.3203,-5.3004,-5.2527,-5.1756,-5.1059,-5.0565,-4.9444,-4.8783,-4.8783,-4.8489,-4.8067,-4.759,-4.6507,-4.5369,-4.4268,-4.4232,-4.4011,-4.3515,-4.3178,-4.292,-4.2674,-4.2322,-4.1832,-4.1228,-4.1228,-4.1059,-4.0744,-4.0744,-4.0744,-4.072,-4.0514,-4.0417,-4.0368,-4.0179,-4.0113,-4.0113,-4.0113,-4.0113,-4.0113,-4.0113,-4.0113,-4.018,-4.0629,-4.0967,-4.1373,-4.232,-4.2455,-4.2489,-4.3498,-4.3166,-4.276,-4.3504,-4.3735,-4.3802,-4.4079,-4.3938,-4.3904,-4.4479,-4.435,-4.3978,-4.3477,-4.3166,-4.276,-4.1982,0.0,-4.1441,-4.1441,-4.1441,-4.1441,-4.1441,-4.1441,-4.1441,-4.1441,-4.1711,-4.188,-4.188,-4.2117,-4.2286,-4.2286,-4.2202,-4.2152,-4.2085,-4.2307,-4.2446,-4.2446,-4.2446,-4.2625,-4.2913,-4.3788,-4.4195,-4.4214,-4.4528,-4.4525,-4.4232,-4.3718,-4.3515,-4.3515,-4.3515,-4.3515,-4.3515,-4.3515,-4.3515,-4.3515,-4.3515,-4.3515,-4.3515,-5.194,-5.2454,-5.2894,-5.3188,-5.3203,-5.3203,-5.3203,-5.3203,-5.3203,-5.3203,-5.3203,-5.2894,-5.2087,-5.1279,-5.0472,-4.9684,-4.8783,-4.8306,-4.8306,-4.8306,-4.792,-4.7149,-4.6562,-4.581,-4.4839,-4.4802,-4.4417,-4.3666,-4.3296,-4.289,-4.251,-4.2092,-4.1462,-4.0672,-4.0889,-4.0646,-4.0113,-4.035,-4.0316,-4.0113,-4.0113,-4.0113,-4.0113,-4.0113,-4.0248,-4.0417,-4.018,-4.0417,-4.0756,-4.0519,-4.062,-4.0891,-4.1373,-4.1711,-4.2151,-4.3403,-4.3403,-4.3301,-4.4587,-4.4553,-4.4215,-4.4547,-4.4615,-4.4615,-4.4615,-4.4784,-4.4925,-4.4925,-4.4925,-4.479,-4.4248,-4.3713,-4.3234,-4.2726,-4.2455,-4.2286,-4.2286,-4.2286,-4.2286,-4.2286,-4.2286,-4.2286,-4.2286,-4.2489,-4.2658,-4.2658,-4.2861,-4.2997,-4.2997,-4.2672,-4.2515,-4.2515,-4.1916,-4.173,-4.1939,-4.2075,-4.2249,-4.2554,-4.3742,-4.4304,-4.4324,-4.4473,-4.4487,-4.4382,-4.3597,-4.3485,-4.3864,-4.3864,-4.4011,-4.4232,-4.4232,-4.4085,-4.3884,-4.3944,-4.367,-4.3251,-5.183,-5.1977,-5.227,-5.3078,-5.3203,-5.3203,-5.3203,-5.3203,-5.3203,-5.3203,-5.3203,-5.2894,-5.2087,-5.1279,-5.0472,-4.9684,-4.8783,-4.8306,-4.8306,-4.8306,-4.792,-4.7149,-4.7113,-4.6445,-4.5039,-4.5019,-4.4692,-4.3999,-4.3999,-4.3372,-4.2109,-4.2085,-4.1391,-4.0146,-4.0865,-4.0798,-4.018,-4.0899,-4.0764,-4.0113,-4.0113,-4.0113,-4.0113,-4.0113,-4.0561,-4.1102,-4.0383,-4.106,-4.2185,-4.1474,-4.1677,-4.2286,-4.2286,-4.2828,-4.3544,-4.435,-4.4615,-4.4784,-4.55,-4.5703,-4.5534,-4.4818,-4.4615,-4.4615,-4.4615,-4.5162,-4.5703,-4.5703,-4.5703,-4.5703,-4.5703,-4.4423,-4.3409,-4.3409,-4.2794,-4.232,-4.232,-4.232,-4.232,-4.232,-4.232,-4.232,-4.232,-4.2997,-4.3409,-4.3409,-4.4147,-4.4615,-4.4615,-4.3842,-4.3375,-4.3375,-4.1982,-4.1576,-4.2286,-4.2672,-4.3289,-4.4089,-4.4845,-4.5198,-4.5163,-4.4443,-4.4007,-4.3788,-4.3035,-4.3485,-4.4691,-4.4691,-4.5168,-4.5883,-4.5883,-4.5406,-4.4747,-4.493,-4.4065,-4.276,-5.1096,-5.2087,-5.2747,-5.2417,-5.2821,-5.3203,-5.3203,-5.3203,-5.3203,-5.3203,-5.3203,-5.2894,-5.2087,-5.1279,-5.0472,-4.9684,-4.8783,-4.8306,-4.8306,-4.8306,-4.8196,-4.7976,-4.792,-4.7285,-4.5848,-4.5848,-4.523,-4.3999,-4.364,-4.3225,-4.2846,-4.1918,-4.152,-4.161,-4.1339,-4.1068,-4.0899,-4.1102,-4.1068,-4.0865,-4.0865,-4.117,-4.1636,-4.1636,-4.1779,-4.1948,-4.1711,-4.1914,-4.2252,-4.2049,-4.2117,-4.2388,-4.2929,-4.3978,-4.506,-4.5297,-4.5737,-4.6177,-4.6413,-4.6481,-4.6413,-4.6177,-4.6143,-4.6143,-4.6143,-4.6312,-4.6481,-4.6481,-4.6481,-4.6481,-4.6481,-4.5669,-4.5026,-4.5026,-4.4384,-4.3904,-4.3904,-4.3904,-4.3904,-4.3904,-4.3904,-4.3904,-4.3904,-4.4113,-4.4215,-4.4215,-4.4479,-4.4615,-4.4615,-4.3842,-4.3375,-4.3375,-4.2489,-4.2083,-4.2286,-4.1895,-4.2096,-4.2842,-4.4069,-4.4638,-4.4638,-4.48,-4.483,-4.4738,-4.3934,-4.3843,-4.4228,-4.4228,-4.4335,-4.4614,-4.5064,-4.5115,-4.4953,-4.5475,-4.5067,-4.4373,-5.1132,-5.205,-5.2674,-5.2491,-5.2894,-5.3203,-5.3203,-5.3203,-5.3203,-5.3203,-5.3203,-5.2784,-5.1646,-5.1096,-5.0325,-4.9187,-4.86,-4.8306,-4.8306,-4.8306,-4.8306,-4.8306,-4.8075,-4.7399,-4.6319,-4.6297,-4.562,-4.4232,-4.3924,-4.3434,-4.2817,-4.1996,-4.1711,-4.1847,-4.1711,-4.1644,-4.1644,-4.1644,-4.1644,-4.161,-4.1305,-4.1644,-4.2286,-4.2286,-4.2489,-4.2692,-4.2388,-4.2692,-4.3132,-4.2828,-4.2929,-4.3335,-4.4079,-4.4959,-4.5771,-4.6041,-4.6447,-4.6853,-4.7158,-4.7259,-4.7327,-4.7597,-4.7225,-4.6786,-4.6786,-4.7022,-4.7259,-4.7259,-4.7259,-4.7259,-4.7259,-4.665,-4.6143,-4.6143,-4.5737,-4.5393,-4.506,-4.5026,-4.4925,-4.4649,-4.4615,-4.4615,-4.4615,-4.4615,-4.4615,-4.4615,-4.4615,-4.4615,-4.4615,-4.4147,-4.3876,-4.3876,-4.3132,-4.2895,-4.3227,-4.2455,-4.2286,-4.276,-4.3894,-4.4482,-4.4474,-4.4489,-4.4614,-4.4798,-4.4026,-4.3991,-4.4481,-4.4481,-4.4657,-4.4986,-4.5392,-4.5366,-4.5115,-4.5566,-4.5293,-4.4707,-5.1683,-5.1977,-5.2234,-5.2968,-5.313,-5.3203,-5.3203,-5.3203,-5.3203,-5.3203,-5.3203,-5.2637,-5.1059,-5.0912,-5.0251,-4.8673,-4.8526,-4.8453,-4.8306,-4.8379,-4.8379,-4.8306,-4.7736,-4.7088,-4.6413,-4.6342,-4.574,-4.4615,-4.4615,-4.3904,-4.2489,-4.2422,-4.2083,-4.1542,-4.2117,-4.2388,-4.2388,-4.2388,-4.2388,-4.232,-4.1677,-4.1847,-4.2489,-4.2489,-4.2929,-4.3436,-4.2828,-4.3464,-4.4513,-4.3775,-4.4045,-4.4818,-4.55,-4.5805,-4.6041,-4.6684,-4.6921,-4.7124,-4.7834,-4.7973,-4.8173,-4.8849,-4.8003,-4.6989,-4.6989,-4.753,-4.7973,-4.7973,-4.7973,-4.7973,-4.7973,-4.7394,-4.6887,-4.6887,-4.6819,-4.6549,-4.5906,-4.5737,-4.5466,-4.4784,-4.4649,-4.4615,-4.4615,-4.4682,-4.475,-4.4784,-4.4818,-4.4784,-4.4716,-4.4716,-4.4682,-4.4615,-4.3876,-4.3876,-4.4615,-4.3876,-4.3538,-4.3511,-4.4248,-4.4615,-4.4581,-4.3842,-4.3829,-4.4276,-4.3611,-4.4018,-4.5141,-4.5141,-4.5564,-4.6222,-4.6305,-4.587,-4.527,-4.5496,-4.5016,-4.4248,-5.1683,-5.1977,-5.205,-5.2234,-5.2784,-5.3203,-5.3203,-5.3203,-5.3203,-5.3203,-5.3203,-5.2821,-5.183,-5.172,-5.1353,-5.0325,-5.0251,-4.9701,-4.8379,-4.893,-4.9003,-4.8343,-4.7736,-4.7088,-4.6413,-4.594,-4.5346,-4.4615,-4.4615,-4.4445,-4.4107,-4.347,-4.3403,-4.3842,-4.3369,-4.3139,-4.3139,-4.3139,-4.3139,-4.3166,-4.2997,-4.3403,-4.4107,-4.4107,-4.4209,-4.4384,-4.4823,-4.479,-4.4581,-4.4412,-4.4823,-4.55,-4.5669,-4.6515,-4.7432,-4.7631,-4.8071,-4.8545,-4.8714,-4.8781,-4.8815,-4.8951,-4.8748,-4.8511,-4.8511,-4.8646,-4.8781,-4.8781,-4.8781,-4.8781,-4.8781,-4.8173,-4.7665,-4.7665,-4.7192,-4.6718,-4.6583,-4.6075,-4.5635,-4.5466,-4.4925,-4.4615,-4.4615,-4.5128,-4.5703,-4.6278,-4.6312,-4.6075,-4.55,-4.5466,-4.5196,-4.4615,-4.4418,-4.4445,-4.4615,-4.4445,-4.4316,-4.4316,-4.4513,-4.4615,-4.4615,-4.4445,-4.44,-4.4504,-4.4395,-4.4477,-4.4714,-4.4714,-4.4817,-4.5035,-4.5494,-4.5594,-4.5506,-4.6017,-4.5779,-4.5186,-5.2344,-5.2564,-5.2564,-5.2564,-5.2931,-5.3203,-5.3203,-5.3203,-5.3203,-5.3203,-5.3203,-5.2894,-5.2087,-5.1977,-5.1683,-5.0875,-5.0802,-5.0277,-4.904,-4.9404,-4.9132,-4.802,-4.77,-4.7047,-4.5965,-4.5718,-4.5282,-4.4615,-4.4615,-4.4412,-4.4012,-4.3606,-4.3639,-4.4012,-4.3606,-4.3612,-4.3944,-4.3572,-4.3639,-4.3944,-4.3544,-4.3876,-4.4649,-4.4993,-4.5128,-4.5196,-4.5974,-4.5974,-4.5664,-4.5664,-4.5906,-4.6278,-4.665,-4.7293,-4.7973,-4.8342,-4.8714,-4.9018,-4.9018,-4.9018,-4.9018,-4.9018,-4.9018,-4.9018,-4.9018,-4.9018,-4.9018,-4.9018,-4.9018,-4.9018,-4.9018,-4.868,-4.8443,-4.8443,-4.8105,-4.7733,-4.7361,-4.6989,-4.6616,-4.6278,-4.5872,-4.5664,-4.5664,-4.6007,-4.638,-4.6752,-4.6786,-4.6616,-4.6244,-4.5906,-4.5534,-4.5128,-4.4784,-4.4615,-4.4615,-4.4615,-4.4615,-4.4615,-4.4615,-4.4615,-4.4615,-4.4615,-4.4615,-4.4615,-4.4615,-4.4615,-4.4615,-4.4615,-4.4615,-4.4643,-4.4961,-4.5062,-4.5115,-4.5425,-4.552,-4.5494,-5.2821,-5.3004,-5.3041,-5.3167,-5.3203,-5.3203,-5.3203,-5.3203,-5.3203,-5.3203,-5.3203,-5.2968,-5.227,-5.2077,-5.1642,-5.0733,-5.0769,-5.0482,-4.9608,-4.967,-4.9173,-4.784,-4.7718,-4.7138,-4.5884,-4.5766,-4.5331,-4.4615,-4.4615,-4.4248,-4.3606,-4.3606,-4.3606,-4.3606,-4.3606,-4.3978,-4.4581,-4.3876,-4.4045,-4.475,-4.4079,-4.4282,-4.5055,-4.5669,-4.5906,-4.5974,-4.6718,-4.6989,-4.6955,-4.6819,-4.6887,-4.709,-4.7733,-4.7973,-4.821,-4.8815,-4.9018,-4.9018,-4.9018,-4.9018,-4.9018,-4.9018,-4.9018,-4.9052,-4.9154,-4.9086,-4.9018,-4.9018,-4.9018,-4.9018,-4.9018,-4.9018,-4.9018,-4.9018,-4.9018,-4.8781,-4.8142,-4.7973,-4.7669,-4.7056,-4.6887,-4.6853,-4.6989,-4.6989,-4.7022,-4.7158,-4.7158,-4.7124,-4.6989,-4.6413,-4.6041,-4.5906,-4.5297,-4.4987,-4.4987,-4.4987,-4.4987,-4.4987,-4.4987,-4.4919,-4.4784,-4.4682,-4.4682,-4.4784,-4.4649,-4.4615,-4.4615,-4.4615,-4.4615,-4.4615,-4.4615,-4.4615,-4.4615,-4.4615,-4.4906,-4.5346,-5.1867,-5.216,-5.238,-5.3078,-5.3203,-5.3203,-5.3203,-5.3203,-5.3203,-5.3203,-5.3203,-5.3188,-5.3078,-5.2476,-5.1549,-5.0122,-5.0667,-5.0403,-4.893,-4.9497,-4.9508,-4.8569,-4.7998,-4.7622,-4.7415,-4.6277,-4.5331,-4.4615,-4.4615,-4.4547,-4.4445,-4.4445,-4.4445,-4.4445,-4.4445,-4.4513,-4.4615,-4.4479,-4.4857,-4.5534,-4.5432,-4.5838,-4.6515,-4.6616,-4.665,-4.6752,-4.7496,-4.7736,-4.7665,-4.7022,-4.7225,-4.777,-4.7872,-4.8342,-4.8883,-4.8984,-4.9018,-4.9018,-4.9018,-4.9018,-4.9018,-4.9018,-4.9018,-4.9187,-4.9796,-4.9458,-4.9018,-4.9018,-4.9018,-4.9018,-4.9018,-4.9018,-4.9018,-4.9018,-4.9018,-4.8984,-4.8883,-4.8308,-4.7838,-4.7736,-4.7192,-4.7056,-4.7669,-4.7736,-4.8037,-4.8646,-4.8714,-4.8409,-4.78,-4.7665,-4.7327,-4.665,-4.6549,-4.6481,-4.6481,-4.6481,-4.6481,-4.6481,-4.6481,-4.6177,-4.5534,-4.4891,-4.4925,-4.5534,-4.4857,-4.4615,-4.4615,-4.4615,-4.4615,-4.4615,-4.4615,-4.4615,-4.4615,-4.4615,-4.4637,-4.472,-5.2454,-5.2674,-5.2784,-5.3151,-5.3203,-5.3203,-5.3203,-5.3203,-5.3203,-5.3203,-5.3203,-5.306,-5.2621,-5.197,-5.1276,-5.0626,-5.0909,-5.062,-4.9501,-4.9781,-4.945,-4.8307,-4.8346,-4.8036,-4.7244,-4.7,-4.6583,-4.5805,-4.5021,-4.4615,-4.4615,-4.4615,-4.4615,-4.4615,-4.4615,-4.4615,-4.4649,-4.5026,-4.5399,-4.5737,-4.6143,-4.6515,-4.6819,-4.7259,-4.7428,-4.753,-4.8274,-4.8511,-4.8477,-4.8139,-4.824,-4.8511,-4.8511,-4.8748,-4.9018,-4.9018,-4.9018,-4.9018,-4.9018,-4.9018,-4.9086,-4.9492,-4.9593,-4.9796,-5.0541,-5.0473,-5.0135,-4.9695,-4.9593,-4.9492,-4.9086,-4.9018,-4.9018,-4.9018,-4.9018,-4.9018,-4.9018,-4.8714,-4.8511,-4.8511,-4.824,-4.8173,-4.8477,-4.8511,-4.8646,-4.8984,-4.9018,-4.8849,-4.8545,-4.8108,-4.7736,-4.7428,-4.7022,-4.6786,-4.6786,-4.6786,-4.6786,-4.6786,-4.6786,-4.6616,-4.6312,-4.5974,-4.5771,-4.5703,-4.5365,-4.4959,-4.4615,-4.4615,-4.4615,-4.4615,-4.4615,-4.4615,-4.4615,-4.4615,-4.4615,-4.4615]},{"header":{"parameterUnit":"m.s-1","parameterCategory":1,"la1":30.6,"la2":28.766,"lo1":-90.7593,"lo2":-88.6598,"dy":0.0162,"dx":0.0183,"nx":116,"ny":114,"refTime":"2024-04-12T06:00:00:Z","depth":0,"parameterNumber":3,"parameterNumberName":"V-component_of_WINDS"},"data":[0.0,0.0,0.0,0.0,0.0,0.0,0.0,0.0,0.0,0.0,0.0,0.0,0.0,0.0,0.0,0.0,0.0,0.0,0.0,0.0,0.0,0.0,0.0,0.0,0.0,0.0,0.0,0.0,0.0,0.0,0.0,0.0,0.0,0.0,0.0,0.0,0.0,0.0,0.0,0.0,0.0,0.0,0.0,0.0,0.0,0.0,0.0,0.0,0.0,0.0,0.0,0.0,0.0,0.0,0.0,0.0,0.0,0.0,0.0,0.0,0.0,0.0,0.0,0.0,0.0,0.0,0.0,0.0,0.0,0.0,0.0,0.0,0.0,0.0,0.0,0.0,0.0,0.0,0.0,0.0,0.0,0.0,0.0,0.0,0.0,0.0,0.0,0.0,0.0,0.0,0.0,0.0,0.0,0.0,0.0,0.0,0.0,0.0,0.0,0.0,0.0,0.0,0.0,0.0,0.0,0.0,0.0,0.0,0.0,0.0,0.0,0.0,0.0,0.0,0.0,0.0,0.0,0.0,0.0,0.0,0.0,0.0,0.0,0.0,0.0,0.0,0.0,0.0,0.0,0.0,0.0,0.0,0.0,0.0,0.0,0.0,0.0,0.0,0.0,0.0,0.0,0.0,0.0,0.0,0.0,0.0,0.0,0.0,0.0,0.0,0.0,0.0,0.0,0.0,0.0,0.0,0.0,0.0,0.0,0.0,0.0,0.0,0.0,0.0,0.0,0.0,0.0,0.0,0.0,0.0,0.0,0.0,0.0,0.0,0.0,0.0,0.0,0.0,0.0,0.0,0.0,0.0,0.0,0.0,0.0,0.0,0.0,0.0,0.0,0.0,0.0,0.0,0.0,0.0,0.0,0.0,0.0,0.0,0.0,0.0,0.0,0.0,0.0,0.0,0.0,0.0,0.0,0.0,0.0,0.0,0.0,0.0,0.0,0.0,0.0,0.0,0.0,0.0,0.0,0.0,0.0,0.0,0.0,0.0,0.0,0.0,0.0,0.0,0.0,0.0,0.0,0.0,0.0,0.0,0.0,0.0,0.0,0.0,0.0,0.0,0.0,0.0,0.0,0.0,0.0,0.0,0.0,0.0,0.0,0.0,0.0,0.0,0.0,0.0,0.0,0.0,0.0,0.0,0.0,0.0,0.0,0.0,0.0,0.0,0.0,0.0,0.0,0.0,0.0,0.0,0.0,0.0,0.0,0.0,0.0,0.0,0.0,0.0,0.0,0.0,0.0,0.0,0.0,0.0,0.0,0.0,0.0,0.0,0.0,0.0,0.0,0.0,0.0,0.0,0.0,0.0,0.0,0.0,0.0,0.0,0.0,0.0,0.0,0.0,0.0,0.0,0.0,0.0,0.0,0.0,0.0,0.0,0.0,0.0,0.0,0.0,0.0,0.0,0.0,0.0,0.0,0.0,0.0,0.0,0.0,0.0,0.0,0.0,0.0,0.0,0.0,0.0,0.0,0.0,0.0,0.0,0.0,0.0,0.0,0.0,0.0,0.0,0.0,0.0,0.0,0.0,0.0,0.0,0.0,0.0,0.0,0.0,0.0,0.0,0.0,0.0,0.0,0.0,0.0,0.0,0.0,0.0,0.0,0.0,0.0,0.0,0.0,0.0,0.0,0.0,0.0,0.0,0.0,0.0,0.0,0.0,0.0,0.0,0.0,0.0,0.0,0.0,0.0,0.0,0.0,0.0,0.0,0.0,0.0,0.0,0.0,0.0,0.0,0.0,0.0,0.0,0.0,0.0,0.0,0.0,0.0,0.0,0.0,0.0,0.0,0.0,0.0,0.0,0.0,0.0,0.0,0.0,0.0,0.0,0.0,0.0,0.0,0.0,0.0,0.0,0.0,0.0,0.0,0.0,0.0,0.0,0.0,0.0,0.0,0.0,0.0,0.0,0.0,0.0,0.0,0.0,0.0,0.0,0.0,0.0,0.0,0.0,0.0,0.0,0.0,0.0,0.0,0.0,0.0,0.0,0.0,0.0,0.0,0.0,0.0,0.0,0.0,0.0,0.0,0.0,0.0,0.0,0.0,0.0,0.0,0.0,0.0,0.0,0.0,0.0,0.0,0.0,0.0,0.0,0.0,0.0,0.0,0.0,0.0,0.0,0.0,0.0,0.0,0.0,0.0,0.0,0.0,0.0,0.0,0.0,0.0,0.0,0.0,0.0,0.0,0.0,0.0,0.0,0.0,0.0,0.0,0.0,0.0,0.0,0.0,0.0,0.0,0.0,0.0,0.0,0.0,0.0,0.0,0.0,0.0,0.0,0.0,0.0,0.0,0.0,0.0,0.0,0.0,0.0,0.0,0.0,0.0,0.0,0.0,0.0,0.0,0.0,0.0,0.0,0.0,0.0,0.0,0.0,0.0,0.0,0.0,0.0,0.0,0.0,0.0,0.0,0.0,0.0,0.0,0.0,0.0,0.0,0.0,0.0,0.0,0.0,0.0,0.0,0.0,0.0,0.0,0.0,0.0,0.0,0.0,0.0,0.0,0.0,0.0,0.0,0.0,0.0,0.0,0.0,0.0,0.0,0.0,0.0,0.0,0.0,0.0,0.0,0.0,0.0,0.0,0.0,0.0,0.0,0.0,0.0,0.0,0.0,0.0,0.0,0.0,0.0,0.0,0.0,0.0,0.0,0.0,0.0,0.0,0.0,0.0,0.0,0.0,0.0,0.0,0.0,0.0,0.0,0.0,0.0,0.0,0.0,0.0,0.0,0.0,0.0,0.0,0.0,0.0,0.0,0.0,0.0,0.0,0.0,0.0,0.0,0.0,0.0,0.0,0.0,0.0,0.0,0.0,0.0,0.0,0.0,0.0,0.0,0.0,0.0,0.0,0.0,0.0,0.0,0.0,0.0,0.0,0.0,0.0,0.0,0.0,0.0,0.0,0.0,0.0,0.0,0.0,0.0,0.0,0.0,0.0,0.0,0.0,0.0,0.0,0.0,0.0,0.0,0.0,0.0,0.0,0.0,0.0,0.0,0.0,0.0,0.0,0.0,0.0,0.0,0.0,0.0,0.0,0.0,0.0,0.0,0.0,0.0,0.0,0.0,0.0,0.0,0.0,0.0,0.0,0.0,0.0,0.0,0.0,0.0,0.0,0.0,0.0,0.0,0.0,0.0,0.0,0.0,0.0,0.0,0.0,0.0,0.0,0.0,0.0,0.0,0.0,0.0,0.0,0.0,0.0,0.0,0.0,0.0,0.0,0.0,0.0,0.0,0.0,0.0,0.0,0.0,0.0,0.0,0.0,0.0,0.0,0.0,0.0,0.0,0.0,0.0,0.0,0.0,0.0,0.0,0.0,0.0,0.0,0.0,0.0,0.0,0.0,0.0,0.0,0.0,0.0,0.0,0.0,0.0,0.0,0.0,0.0,0.0,0.0,0.0,0.0,0.0,0.0,0.0,0.0,0.0,0.0,0.0,0.0,0.0,0.0,0.0,0.0,0.0,0.0,0.0,0.0,0.0,0.0,0.0,0.0,0.0,0.0,0.0,0.0,0.0,0.0,0.0,0.0,0.0,0.0,0.0,0.0,0.0,0.0,0.0,0.0,0.0,0.0,0.0,0.0,0.0,0.0,0.0,0.0,0.0,0.0,0.0,0.0,0.0,0.0,0.0,0.0,0.0,0.0,0.0,0.0,0.0,0.0,0.0,0.0,0.0,0.0,0.0,0.0,0.0,0.0,0.0,0.0,0.0,0.0,0.0,0.0,0.0,0.0,0.0,0.0,0.0,0.0,0.0,0.0,0.0,0.0,0.0,0.0,0.0,0.0,0.0,0.0,0.0,0.0,0.0,0.0,0.0,0.0,0.0,0.0,0.0,0.0,0.0,0.0,0.0,0.0,0.0,0.0,0.0,0.0,0.0,0.0,0.0,0.0,0.0,0.0,0.0,0.0,0.0,0.0,0.0,0.0,0.0,0.0,0.0,0.0,0.0,0.0,0.0,0.0,0.0,0.0,0.0,0.0,0.0,0.0,0.0,0.0,0.0,0.0,0.0,0.0,0.0,0.0,0.0,0.0,0.0,0.0,0.0,0.0,0.0,0.0,0.0,0.0,0.0,0.0,0.0,0.0,0.0,0.0,0.0,0.0,0.0,0.0,0.0,0.0,0.0,0.0,0.0,0.0,0.0,0.0,0.0,0.0,0.0,0.0,0.0,0.0,0.0,0.0,0.0,0.0,0.0,0.0,0.0,0.0,0.0,0.0,0.0,0.0,0.0,0.0,0.0,0.0,0.0,0.0,0.0,0.0,0.0,0.0,0.0,0.0,0.0,0.0,0.0,0.0,0.0,0.0,0.0,0.0,0.0,0.0,0.0,0.0,0.0,0.0,0.0,0.0,0.0,0.0,0.0,0.0,0.0,0.0,0.0,0.0,0.0,0.0,0.0,0.0,0.0,0.0,0.0,0.0,0.0,0.0,0.0,0.0,0.0,0.0,0.0,0.0,0.0,0.0,0.0,0.0,0.0,0.0,0.0,0.0,0.0,0.0,0.0,0.0,0.0,0.0,0.0,0.0,0.0,0.0,0.0,0.0,0.0,0.0,0.0,0.0,0.0,0.0,0.0,0.0,0.0,0.0,0.0,0.0,0.0,0.0,0.0,0.0,0.0,0.0,0.0,0.0,0.0,0.0,0.0,0.0,0.0,0.0,0.0,0.0,0.0,0.0,0.0,0.0,0.0,0.0,0.0,0.0,0.0,0.0,0.0,0.0,0.0,0.0,0.0,0.0,0.0,0.0,0.0,0.0,0.0,0.0,0.0,0.0,0.0,0.0,0.0,0.0,0.0,0.0,0.0,0.0,0.0,0.0,0.0,0.0,0.0,0.0,0.0,0.0,0.0,0.0,0.0,0.0,0.0,0.0,0.0,0.0,0.0,0.0,0.0,0.0,0.0,0.0,0.0,0.0,0.0,0.0,0.0,0.0,0.0,0.0,0.0,0.0,0.0,0.0,0.0,0.0,0.0,0.0,0.0,0.0,0.0,0.0,0.0,0.0,0.0,0.0,0.0,0.0,0.0,0.0,0.0,0.0,0.0,0.0,0.0,0.0,0.0,0.0,0.0,0.0,0.0,0.0,0.0,0.0,0.0,0.0,0.0,0.0,0.0,0.0,0.0,0.0,0.0,0.0,0.0,0.0,0.0,0.0,0.0,0.0,0.0,0.0,0.0,0.0,0.0,0.0,0.0,0.0,0.0,0.0,0.0,0.0,0.0,0.0,0.0,0.0,0.0,0.0,0.0,0.0,0.0,0.0,0.0,0.0,0.0,0.0,0.0,0.0,0.0,0.0,0.0,0.0,0.0,0.0,0.0,0.0,0.0,0.0,0.0,0.0,0.0,0.0,0.0,0.0,0.0,0.0,0.0,0.0,0.0,0.0,0.0,0.0,0.0,0.0,0.0,0.0,0.0,0.0,0.0,0.0,0.0,0.0,0.0,0.0,0.0,0.0,0.0,0.0,0.0,0.0,0.0,0.0,0.0,0.0,0.0,0.0,0.0,0.0,0.0,0.0,0.0,0.0,0.0,0.0,0.0,0.0,0.0,0.0,0.0,0.0,0.0,0.0,0.0,0.0,0.0,0.0,0.0,0.0,0.0,0.0,0.0,0.0,0.0,0.0,0.0,0.0,0.0,0.0,0.0,0.0,0.0,0.0,0.0,0.0,0.0,0.0,0.0,0.0,0.0,0.0,0.0,0.0,0.0,0.0,0.0,0.0,0.0,0.0,0.0,0.0,0.0,0.0,0.0,0.0,0.0,0.0,0.0,0.0,0.0,0.0,0.0,0.0,0.0,0.0,0.0,0.0,0.0,0.0,0.0,0.0,0.0,0.0,0.0,0.0,0.0,0.0,0.0,0.0,0.0,0.0,0.0,0.0,0.0,0.0,0.0,0.0,0.0,0.0,0.0,0.0,0.0,0.0,0.0,0.0,0.0,0.0,0.0,0.0,0.0,0.0,0.0,0.0,0.0,0.0,0.0,0.0,0.0,0.0,0.0,0.0,0.0,0.0,0.0,0.0,0.0,0.0,0.0,0.0,0.0,0.0,0.0,0.0,0.0,0.0,0.0,0.0,0.0,0.0,0.0,0.0,0.0,0.8079,0.0,0.0,0.0,0.0,0.0,0.0,0.0,0.0,0.0,0.0,0.0,0.0,0.0,0.0,0.0,0.0,0.0,0.0,0.0,0.0,0.0,0.0,0.0,0.0,0.8885,0.8885,0.8885,0.8885,0.8885,0.8885,0.0,0.0,0.0,0.0,0.0,0.8885,0.8804,0.8893,0.9042,0.8893,0.8893,0.9042,0.896,0.8764,0.8472,0.0,0.0,0.0,0.0,0.0,0.0,0.0,0.0,0.0,0.0,0.0,0.0,0.0,0.0,0.0,0.0,0.0,0.0,0.0,0.0,0.0,0.0,0.0,0.0,0.0,0.0,0.0,0.0,0.0,0.0,0.0,0.0,0.0,0.0,0.0,0.0,0.0,0.0,0.0,0.0,0.0,0.0,0.0,0.0,0.0,0.0,0.0,0.0,0.0,0.0,0.0,0.0,0.0,0.0,0.0,0.0,0.0,0.0,0.0,0.0,0.0,0.0,0.0,0.0,0.0,0.0,0.0,0.0,0.0,0.0,0.0,0.8147,0.0,0.0,0.0,0.0,0.0,0.0,0.0,0.0,0.0,0.0,0.0,0.0,0.0,0.0,0.0,0.0,0.0,0.0,0.0,0.0,0.0,0.8885,0.8885,0.8885,0.8892,0.8974,0.8898,0.8892,0.8974,0.8898,0.0,0.0,0.8885,0.8885,0.8885,0.8858,0.8981,0.9207,0.9137,0.9218,0.9446,0.9446,0.9273,0.9035,0.8373,0.0,0.0,0.0,0.0,0.0,0.0,0.0,0.0,0.0,0.0,0.0,0.0,0.0,0.0,0.0,0.0,0.0,0.0,0.0,0.0,0.0,0.0,0.0,0.0,0.0,0.0,0.0,0.0,0.0,0.0,0.0,0.0,0.0,0.0,0.0,0.0,0.0,0.0,0.0,0.0,0.0,0.0,0.0,0.0,0.0,0.0,0.0,0.0,0.0,0.0,0.0,0.0,0.0,0.0,0.0,0.0,0.0,0.0,0.0,0.0,0.0,0.0,0.0,0.9517,0.9571,0.9496,0.9469,0.9469,0.9462,0.8791,0.8459,0.8364,0.8031,0.0,0.0,0.0,0.0,0.0,0.0,0.0,0.0,0.0,0.0,0.0,0.0,0.0,0.0,0.0,0.0,0.0,0.0,0.0,0.8885,0.8885,0.8885,0.8988,0.9173,0.9008,0.8994,0.9173,0.9008,0.8885,0.8885,0.8885,0.8885,0.8885,0.8811,0.8879,0.9207,0.9659,1.0046,1.0317,1.0317,1.0365,1.0399,0.9171,0.0,0.0,0.0,0.0,0.0,0.0,0.0,0.0,0.0,0.0,0.0,0.0,0.0,0.0,0.0,0.0,0.0,0.0,0.0,0.0,0.0,0.0,0.0,0.0,0.0,0.0,0.0,0.0,0.0,0.0,0.0,0.0,0.0,0.0,0.0,0.0,0.0,0.0,0.0,0.0,0.0,0.0,0.0,1.1989,1.0348,0.0,0.0,0.0,0.0,0.0,0.0,0.0,0.0,0.0,0.0,0.0,0.0,0.0,0.9517,0.9646,1.0222,1.0317,0.9876,1.0351,1.0337,0.9896,0.9822,0.9836,0.9883,0.9585,0.0,0.8818,0.8384,0.0,0.0,0.0,0.0,0.0,0.0,0.0,0.0,0.0,0.0,0.0,0.0,0.0,0.0,0.0,0.0,0.0,0.0,0.0,0.0,0.0,0.9211,0.934,0.9401,0.9815,0.9842,0.9313,0.9537,0.9469,0.8905,0.8885,0.8885,0.8885,0.8954,0.9248,0.9719,1.0337,1.0785,1.0995,1.0995,1.1118,1.1301,1.0378,0.9795,0.9476,0.9036,0.0,0.0,0.0,0.0,0.0,0.0,0.0,0.0,0.0,0.0,0.0,0.0,0.0,0.0,0.0,0.0,0.0,0.0,0.0,0.0,0.0,0.0,0.0,0.0,0.0,0.0,0.0,0.0,0.0,0.0,0.0,0.0,0.0,0.0,0.0,0.0,0.0,0.0,0.0,1.5645,1.4613,1.2715,1.186,1.0871,0.0,0.0,0.0,0.0,0.0,0.0,0.0,0.0,0.0,0.9498,0.9998,1.0263,1.0324,1.0839,1.1002,1.0806,1.1002,1.0995,1.0799,1.0561,1.0429,1.0476,1.0324,1.0025,0.9639,0.8933,0.8418,0.8031,0.0,0.0,0.0,0.0,0.74,0.74,0.0,0.0,0.0,0.0,0.0,0.0,0.0,0.0,0.0,0.0,0.0,0.0,0.9293,0.9598,0.9856,1.0046,1.0575,1.0575,0.9829,0.9951,0.9734,0.9022,0.8905,0.8885,0.8885,0.9266,0.9794,1.0401,1.1118,1.1511,1.1735,1.1775,1.1911,1.2101,1.1548,1.0928,1.0086,0.9551,0.9069,0.0,0.0,0.0,0.0,0.0,0.0,0.0,0.0,0.0,0.0,0.0,0.0,0.0,0.0,0.0,0.0,0.0,0.0,0.0,0.0,0.0,0.0,0.0,0.0,0.0,0.0,0.0,0.0,0.0,0.0,0.0,0.0,0.0,0.0,0.0,0.0,0.0,0.0,1.6898,1.6449,1.4159,1.373,1.2567,0.0,0.0,0.0,0.0,0.0,0.0,0.9639,0.991,1.0141,1.0331,1.0772,1.1023,1.1063,1.1436,1.1599,1.1565,1.1525,1.1484,1.1443,1.1179,1.1043,1.0995,1.0846,1.0609,1.027,0.9449,0.8845,0.8404,0.8065,0.7841,0.7706,0.7665,0.7651,0.7651,0.0,0.0,0.0,0.0,0.0,0.0,0.0,0.0,0.0,0.0,0.0,0.9101,0.9727,1.0059,1.0534,1.124,1.0948,1.0772,1.0799,0.9964,0.934,0.9207,0.9015,0.8885,0.8885,0.9781,1.0514,1.1104,1.1794,1.2237,1.2664,1.2813,1.2888,1.2895,1.2718,1.2223,1.1443,1.0276,0.9768,0.9666,0.0,0.0,0.0,0.0,0.0,0.0,0.0,0.0,0.0,0.0,0.0,0.0,0.0,0.0,0.0,0.0,0.0,0.0,0.0,0.0,0.0,0.0,0.0,0.0,0.0,0.0,0.0,0.0,0.0,0.0,0.0,0.0,0.0,0.0,0.0,0.0,0.0,0.0,0.0,1.2967,1.3058,0.0,0.0,0.0,0.0,0.9734,0.9761,0.9964,1.0412,1.0588,1.0806,1.1097,1.1538,1.1843,1.1993,1.2162,1.2176,1.2026,1.1877,1.1735,1.1599,1.1443,1.1287,1.1145,1.1002,1.0765,1.0432,0.9829,0.9313,0.8804,0.8418,0.8153,0.7948,0.7855,0.7801,0.778,0.0,0.0,0.0,0.0,0.0,0.4041,0.4171,0.6592,0.8397,0.8547,0.8947,0.9449,1.0053,1.0731,1.1369,1.1925,1.2088,1.1898,1.1274,1.0609,1.0086,0.9747,0.9313,0.9347,0.9924,1.0446,1.105,1.1814,1.2345,1.2766,1.3017,1.3071,1.3152,1.3234,1.299,1.2732,1.2413,1.1301,1.0439,0.9768,0.9157,0.8676,0.0,0.0,0.0,0.0,0.0,0.0,0.0,0.0,0.0,0.0,0.0,0.0,0.0,0.0,0.0,0.0,0.0,0.0,0.0,0.0,0.0,0.0,0.0,0.0,0.0,0.0,0.0,0.0,0.0,0.0,0.0,0.0,0.0,0.0,0.0,0.0,0.0,1.7931,1.6796,0.0,1.372,1.1441,1.0222,1.0456,1.0629,1.0921,1.147,1.1735,1.1959,1.2162,1.2325,1.2433,1.2488,1.2447,1.2352,1.221,1.2054,1.185,1.1613,1.1362,1.1165,1.1016,1.0867,1.0738,1.0609,1.0209,0.9774,0.9327,0.8879,0.8608,0.8452,0.8303,0.8187,0.8099,0.0,0.0,0.0,0.0,0.0,0.4031,0.4133,0.6481,0.8374,0.8465,0.9049,0.9747,1.0493,1.1375,1.2142,1.2691,1.2827,1.2542,1.1748,1.0989,1.0371,0.9862,0.9517,0.968,1.0473,1.0989,1.1565,1.221,1.2759,1.3105,1.3247,1.3247,1.3302,1.339,1.32,1.3078,1.2983,1.2237,1.128,1.0229,0.9734,0.932,0.894,0.0,0.0,0.0,0.0,0.0,0.0,0.0,0.0,0.0,0.0,0.0,0.0,0.0,0.0,0.0,0.0,0.0,0.0,0.0,0.0,0.0,0.0,0.0,0.0,0.0,0.0,0.0,0.0,0.0,0.0,0.0,0.0,0.0,0.0,1.9666,2.0773,2.0383,1.9828,1.8812,1.7177,1.4181,1.2442,1.2656,1.2065,1.1891,1.2415,1.2549,1.2705,1.2807,1.2759,1.2732,1.2732,1.2528,1.2359,1.221,1.206,1.183,1.1538,1.1335,1.1131,1.0873,1.0839,1.0765,1.0697,1.0399,1.0107,0.9788,0.934,0.9042,0.8838,0.8689,0.8513,0.833,0.0,0.0,0.0,0.0,0.0,0.4014,0.4014,0.6428,0.8316,0.8459,0.9144,1.0019,1.1056,1.1979,1.2827,1.358,1.3085,1.2603,1.2311,1.1023,1.008,0.9646,0.9646,0.9876,1.0462,1.1332,1.1999,1.2444,1.2969,1.3261,1.3403,1.3403,1.3403,1.3403,1.3403,1.3315,1.3173,1.303,1.2298,1.1165,1.0555,1.0209,0.9889,0.0,0.0,0.0,0.0,0.0,0.0,0.0,0.0,0.0,0.0,0.0,0.0,0.0,0.0,0.0,0.0,0.0,0.0,0.0,0.0,0.0,0.0,0.0,0.0,0.0,0.0,0.0,0.0,0.0,0.0,0.0,0.0,0.0,1.8544,2.0828,2.179,2.001,2.1619,2.1767,1.9083,1.7067,1.5975,1.6078,1.3998,1.282,1.2976,1.2976,1.2976,1.305,1.282,1.2732,1.2732,1.244,1.221,1.2135,1.1904,1.1674,1.1382,1.1382,1.1219,1.0873,1.0867,1.0786,1.069,1.0392,1.0276,1.0229,0.9774,0.9422,0.92,0.8994,0.8743,0.8438,0.0,0.0,0.0,0.0,0.2213,0.4014,0.4014,0.6303,0.8153,0.8309,0.9323,1.0354,1.1226,1.2325,1.3247,1.3892,1.32,1.2603,1.2311,1.0921,0.9997,0.9869,1.0446,1.0253,0.9213,1.1245,1.1753,1.0545,1.2497,1.3464,1.3403,1.3512,1.3505,1.3403,1.3403,1.3376,1.3336,1.3295,1.2969,1.2372,1.1335,1.0697,1.029,0.0,0.0,0.0,0.0,0.0,0.0,0.0,0.0,0.0,0.0,0.0,0.0,0.0,0.0,0.0,0.0,0.0,0.0,0.0,0.0,0.0,0.0,0.0,0.0,0.0,0.0,0.0,0.0,0.0,0.0,0.0,1.9011,2.0134,2.0641,2.2258,2.3665,2.4468,2.2542,2.0976,2.0338,1.6627,1.431,1.4271,1.3603,1.3281,1.3437,1.3342,1.3227,1.3119,1.2976,1.284,1.2732,1.244,1.221,1.2135,1.1904,1.1619,1.1226,1.1226,1.1063,1.0778,1.0663,1.0595,1.0534,1.0236,1.0051,1.0066,0.9618,0.9395,0.9286,0.9035,0.8743,0.8459,0.0,0.0,0.0,0.0757,0.2613,0.4168,0.4768,0.6625,0.8089,0.8418,0.9442,1.0466,1.1301,1.2345,1.3125,1.3478,1.2861,1.2244,1.1762,1.0738,1.0229,1.0354,0.0,1.0595,0.8787,1.1469,1.1894,0.9848,1.2353,1.3614,1.3587,1.3614,1.358,1.3498,1.3498,1.3458,1.3403,1.3403,1.3302,1.3071,1.225,1.1681,1.124,1.0399,1.0039,0.9992,0.9476,0.9838,1.0504,1.0097,0.0,0.0,0.0,0.0,0.0,0.0,0.0,0.0,0.0,0.0,0.0,0.0,0.0,0.0,0.0,0.0,0.0,0.0,0.0,0.0,0.0,0.0,0.0,0.0,2.0401,2.1737,2.3263,2.4214,2.5197,2.6587,2.5001,2.3802,2.3897,2.0472,1.7806,1.6734,1.563,1.4565,1.3532,1.3451,1.3329,1.318,1.3037,1.2888,1.2732,1.2372,1.2149,1.2135,1.1775,1.1477,1.1227,1.1097,1.0941,1.0711,1.0561,1.0493,1.0466,1.0175,0.995,0.0,0.0,0.0,0.0,0.0,0.8635,0.8452,0.0,0.0,0.0,0.1762,0.3115,0.4468,0.5777,0.7135,0.8143,0.8628,0.9585,1.05,1.1212,1.2088,1.2644,1.2678,1.2257,1.1701,1.0948,1.0616,1.0616,1.1008,1.1372,1.0649,0.865,1.126,1.1652,0.9634,1.2041,1.3474,1.3838,1.3729,1.3668,1.3654,1.3634,1.3553,1.3424,1.341,1.3403,1.3376,1.3119,1.2807,1.2379,1.1287,1.1002,1.1084,1.0263,0.9903,0.9781,0.9578,0.0,0.0,0.0,0.0,0.0,0.0,0.0,0.0,0.0,0.0,0.0,0.0,0.0,0.0,0.0,0.0,0.0,0.0,0.0,0.0,0.0,0.0,0.0,0.0,2.1804,2.3113,2.5728,2.6039,2.6386,2.7255,2.7649,2.7799,2.7799,2.5689,2.3172,2.0635,1.8464,1.6121,1.352,0.0,0.0,0.0,0.0,1.2868,1.2684,1.2271,1.2054,1.2033,1.1599,1.1307,1.1158,1.1016,1.0799,1.0711,1.0541,1.0466,1.0446,1.0148,0.9862,0.9754,0.9612,0.9462,0.9266,0.871,0.8499,0.8438,0.0,0.0,0.0,0.1762,0.3115,0.4468,0.5777,0.7135,0.8103,0.8486,0.9334,1.01,1.0609,1.1463,1.2101,1.2352,1.185,1.1409,1.1138,1.1158,1.143,1.2006,1.0699,0.9102,0.7024,0.7638,0.7835,0.7503,0.9913,1.2015,1.3844,1.3939,1.3919,1.3797,1.3682,1.3614,1.3573,1.3451,1.3403,1.3397,1.3342,1.299,1.2447,1.1979,1.1613,1.1307,1.1009,1.0962,1.0968,1.0453,1.0426,1.0461,0.9912,0.0,0.0,0.0,0.0,0.0,0.0,0.0,0.0,0.0,0.0,0.0,0.0,0.0,0.0,0.0,0.0,0.0,0.0,0.0,0.0,2.1884,2.3073,2.4369,2.6066,2.6507,2.6987,2.7953,2.644,2.5385,2.5385,2.3035,2.0577,1.829,1.7408,1.5965,1.3671,1.3464,1.3275,1.301,1.2976,1.2773,1.2379,1.2169,1.1999,1.187,0.0,0.0,1.1158,1.1016,1.0799,1.0704,1.0439,1.0324,1.0297,0.9992,0.9707,0.9449,0.9357,0.915,0.8994,0.8757,0.8587,0.8459,0.0,0.0,0.0,0.2666,0.3566,0.4668,0.6681,0.7584,0.8096,0.8445,0.9069,0.9632,1.0005,1.0582,1.0968,1.105,1.0711,1.0622,1.0921,1.1294,1.1324,1.0855,1.0296,0.8395,0.4982,0.6196,0.6335,0.5278,0.879,1.1073,1.2307,1.3539,1.4034,1.3953,1.3885,1.381,1.3729,1.3654,1.362,1.3614,1.3546,1.3241,1.2807,1.2508,1.221,1.1904,1.1606,1.145,1.1321,1.0873,1.0568,1.0304,0.9856,0.9866,1.0137,0.0,0.0,0.0,0.0,0.0,0.0,0.0,0.0,0.0,0.0,0.0,0.0,0.0,0.0,1.8744,1.9626,0.0,2.1683,2.346,2.4249,2.5104,2.6426,2.6734,2.7094,2.7829,2.689,2.6205,2.6205,2.5168,2.3388,2.0752,2.0463,1.8846,1.5216,1.5028,1.4356,1.2934,1.2922,1.2779,1.24,1.2176,1.1986,1.1823,1.1457,1.1199,1.105,1.09,1.0792,1.0704,1.0412,1.0283,1.0243,0.9788,0.9469,0.9309,0.9103,0.9001,0.8865,0.8764,0.8615,0.8459,0.0,0.0,0.0,0.3516,0.4014,0.4918,0.7584,0.7988,0.8089,0.8404,0.8859,0.9164,0.9408,0.97,0.9829,0.97,0.972,1.0066,0.0,1.1457,1.1132,0.9682,0.9639,0.769,0.3534,0.4897,0.5008,0.358,0.7791,1.0092,1.0712,1.3016,1.4116,1.4116,1.4089,1.4,1.3885,1.3851,1.3738,1.379,1.3675,1.3431,1.3105,1.2834,1.2617,1.2406,1.1986,1.1606,1.1274,1.1063,1.0677,1.0243,1.0019,0.9727,0.9606,1.0233,1.0543,0.0,0.0,0.0,0.0,0.0,0.0,0.0,0.0,1.7368,1.7889,1.8731,1.9426,2.0267,2.1628,2.2191,2.3086,2.4877,2.5211,2.5598,2.66,2.6694,2.6854,2.7375,2.7549,2.7589,2.7535,2.7749,2.6734,2.3819,2.3751,2.184,1.7342,1.6781,1.5578,1.3483,1.3099,1.2759,1.242,1.2182,1.1959,1.1742,1.1348,1.109,1.0873,1.0792,1.0717,1.0704,1.0412,1.0249,1.0148,0.9605,0.9306,0.9234,0.9008,0.8885,0.8858,0.873,0.8587,0.8459,0.0,0.0,0.0,0.0,0.0,0.4918,0.7584,0.7988,0.8099,0.8275,0.8567,0.8771,0.8804,0.9076,0.9303,0.9282,0.9829,0.0,1.1463,1.2074,1.1813,1.0417,0.8481,0.6237,0.3662,0.1791,0.1703,0.358,0.6249,0.8562,1.0717,1.3116,1.4272,1.4272,1.4136,1.4061,1.4034,1.3899,1.377,1.3654,1.3634,1.337,1.2969,1.2793,1.2556,1.2271,1.1945,1.147,1.1009,1.1104,1.0758,1.0297,1.0385,1.012,0.968,0.946,0.9892,1.0389,1.0252,1.1033,1.2366,1.4248,1.502,1.5906,0.0,1.8905,1.943,2.0254,2.1109,2.1897,2.266,2.3607,2.4583,2.5344,2.5692,2.5999,2.6386,2.6213,2.6172,2.6493,2.7001,2.7215,2.6947,2.6947,2.6018,2.3784,2.334,2.2131,1.9634,1.7539,1.6229,1.5843,1.3828,1.2549,1.2115,1.2081,1.1857,1.1436,1.1253,1.109,1.0873,1.0792,1.0717,1.0704,1.0412,1.0127,0.9849,0.9517,0.9367,0.9327,0.9049,0.8885,0.8851,0.8615,0.8499,0.8438,0.0,0.0,0.0,0.0,0.0,0.4918,0.7584,0.7988,0.8015,0.8126,0.8241,0.8271,0.8271,0.8431,0.8506,0.8506,0.9273,0.0,1.1036,1.1979,1.1228,0.8424,0.7526,0.5365,0.1614,0.0538,0.0538,0.1524,0.5276,0.7595,0.8664,1.2509,1.4299,1.4299,1.4231,1.4204,1.4197,1.4136,1.4075,1.3994,1.3736,1.341,1.303,1.2528,1.1993,1.1491,1.1362,1.1043,0.0,0.0,1.0032,0.9768,0.9829,0.9652,0.9361,0.9001,0.9136,0.9331,0.9056,1.012,1.1489,1.2229,1.4223,1.6342,1.7833,1.9305,2.0681,2.1737,2.2525,2.3207,2.3794,2.4449,2.509,2.5678,2.5879,2.6077,2.6119,2.5879,2.5558,2.517,2.5331,2.5705,2.6266,2.6319,2.599,2.5028,2.3847,2.211,1.9875,1.7629,1.569,1.4238,1.3141,1.2508,1.2318,1.206,1.1837,1.164,1.1314,1.109,1.0873,1.0792,1.0629,1.046,1.0331,1.0059,0.9686,0.9564,0.9408,0.9296,0.911,0.9015,0.8858,0.8696,0.856,0.8452,0.0,0.0,0.0,0.0,0.0,0.5322,0.7633,0.7988,0.7988,0.7988,0.7988,0.7988,0.7988,0.7988,0.7988,0.7988,0.8791,0.0,0.0,1.1674,1.0583,0.6758,0.6852,0.4815,0.009,0.0,0.0,0.0,0.4116,0.6433,0.7146,1.1344,1.3673,1.4299,1.4299,1.4299,1.4299,1.4251,1.419,1.4082,1.3668,1.3247,1.2793,1.2081,1.1375,1.0698,1.0698,1.046,0.0,0.0,0.9354,0.9211,0.9293,0.9303,0.9152,0.8798,0.8621,0.8499,0.8364,0.9294,1.0383,1.0808,1.3259,1.5953,1.7476,1.9308,2.115,2.2711,2.334,2.3821,2.4409,2.469,2.5064,2.5732,2.5772,2.5745,2.5825,2.5438,2.489,2.4168,2.3861,2.4075,2.501,2.5398,2.5625,2.5705,2.4541,2.2767,2.059,1.8312,1.6027,1.3661,1.2845,1.24,1.2318,1.1952,1.1708,1.1586,1.126,1.1029,1.0813,1.0724,1.0521,1.0276,1.0236,1.0005,0.9659,0.9578,0.9415,0.9262,0.9123,0.9028,0.8858,0.8716,0.8574,0.8459,0.0,0.0,0.0,0.0,0.0,0.6381,0.7789,0.7988,0.7988,0.7988,0.7988,0.7988,0.7988,0.7988,0.7988,0.7988,0.8548,0.9334,1.0236,1.1274,1.0157,0.6433,0.6659,0.4779,0.009,0.0,0.0,0.0,0.2507,0.4829,0.7149,0.9646,1.2059,1.4299,1.4299,1.4299,1.4292,1.4143,1.3912,1.362,1.3308,1.2745,1.2108,1.1493,1.0819,1.0304,1.0304,0.0,0.0,0.0,0.8974,0.8784,0.9125,0.9214,0.9152,0.8798,0.8404,0.8069,0.8397,0.8641,0.9186,1.1045,1.2252,1.3978,1.7659,1.9076,2.034,2.2763,2.3327,2.3527,2.4102,2.4222,2.4516,2.5384,2.5291,2.5211,2.5491,2.4783,2.4128,2.3821,2.3006,2.2605,2.2995,2.3995,2.4796,2.5077,2.5295,2.4585,2.2531,2.0197,1.799,1.5974,1.3586,1.2155,1.185,1.1701,1.1409,1.0907,1.0894,1.0806,1.0724,1.0568,1.0419,1.027,1.0058,0.9903,0.9795,0.9503,0.9381,0.9347,0.9055,0.8885,0.8844,0.8601,0.8486,0.8459,0.0,0.0,0.0,0.0,0.0,0.0,0.7789,0.7988,0.7988,0.7988,0.7988,0.0,0.0,0.0,0.0,0.0,0.8447,0.9042,0.9646,1.0663,0.9584,0.5866,0.6188,0.4492,0.0086,0.0,0.0,0.0,0.2377,0.4834,0.7159,0.9472,1.1847,1.415,1.415,1.4095,1.3994,1.3939,1.3858,1.3702,1.2908,1.2433,1.2094,1.0995,1.0202,0.9646,0.0,0.0,0.0,0.0,0.835,0.8231,0.8384,0.8411,0.8397,0.8296,0.8296,0.8377,0.8581,0.896,0.9531,1.0465,1.2115,1.4209,1.6882,1.8789,2.0484,2.2303,2.2418,2.2151,2.2151,2.2311,2.2672,2.3354,2.3875,2.4315,2.4609,2.4382,2.3875,2.2979,2.2605,2.2311,2.2083,2.2699,2.346,2.4155,2.3113,2.2355,2.2018,1.8792,1.6534,1.571,1.3229,1.1932,1.183,1.1491,1.1287,1.124,1.0941,1.0717,1.0561,1.0419,1.027,1.0127,1.0011,0.9903,0.9815,0.9713,0.9557,0.9367,0.9273,0.911,0.8871,0.8825,0.8655,0.8445,0.0,0.0,0.0,0.0,0.0,0.0,0.0,0.0,0.0,0.0,0.0,0.0,0.0,0.0,0.0,0.0,0.0,0.8723,0.9117,0.0,0.9065,0.5975,0.6414,0.5062,0.1502,0.0963,0.0978,0.1571,0.2061,0.414,0.7722,0.8615,1.067,1.3593,1.3593,1.3566,1.3519,1.341,1.3268,1.3044,1.2162,1.1681,1.1369,1.0229,0.953,0.0,0.0,0.0,0.0,0.0,0.7988,0.7988,0.7988,0.7988,0.8008,0.8167,0.837,0.8642,0.9008,0.9469,0.9944,1.0337,1.1644,1.3409,1.5409,1.6919,1.8303,1.9856,2.0143,2.0065,1.9843,2.024,2.0869,2.167,2.2285,2.2873,2.3474,2.338,2.3046,2.2485,2.2231,2.2004,2.1802,2.1951,2.2432,2.3233,2.243,2.1764,2.1277,1.8275,1.6121,1.5252,1.2949,1.1701,1.1592,1.1253,1.1084,1.1063,1.0778,1.0561,1.0412,1.0263,1.0114,0.9903,0.9856,0.9802,0.9659,0.9605,0.9469,0.9293,0.9245,0.911,0.8871,0.8818,0.8648,0.8459,0.0,0.0,0.0,0.0,0.0,0.0,0.0,0.0,0.0,0.0,0.0,0.0,0.0,0.0,0.0,0.0,0.0,0.0,0.0,0.0,0.0,0.6742,0.7119,0.6309,0.4036,0.272,0.2897,0.449,0.1616,0.3063,0.8626,0.7103,0.8585,1.2637,1.2637,1.2718,1.2827,1.2535,1.2162,1.1721,1.1055,1.0476,0.9896,0.9141,0.0,0.0,0.0,0.0,0.0,0.7988,0.7995,0.8002,0.8008,0.8015,0.8083,0.8431,0.8635,0.8927,0.9646,1.0073,1.0385,1.067,1.0955,1.1667,1.3361,1.377,1.417,1.5727,1.668,1.7268,1.7253,1.8142,1.9239,2.0401,2.0641,2.1082,2.2258,2.1964,2.1817,2.2352,2.1964,2.1802,2.1964,2.1829,2.183,2.2352,0.0,2.2789,2.0533,1.8784,1.6913,1.4928,1.2741,1.145,1.1158,1.1002,1.0778,1.0493,1.0473,1.0399,1.0263,1.0107,0.9896,0.9802,0.9666,0.9523,0.9367,0.9282,0.9214,0.9193,0.9001,0.8892,0.8851,0.8615,0.8499,0.8492,0.0,0.0,0.0,0.0,0.0,0.0,0.0,0.0,0.0,0.0,0.0,0.0,0.0,0.0,0.0,0.0,0.0,0.0,0.0,0.0,0.0,0.0,0.0,0.0,0.0,0.0,0.0,0.0,0.0,0.4652,0.7898,0.7357,0.8648,1.1332,1.1332,1.1362,1.1287,1.1206,1.1111,1.0941,0.0,0.9924,0.9788,0.0,0.0,0.0,0.0,0.0,0.0,0.7988,0.8113,0.8228,0.8336,0.8445,0.8594,0.8948,0.9245,0.9632,1.0046,1.0466,1.0819,1.1002,1.1104,1.157,1.307,1.3246,1.3465,1.472,1.54,1.5713,1.5505,1.68,1.8237,1.9212,2.0107,2.1082,2.2258,2.2485,2.2498,2.2432,2.2686,2.2645,2.2044,2.2311,2.2405,2.2124,2.2512,2.272,2.2517,1.9502,1.7418,1.6773,1.3224,1.1192,1.1002,1.0738,1.0568,1.0487,1.027,1.0078,1.0038,0.9951,0.9802,0.9659,0.9625,0.9523,0.9374,0.934,0.9316,0.9207,0.9166,0.9035,0.8871,0.8797,0.875,0.8655,0.0,0.0,0.0,0.0,0.0,0.0,0.0,0.0,0.0,0.0,0.0,0.0,0.0,0.0,0.0,0.0,0.0,0.0,0.0,0.0,0.0,0.0,0.0,0.0,0.0,0.0,0.0,0.0,0.0,0.0,0.0,0.7471,0.8229,1.0358,1.0358,1.0351,1.0324,1.0256,0.0,0.0,0.0,0.0,0.0,0.0,0.0,0.0,0.0,0.0,0.8022,0.8217,0.8391,0.8499,0.8763,0.8879,0.9076,0.9501,0.9774,1.012,1.0548,1.09,1.1145,1.1158,1.1118,1.1226,1.174,1.1619,1.1571,1.1916,1.2612,1.3163,1.3479,1.4951,1.6652,1.8074,1.9118,2.0214,2.1643,2.1991,2.2218,2.2565,2.2806,2.2779,2.2405,2.2432,2.2445,2.2378,2.2525,2.2645,2.2739,1.9345,1.7286,1.7029,1.3122,1.0968,1.0751,1.0514,1.0365,1.0297,1.0059,0.9856,0.9795,0.9768,0.9612,0.9415,0.0,0.9388,0.9184,0.9184,0.9096,0.896,0.896,0.8913,0.8832,0.8764,0.8723,0.8703,0.0,0.0,0.0,0.0,0.0,0.0,0.0,0.0,0.0,0.0,0.8015,0.7988,0.0,0.0,0.0,0.0,0.0,0.0,0.0,0.0,0.0,0.0,0.0,0.0,0.0,0.0,0.0,0.0,0.0,0.0,0.0,0.0,0.0,0.0,0.0,0.0,0.0,0.0,0.0,0.0,0.0,0.0,0.0,0.0,0.0,0.0,0.0,0.0,0.0,0.8581,0.875,0.8825,0.9164,0.9388,0.9618,1.0128,1.0374,1.0548,1.1104,1.1348,1.1409,1.124,1.1056,1.0691,1.0092,0.9761,0.9361,0.8798,0.9579,1.0629,1.1482,1.2959,1.4781,1.7055,1.7899,1.892,2.0806,2.1109,2.1523,2.2672,2.2605,2.2579,2.2832,2.2405,2.2298,2.2766,2.2766,2.2539,2.2071,1.9038,1.6922,1.5979,1.2869,1.0944,1.0466,1.0324,1.0181,0.9984,0.9876,0.9727,0.9612,0.9591,0.9422,0.9214,0.935,0.9191,0.8885,0.8885,0.8797,0.871,0.871,0.871,0.8696,0.856,0.8608,0.8723,0.0,0.0,0.0,0.0,0.0,0.0,0.0,0.0,0.0,0.0,0.8194,0.7988,0.0,0.0,0.0,0.0,0.0,0.0,0.0,0.0,0.0,0.0,0.0,0.0,0.0,0.0,0.0,0.0,0.0,0.0,0.0,0.0,0.0,0.0,0.0,0.0,0.0,0.0,0.0,0.0,0.0,0.0,0.0,0.0,0.0,0.0,0.0,0.0,0.0,0.0,0.8981,0.9228,0.972,1.008,1.0385,1.0839,1.1077,1.1274,1.1619,1.1735,1.1687,1.1416,1.1056,1.0602,0.9998,0.9384,0.8954,0.8594,0.9371,1.0128,1.0306,1.1637,1.3525,1.5976,1.6618,1.786,2.0668,2.1109,2.1456,2.2378,2.2672,2.2806,2.2859,2.2834,2.2645,2.2512,2.2271,2.2191,2.2338,2.0179,1.7344,1.3793,1.3074,1.1952,1.0381,1.0168,1.0011,0.9984,0.9774,0.9632,0.9605,0.9476,0.932,0.9214,0.9234,0.0,0.8885,0.8885,0.8797,0.871,0.871,0.871,0.871,0.8682,0.8771,0.8838,0.0,0.0,0.0,0.0,0.0,0.0,0.0,0.8336,0.8465,0.8689,0.8662,0.8526,0.8296,0.8083,0.7988,0.0,0.0,0.0,0.0,0.0,0.0,0.0,0.0,0.0,0.0,0.0,0.7988,0.7988,0.0,0.0,0.0,0.7988,0.7988,0.7988,0.0,0.0,0.0,0.0,0.0,0.0,0.0,0.0,0.0,0.0,0.0,0.0,0.0,0.0,0.0,0.0,0.8967,0.933,0.9958,1.0371,1.0697,1.1151,1.1389,1.1572,1.187,1.1952,1.1864,1.1484,1.0995,1.0426,0.9747,0.9191,0.8689,0.8228,0.8578,0.9109,0.9644,1.065,1.205,1.4162,1.5379,1.6859,1.9333,2.0208,2.1029,2.2071,2.2325,2.2405,2.2405,2.2338,2.2178,2.2191,2.1924,2.1817,2.1964,2.0014,1.7142,1.3238,1.3016,1.2502,1.1401,1.1225,1.1096,1.1065,1.0904,1.0332,0.9374,0.9381,0.9259,0.9049,0.918,0.9069,0.8878,0.8797,0.8777,0.8696,0.854,0.8574,0.8703,0.8621,0.8737,0.8885,0.0,0.0,0.0,0.0,0.0,0.0,0.8438,0.854,0.8703,0.8979,0.915,0.9111,0.8669,0.8364,0.8096,0.0,0.0,0.0,0.0,0.0,0.0,0.0,0.0,0.0,0.0,0.0,0.0,0.7988,0.7988,0.0,0.0,0.0,0.0,0.0,0.7988,0.7988,0.0,0.0,0.0,0.0,0.0,0.7988,0.0,0.0,0.0,0.0,0.0,0.0,0.0,0.0,0.8838,0.9228,0.9829,1.0351,1.0792,1.1145,1.1443,1.1721,1.1993,1.2135,1.1959,1.1545,1.0914,1.0215,0.9537,0.8981,0.8472,0.7963,0.7907,0.8259,0.9045,0.9575,1.0483,1.225,1.3686,1.5404,1.7709,1.8952,2.0161,2.1657,2.1857,2.1924,2.1977,2.1789,2.1708,2.1884,2.1628,2.1454,2.1521,1.9876,1.7442,1.4124,1.36,1.3181,1.2865,1.2371,1.226,1.2448,1.2369,1.1372,0.9659,0.9753,0.9433,0.8892,0.9055,0.9042,0.0,0.8771,0.8689,0.8635,0.8404,0.8459,0.8648,0.856,0.8703,0.8885,0.0,0.0,0.0,0.0,0.0,0.0,0.8438,0.8716,0.8999,0.949,0.9442,0.9293,0.9166,0.8825,0.8486,0.0,0.0,0.0,0.0,0.0,0.0,0.0,0.0,0.0,0.0,0.0,0.0,0.7988,0.7988,0.0,0.0,0.0,0.0,0.0,0.0,0.7988,0.7988,0.7988,0.0,0.0,0.0,0.0,0.0,0.0,0.0,0.0,0.0,0.7988,0.8035,0.8397,0.8615,0.8811,0.9207,0.993,1.0731,1.0772,1.1274,1.185,1.2013,1.2135,1.1986,1.1674,1.0839,0.9903,0.949,0.8825,0.8255,0.8008,0.7982,0.8031,0.8096,0.818,0.8851,1.0802,1.1252,1.269,1.6561,1.7428,1.8526,2.0916,2.143,2.1762,2.1964,2.1789,2.1628,2.1655,2.1132,2.0869,2.1136,2.0743,1.9445,1.7069,1.5571,1.467,1.4401,1.2708,1.2534,1.3897,1.3569,1.2581,1.1083,1.1007,1.0217,0.8885,0.8898,0.8898,0.0,0.8771,0.8628,0.8499,0.8472,0.8479,0.852,0.8642,0.8798,0.8885,0.0,0.0,0.0,0.0,0.0,0.0,0.8438,0.8587,0.8859,0.9401,0.9496,0.9462,0.9306,0.9103,0.8723,0.8042,0.0,0.0,0.0,0.0,0.0,0.0,0.0,0.0,0.0,0.0,0.7988,0.7988,0.7988,0.0,0.0,0.0,0.0,0.0,0.0,0.7988,0.7988,0.7988,0.0,0.0,0.0,0.0,0.0,0.0,0.0,0.0,0.0,0.0,0.8008,0.8174,0.8316,0.8452,0.8472,0.9022,0.9774,1.0399,1.0921,1.1389,1.1809,1.1993,1.1965,1.1579,1.0758,0.9869,0.9483,0.8804,0.8201,0.7957,0.7928,0.7907,0.7685,0.7855,0.8216,0.8833,0.9731,1.1383,1.4386,1.5522,1.7116,1.9953,2.0428,2.0748,2.139,2.1349,2.1216,2.1105,2.0877,2.0575,2.0334,2.0374,1.9472,1.7481,1.6797,1.6324,1.602,1.5078,1.4876,1.5421,1.5176,1.4159,1.2467,1.1632,1.088,1.0186,0.9265,0.8831,0.0,0.8635,0.8533,0.8472,0.8391,0.8465,0.8628,0.8689,0.8804,0.8885,0.0,0.0,0.0,0.0,0.0,0.8089,0.8438,0.856,0.8798,0.9313,0.9517,0.9551,0.9401,0.9164,0.8791,0.8221,0.8042,0.0,0.0,0.0,0.0,0.0,0.0,0.0,0.0,0.0,0.7988,0.7988,0.7988,0.7988,0.0,0.0,0.7988,0.7988,0.0,0.0,0.0,0.0,0.0,0.0,0.0,0.0,0.0,0.0,0.0,0.0,0.0,0.0,0.0,0.0,0.0,0.818,0.8022,0.0,0.0,0.9713,1.0365,1.084,1.1321,1.1647,1.1769,1.1362,1.0582,0.9815,0.9408,0.8737,0.814,0.7923,0.7914,0.7894,0.7624,0.7828,0.7921,0.776,0.8676,1.0171,1.2291,1.3791,1.5678,1.8403,1.8765,1.9331,2.058,2.0962,2.0989,2.0695,2.0601,2.0334,1.9826,1.9907,1.9389,1.803,1.7542,1.7387,1.7689,1.6805,1.6544,1.6925,1.6655,1.5611,1.3911,1.2924,1.1991,1.1055,1.0021,0.9228,0.0,0.8547,0.8459,0.8411,0.8361,0.8425,0.8648,0.8696,0.8804,0.8885,0.0,0.0,0.0,0.0,0.0,0.8089,0.8438,0.8737,0.9042,0.934,0.9517,0.9551,0.9401,0.8981,0.8648,0.8492,0.8208,0.0,0.0,0.0,0.0,0.0,0.0,0.0,0.0,0.0,0.7988,0.7988,0.7988,0.7988,0.7988,0.7988,0.7988,0.7988,0.0,0.0,0.0,0.0,0.0,0.0,0.0,0.0,0.0,0.0,0.0,0.0,0.0,0.0,0.0,0.0,0.0,0.0,0.0,0.7995,0.8089,0.0,0.9564,1.05,1.0507,1.0941,1.1328,1.0961,1.0276,0.9537,0.9282,0.8581,0.7988,0.7988,0.7988,0.7988,0.7982,0.7988,0.7988,0.7988,0.7988,0.8686,1.0656,1.233,1.4018,1.5884,1.6402,1.7382,1.9601,2.0601,2.0989,2.0695,2.0401,0.0,1.9813,1.9533,1.9372,1.9372,1.7806,1.7747,1.9372,1.7207,1.6894,1.849,1.7876,1.6829,1.537,1.537,1.3804,1.1109,1.1109,1.0194,0.0,0.8547,0.8397,0.8327,0.832,0.8357,0.8506,0.8655,0.8804,0.8885,0.0,0.0,0.0,0.0,0.0,0.0,0.8167,0.8211,0.8379,0.873,0.8811,0.8899,0.9062,0.8859,0.8648,0.8499,0.8214,0.0,0.0,0.0,0.0,0.0,0.0,0.0,0.0,0.7988,0.8092,0.8201,0.8296,0.8343,0.8343,0.8343,0.8289,0.8194,0.8035,0.7988,0.0,0.0,0.0,0.0,0.0,0.0,0.7988,0.0,0.0,0.0,0.0,0.0,0.0,0.0,0.0,0.0,0.0,0.0,0.0,0.8157,0.8757,0.9496,0.9808,1.01,1.027,1.008,0.9585,0.9096,0.8893,0.8431,0.7988,0.7988,0.7988,0.7961,0.7902,0.7921,0.7955,0.7902,0.7921,0.8514,1.0054,1.0895,1.2558,1.5975,1.8282,1.9946,2.0606,2.0949,2.0909,2.0414,2.0281,2.0013,1.9533,1.947,1.943,1.943,1.8881,1.8881,1.943,1.832,1.7978,1.8477,1.7876,1.7371,1.6882,1.5849,1.4877,1.3911,1.1973,1.0783,0.0,0.8962,0.8397,0.832,0.832,0.8357,0.8499,0.8655,0.8804,0.8885,0.0,0.0,0.0,0.0,0.0,0.0,0.7988,0.8042,0.8194,0.8377,0.8452,0.8574,0.8825,0.8716,0.8608,0.8574,0.8296,0.0,0.0,0.0,0.0,0.0,0.0,0.0,0.7988,0.7988,0.814,0.835,0.8499,0.8601,0.8655,0.871,0.8647,0.8343,0.8248,0.8096,0.0,0.0,0.0,0.0,0.0,0.0,0.7988,0.0,0.0,0.0,0.0,0.0,0.0,0.0,0.0,0.0,0.0,0.0,0.0,0.0,0.8251,0.8642,0.915,0.9456,0.9618,0.9476,0.9144,0.8811,0.8662,0.8323,0.7988,0.7988,0.7988,0.7961,0.7916,0.788,0.7894,0.7902,0.788,0.8217,0.9106,0.9908,1.1636,1.5044,1.7911,1.966,1.9846,2.049,2.0748,2.0267,2.0134,1.9867,1.9399,1.9265,1.9199,1.9199,1.9199,1.9145,1.9038,1.8557,1.833,1.8317,1.7822,1.7582,1.7582,1.6658,1.5902,1.5251,1.294,0.0,0.0,0.9144,0.8364,0.8187,0.8248,0.8357,0.8499,0.8655,0.8804,0.8885,0.0,0.0,0.0,0.0,0.0,0.0,0.0,0.816,0.8255,0.8255,0.837,0.8506,0.8648,0.8554,0.8533,0.8655,0.8431,0.0,0.0,0.0,0.0,0.0,0.0,0.0,0.7988,0.8002,0.8194,0.8479,0.8669,0.8825,0.8898,0.9117,0.8995,0.8499,0.8486,0.8316,0.8002,0.8194,0.8174,0.8002,0.8194,0.8167,0.0,0.0,0.0,0.0,0.0,0.0,0.0,0.0,0.0,0.0,0.0,0.0,0.0,0.0,0.0,0.0,0.0,0.8967,0.9252,0.9166,0.8866,0.8628,0.8486,0.8235,0.0,0.7988,0.7988,0.7988,0.7988,0.7867,0.7862,0.7968,0.7909,0.7862,0.7968,0.9445,1.1301,1.3477,1.5865,1.748,1.7901,1.9636,2.0548,2.0227,1.9933,1.9639,1.9359,1.9052,1.8878,1.8865,1.8865,1.8744,1.849,1.8196,1.7995,1.7995,1.7729,1.7569,1.7555,1.7569,1.6857,0.0,1.3933,0.0,0.0,0.9138,0.8303,0.8022,0.8214,0.8357,0.8499,0.8655,0.8804,0.8885,0.0,0.0,0.0,0.0,0.0,0.0,0.0,0.0,0.0,0.0,0.8119,0.811,0.8143,0.8364,0.8404,0.0,0.0,0.0,0.0,0.0,0.0,0.0,0.0,0.0,0.7988,0.8153,0.8303,0.8479,0.8981,0.9184,0.911,0.9374,0.9198,0.8655,0.8533,0.8316,0.7988,0.8029,0.8022,0.7995,0.8029,0.8022,0.0,0.0,0.0,0.0,0.7988,0.7988,0.0,0.0,0.0,0.0,0.0,0.0,0.0,0.0,0.7988,0.8015,0.8116,0.0,0.8343,0.8309,0.8248,0.8137,0.0,0.8042,0.7988,0.0,0.7988,0.7988,0.7988,0.7867,0.7862,0.7968,0.7909,0.7862,0.7968,1.0067,1.2287,1.4189,1.6619,1.8517,1.9244,2.0138,2.0468,1.9947,1.9639,1.9345,1.9038,1.8758,1.849,1.8209,1.8195,1.8275,1.849,1.8196,1.7995,1.7995,1.7729,1.7462,1.7313,1.7527,1.7172,1.6253,0.0,0.0,1.1971,0.9381,0.8282,0.8221,0.8306,0.8357,0.8499,0.8655,0.8804,0.8885,0.0,0.0,0.0,0.0,0.0,0.0,0.0,0.0,0.0,0.0,0.7988,0.7988,0.7988,0.8248,0.8323,0.0,0.0,0.0,0.0,0.0,0.0,0.0,0.0,0.7988,0.7988,0.8187,0.8411,0.8689,0.9157,0.9408,0.9462,0.9632,0.9388,0.8798,0.8438,0.8187,0.7995,0.8113,0.8106,0.7995,0.8119,0.0,0.0,0.0,0.0,0.0,0.7988,0.7988,0.0,0.7988,0.7988,0.7975,0.0,0.0,0.0,0.0,0.7934,0.7988,0.7988,0.7988,0.7988,0.7988,0.7988,0.7988,0.7988,0.0,0.0,0.0,0.7988,0.7988,0.7988,0.7867,0.7862,0.7968,0.7909,0.7909,0.8201,0.9583,1.1322,1.3333,1.5534,1.7467,1.885,1.9802,2.0147,1.9826,1.9399,1.9092,1.8931,1.8517,1.821,1.7995,1.7849,1.7916,1.8076,1.7916,1.7836,1.7822,1.7528,1.7353,1.7206,1.7367,1.7128,1.6613,0.0,0.0,1.2344,1.0112,0.9224,0.918,0.8594,0.887,0.955,0.8974,0.8811,0.8885,0.0,0.0,0.0,0.0,0.0,0.0,0.0,0.0,0.0,0.0,0.0,0.0,0.0,0.0,0.0,0.0,0.0,0.0,0.0,0.0,0.0,0.0,0.7988,0.8008,0.8056,0.8214,0.8492,0.8885,0.9259,0.9544,0.9788,0.9856,0.9551,0.8858,0.8305,0.8029,0.7995,0.818,0.816,0.8002,0.818,0.0,0.0,0.0,0.0,0.0,0.0,0.0,0.0,0.7961,0.7968,0.7961,0.7834,0.0,0.0,0.0,0.0,0.0,0.7982,0.7988,0.7988,0.7988,0.7988,0.7988,0.7988,0.0,0.0,0.0,0.7988,0.7988,0.7988,0.7867,0.7862,0.7968,0.797,0.8079,0.8554,0.8859,0.9902,1.2379,1.4077,1.5881,1.8051,1.9133,1.972,1.9666,1.9118,1.8784,1.8784,1.8222,1.7916,1.7916,1.7716,1.7582,1.7582,1.7582,1.7555,1.7515,1.7326,1.7152,1.7072,1.7166,1.6991,1.6494,0.0,0.0,1.2472,1.0874,1.0373,1.0499,0.9287,0.9655,1.0699,0.9632,0.9099,0.8885,0.0,0.0,0.0,0.0,0.0,0.0,0.0,0.0,0.0,0.0,0.0,0.0,0.0,0.0,0.0,0.0,0.0,0.0,0.0,0.0,0.0,0.7988,0.7988,0.8153,0.8411,0.8323,0.8492,0.8885,0.9367,0.9598,0.9652,1.0032,0.9754,0.8865,0.8574,0.8275,0.7988,0.8015,0.8008,0.7988,0.8015,0.0,0.0,0.0,0.0,0.0,0.0,0.0,0.0,0.7889,0.788,0.7941,0.7719,0.0,0.0,0.0,0.0,0.0,0.7955,0.7988,0.7988,0.7988,0.7988,0.7988,0.7988,0.7988,0.0,0.0,0.0,0.7988,0.7988,0.7867,0.7862,0.7968,0.8228,0.8581,0.9164,0.9395,1.0582,1.347,1.4711,1.6171,1.8545,1.9216,1.9332,1.9078,1.8462,1.8129,1.8129,1.7849,1.7649,1.7649,1.7609,1.7582,1.7582,1.7582,1.7514,1.7259,1.7219,1.6938,1.6469,1.6978,1.6714,1.5896,0.0,1.4413,1.3497,1.1061,1.0677,1.1599,1.0715,1.0404,1.0523,1.0712,0.9974,0.8885,0.0,0.0,0.0,0.0,0.0,0.0,0.0,0.0,0.0,0.0,0.0,0.0,0.0,0.0,0.0,0.0,0.0,0.0,0.0,0.0,0.8029,0.816,0.8167,0.8228,0.8364,0.8459,0.873,0.9178,0.9544,0.9808,0.9971,0.9849,0.9442,0.8804,0.8499,0.8248,0.7988,0.7988,0.7988,0.7988,0.0,0.0,0.0,0.0,0.0,0.0,0.0,0.0,0.0,0.0,0.7916,0.7941,0.7692,0.0,0.0,0.0,0.0,0.0,0.7874,0.7928,0.7988,0.7988,0.7988,0.7988,0.7988,0.7988,0.7988,0.0,0.7988,0.7988,0.7988,0.8052,0.8133,0.8364,0.8587,0.8825,0.9103,0.9273,0.9939,1.1502,0.0,1.5287,1.6526,1.8159,1.9078,1.8931,1.8328,1.7982,1.7982,1.7742,1.7582,1.7582,1.7582,1.7582,1.7582,1.7474,1.734,1.7206,1.7206,1.6898,1.6286,1.6714,1.6513,1.5798,0.0,1.4532,1.2716,1.1502,1.1039,1.1061,1.0792,1.0706,1.0615,1.0038,0.9406,0.8871,0.0,0.0,0.0,0.0,0.0,0.0,0.0,0.0,0.0,0.0,0.0,0.0,0.0,0.0,0.0,0.0,0.0,0.0,0.0,0.8022,0.8147,0.832,0.8354,0.8422,0.8525,0.8662,0.9001,0.9483,0.9747,1.0012,1.027,0.9734,0.9225,0.875,0.8452,0.8214,0.7988,0.7988,0.7988,0.7988,0.0,0.0,0.0,0.0,0.0,0.0,0.0,0.0,0.0,0.0,0.0,0.0,0.0,0.0,0.0,0.7706,0.7807,0.7914,0.7841,0.7874,0.7975,0.7901,0.7941,0.8008,0.8076,0.8096,0.8103,0.8137,0.8116,0.8083,0.8099,0.8187,0.8377,0.871,0.8893,0.9028,0.9074,0.9239,0.9569,1.0161,1.2704,1.4654,1.5293,1.7447,1.8824,1.8824,1.8277,1.7929,1.7916,1.7635,1.7527,1.7527,1.7408,1.7382,1.7382,1.7206,1.7099,1.7099,1.7032,1.6723,1.6179,1.6473,1.6313,1.5798,1.6139,1.4959,1.2775,1.2145,1.1796,1.1625,1.1322,1.1308,1.1256,0.9355,0.8804,0.8865,0.0,0.0,0.0,0.0,0.0,0.0,0.0,0.0,0.0,0.0,0.0,0.0,0.0,0.0,0.0,0.0,0.0,0.0,0.0,0.8174,0.8306,0.832,0.8397,0.8716,0.9139,0.8981,0.9148,0.9788,0.9889,1.0114,1.0276,0.9944,0.9476,0.8851,0.8601,0.8309,0.7988,0.7988,0.7988,0.7988,0.7988,0.0,0.0,0.0,0.0,0.0,0.0,0.0,0.0,0.0,0.0,0.0,0.0,0.0,0.7651,0.7767,0.7814,0.7828,0.7814,0.7874,0.7928,0.7699,0.7834,0.8062,0.8391,0.8452,0.8492,0.8635,0.8547,0.8411,0.8275,0.8313,0.8411,0.8797,0.9042,0.9279,0.97,0.9768,1.0318,1.1831,1.3567,1.5182,1.6691,1.7875,1.8517,1.8517,1.7956,1.7609,1.7609,1.7393,1.7233,1.7233,1.6914,1.6767,1.6767,1.6754,1.674,1.674,1.646,1.6166,1.5872,1.6166,1.6126,1.5798,1.6139,1.6002,1.5343,1.292,1.327,1.523,1.3344,1.286,1.2783,0.9777,0.8804,0.8865,0.0,0.0,0.0,0.0,0.0,0.0,0.0,0.0,0.0,0.0,0.0,0.7988,0.7988,0.0,0.0,0.0,0.0,0.0,0.0,0.8092,0.8167,0.832,0.8404,0.8608,0.8872,0.9096,0.951,1.0107,1.0256,1.0263,1.0127,0.9734,0.9279,0.8784,0.8486,0.8289,0.8174,0.8029,0.8092,0.8174,0.8029,0.7988,0.0,0.0,0.0,0.0,0.0,0.0,0.0,0.0,0.7801,0.7896,0.7563,0.7584,0.7706,0.7577,0.7665,0.7773,0.759,0.778,0.7941,0.778,0.7889,0.8042,0.8303,0.8492,0.8615,0.8574,0.8676,0.8689,0.8445,0.8479,0.8662,0.9015,0.9279,0.953,0.9781,0.9822,0.9997,1.0657,1.2988,1.4785,1.5216,1.7215,1.833,1.7956,1.7716,1.7422,1.7061,1.7152,1.7112,1.6874,1.6767,1.67,1.67,1.6526,1.6433,1.6433,1.6513,1.6286,1.5798,1.6139,1.6112,1.5784,1.5952,1.5495,1.4555,1.3536,1.2764,1.2127,1.1665,1.2685,1.4006,1.1114,1.0147,1.0108,0.0,0.0,0.0,0.0,0.0,0.0,0.0,0.0,0.7988,0.0,0.0,0.0,0.0,0.7988,0.0,0.0,0.0,0.0,0.7988,0.8035,0.816,0.832,0.8404,0.8574,0.8777,0.913,0.9578,1.0134,1.0378,1.0317,0.9909,0.9564,0.9191,0.8832,0.8492,0.8336,0.833,0.8174,0.8147,0.8187,0.8029,0.7988,0.0,0.0,0.0,0.0,0.0,0.0,0.0,0.0,0.7773,0.7855,0.759,0.7617,0.7712,0.7556,0.7651,0.7746,0.7455,0.7665,0.7874,0.7719,0.7896,0.8167,0.8364,0.8642,0.8859,0.8899,0.8927,0.8804,0.8601,0.8642,0.8804,0.9159,0.9408,0.9659,0.9802,0.9781,0.9774,0.9815,1.2524,1.4356,1.4197,1.673,1.8143,1.7622,1.7502,1.7235,1.6727,1.6857,1.6831,1.658,1.6473,1.6433,1.6433,1.6233,1.6126,1.6139,1.6339,1.6219,1.5784,1.6046,1.6019,1.5784,1.5784,1.5296,1.4459,1.4076,1.2905,1.1342,1.1337,1.2832,1.4671,1.1928,1.0994,1.0866,0.0,0.0,0.0,0.0,0.0,0.0,0.0,0.0,0.7988,0.7988,0.7988,0.0,0.0,0.0,0.0,0.0,0.0,0.0,0.7988,0.818,0.832,0.832,0.8404,0.8621,0.8865,0.9076,0.9367,0.9822,1.027,1.0256,0.9808,0.9517,0.935,0.918,0.8682,0.8479,0.8472,0.833,0.818,0.7988,0.7988,0.7988,0.7988,0.0,0.0,0.0,0.0,0.0,0.0,0.0,0.7719,0.7624,0.7767,0.7712,0.7624,0.7767,0.7807,0.7746,0.7448,0.7584,0.774,0.7448,0.7876,0.835,0.8648,0.894,0.9337,0.9727,0.9289,0.8838,0.8743,0.8716,0.8811,0.9159,0.9408,0.9659,0.9795,0.9693,0.9659,0.9802,1.2229,1.3956,1.4167,1.6506,1.7862,1.7595,1.7353,1.7058,1.6714,1.6433,1.6321,1.6321,1.5979,1.5784,1.5784,1.5784,1.5784,1.5784,1.5784,1.5784,1.5784,1.5784,1.5784,1.5784,1.5784,1.5784,1.5689,1.4411,1.4074,1.4173,1.3065,1.3607,1.4659,1.1928,1.0994,1.092,0.0,0.0,0.0,0.0,0.0,0.0,0.0,0.0,0.7988,0.7988,0.7988,0.0,0.0,0.0,0.0,0.0,0.0,0.0,0.7988,0.8029,0.8106,0.8106,0.8255,0.8323,0.8251,0.8655,0.9164,0.9822,0.9958,0.9849,0.951,0.9313,0.9084,0.8729,0.854,0.8425,0.8323,0.8174,0.8147,0.8194,0.8035,0.7988,0.7988,0.0,0.0,0.0,0.0,0.0,0.0,0.0,0.0,0.0,0.7522,0.755,0.759,0.7522,0.7577,0.7597,0.7292,0.7428,0.7645,0.7556,0.7902,0.8377,0.8777,0.894,0.9096,0.9442,0.9205,0.8954,0.9008,0.9077,0.9105,0.9193,0.932,0.9462,0.9503,0.9476,0.9462,0.9503,1.213,1.3774,1.3367,1.6012,1.7422,1.6764,1.6767,1.662,1.6064,1.6206,1.6179,1.5965,1.5872,1.5784,1.5784,1.5784,1.5784,1.5784,1.5784,1.5784,1.5784,1.5784,1.5784,1.5784,1.5784,1.5784,1.5689,1.4411,1.3968,1.4013,1.3865,1.4063,1.4406,1.3777,1.2997,1.2065,0.0,0.0,0.0,0.0,0.0,0.0,0.7988,0.7988,0.7988,0.7988,0.7988,0.7988,0.0,0.0,0.0,0.0,0.0,0.0,0.7988,0.7988,0.7988,0.7988,0.8126,0.8167,0.8133,0.8513,0.8899,0.9286,0.9469,0.9435,0.9205,0.9228,0.9098,0.8838,0.8838,0.873,0.8526,0.837,0.8255,0.8174,0.8029,0.7988,0.7988,0.0,0.0,0.0,0.0,0.0,0.0,0.0,0.0,0.0,0.7467,0.7434,0.7489,0.7446,0.7434,0.7455,0.7166,0.7366,0.7611,0.7672,0.8024,0.8459,0.8797,0.9114,0.937,0.9612,0.9415,0.9232,0.932,0.9344,0.9303,0.9303,0.9374,0.9449,0.9388,0.9327,0.9537,1.017,1.2131,1.3576,1.3825,1.5931,1.6967,1.6375,1.6433,1.6326,1.5811,1.6005,1.6019,1.5784,1.5784,1.5784,1.5784,1.5784,1.5784,1.5784,1.5784,1.5784,1.5784,1.5784,1.5784,1.5784,1.5784,1.5784,1.5689,1.4411,1.422,1.4627,1.4399,1.4605,1.5047,1.4705,1.4196,1.3393,0.0,0.0,0.7988,0.7988,0.0,0.0,0.7988,0.7988,0.7988,0.7988,0.7988,0.7988,0.0,0.0,0.0,0.7988,0.0,0.0,0.0,0.7988,0.7988,0.7988,0.8002,0.8133,0.834,0.854,0.8601,0.8465,0.8954,0.9042,0.8844,0.9076,0.9268,0.932,0.9334,0.9178,0.8831,0.8716,0.8411,0.7988,0.7988,0.7988,0.7988,0.7988,0.0,0.0,0.0,0.0,0.0,0.0,0.0,0.0,0.7434,0.7426,0.7419,0.7419,0.7419,0.7339,0.7197,0.7366,0.7617,0.7787,0.818,0.8601,0.8906,0.9444,0.9923,0.9923,0.9795,0.9625,0.9612,0.9496,0.9395,0.9367,0.9476,0.951,0.9347,0.9312,0.9829,1.1248,1.2299,1.3499,1.4987,1.6036,1.654,1.6308,1.6233,1.6112,1.5798,1.5784,1.5784,1.5784,1.5784,1.5784,1.5784,1.5784,1.5784,1.5784,1.5784,1.5784,1.5784,1.5784,1.5784,1.5784,1.5784,1.5784,1.5724,1.4555,1.4698,1.556,1.4728,1.512,1.5967,1.4996,1.4742,1.4516,0.0,0.0,0.7988,0.7988,0.0,0.0,0.7988,0.7988,0.7988,0.7988,0.7988,0.7988,0.7988,0.7988,0.0,0.7988,0.7988,0.0,0.0,0.7988,0.7988,0.7988,0.8153,0.8289,0.8431,0.8391,0.835,0.8368,0.8642,0.873,0.8587,0.903,0.9105,0.8859,0.8981,0.8866,0.856,0.8296,0.8076,0.7988,0.7988,0.7988,0.7988,0.7988,0.7988,0.0,0.0,0.0,0.0,0.0,0.0,0.0,0.7522,0.7468,0.7419,0.7419,0.7419,0.7412,0.7333,0.7366,0.7509,0.7896,0.8366,0.892,0.9218,0.9408,0.9523,0.9523,0.9659,0.9741,0.9632,0.9585,0.9483,0.9296,0.9289,0.9157,0.8893,0.9744,1.0431,1.0637,1.2707,1.4214,1.4329,1.558,1.6246,1.5952,1.5925,1.5899,1.5784,1.5784,1.5784,1.5784,1.5784,1.5784,1.5784,1.5784,1.5784,0.0,1.5784,1.5784,1.5784,1.5784,1.5784,1.5784,1.5784,1.5784,1.5784,1.5486,1.4949,1.4364,1.5156,1.5038,1.4509,1.5258,1.501,1.4225,0.0,0.0,0.0,0.0,0.0,0.0,0.0,0.0,0.8201,0.8008,0.7988,0.7988,0.7988,0.7988,0.0,0.0,0.7988,0.0,0.0,0.0,0.7988,0.7988,0.8187,0.8269,0.8269,0.8269,0.8235,0.816,0.8316,0.8384,0.8391,0.8764,0.8899,0.8825,0.8974,0.8872,0.8574,0.835,0.8167,0.7988,0.7988,0.7988,0.7988,0.7988,0.7988,0.7988,0.7988,0.0,0.0,0.0,0.0,0.0,0.0,0.0,0.7405,0.7285,0.7258,0.7258,0.7258,0.7366,0.7604,0.8119,0.8648,0.9083,0.9239,0.9327,0.9381,0.9381,0.9503,0.9585,0.951,0.9503,0.9422,0.9248,0.9096,0.8967,0.8743,0.9754,1.0758,1.138,1.3167,1.4512,1.5084,1.569,1.5992,1.5798,1.5784,1.5784,1.5784,1.5784,1.5784,1.5784,1.5784,1.5784,1.5784,1.5784,1.5784,1.5784,1.5784,1.5784,1.5784,1.5784,1.5784,1.5784,1.5784,1.5784,1.5784,1.5784,1.5391,1.4902,1.5534,1.5391,1.4902,1.5581,1.5525,1.5047,0.0,0.0,0.0,0.0,0.0,0.0,0.0,0.0,0.0,0.8022,0.7988,0.7988,0.7988,0.7988,0.7988,0.0,0.0,0.0,0.0,0.0,0.0,0.8029,0.8201,0.8221,0.8069,0.8214,0.8208,0.8029,0.8002,0.8133,0.8368,0.8581,0.8777,0.8851,0.9022,0.8927,0.8662,0.8479,0.8262,0.7988,0.7988,0.7988,0.7988,0.7988,0.7988,0.7988,0.7988,0.7988,0.7968,0.7896,0.0,0.0,0.0,0.0,0.7312,0.721,0.7119,0.7098,0.7125,0.7421,0.7794,0.8282,0.8743,0.9132,0.9132,0.9178,0.9266,0.9266,0.9327,0.9374,0.9347,0.934,0.9293,0.9193,0.9015,0.8817,0.8696,0.9865,1.1189,1.2343,1.3624,1.4851,1.6095,1.5979,1.5784,1.5784,1.5784,1.5784,1.5784,1.5784,1.5758,1.5704,1.5758,1.5758,1.5752,1.5758,1.5784,1.5784,1.5784,1.5784,1.5784,1.5784,1.5784,1.5784,1.5784,1.5784,1.5784,1.5784,1.5784,1.5784,1.5784,1.5784,1.5784,1.5784,1.5979,1.6007,0.0,0.0,0.0,0.0,0.0,0.0,0.0,0.0,0.0,0.0,0.7988,0.7988,0.7988,0.7988,0.7988,0.7988,0.7988,0.7988,0.7988,0.0,0.0,0.8235,0.8313,0.8316,0.8418,0.8323,0.8313,0.8241,0.8106,0.818,0.8459,0.8628,0.8723,0.8743,0.8764,0.8676,0.8492,0.8214,0.8022,0.7988,0.7988,0.7988,0.7988,0.7988,0.7988,0.7988,0.7988,0.7988,0.7988,0.7968,0.7841,0.0,0.0,0.0,0.7146,0.7305,0.7244,0.7125,0.7305,0.7651,0.7948,0.8029,0.8438,0.8771,0.8771,0.8784,0.8798,0.8798,0.911,0.934,0.9262,0.9241,0.9137,0.8988,0.8898,0.8838,0.8554,1.0612,1.211,1.1983,1.4099,1.5647,1.5838,1.5845,1.5784,1.5784,1.5784,1.5784,1.5784,1.5784,1.5712,1.5458,1.5698,1.5712,1.5458,1.5698,1.5784,1.5784,1.5784,1.5784,1.5784,1.5784,1.5784,1.5784,1.5784,1.5784,1.5784,1.5784,1.5784,1.5784,1.5784,1.5784,1.5784,1.5784,1.5811,1.5838,0.0,0.0,0.0,0.0,0.0,0.0,0.0,0.0,0.0,0.0,0.0,0.7988,0.7988,0.7988,0.7988,0.7988,0.7988,0.7988,0.7988,0.7988,0.8022,0.814,0.814,0.8174,0.8235,0.8174,0.814,0.814,0.8022,0.8194,0.8486,0.8635,0.8798,0.8954,0.8784,0.8676,0.8587,0.815,0.7988,0.7988,0.7988,0.7988,0.7988,0.7988,0.7988,0.7982,0.7894,0.7909,0.7909,0.7909,0.7828,0.7719,0.7699,0.0,0.0,0.0,0.7146,0.7132,0.7326,0.7577,0.7834,0.7948,0.8255,0.8486,0.8567,0.8581,0.8581,0.8581,0.8737,0.8859,0.8845,0.8832,0.8757,0.8696,0.8615,0.8776,0.9396,1.1006,1.236,1.2942,1.4663,1.5784,1.5784,1.5784,1.5765,1.5605,1.5738,1.5704,1.5591,1.5591,1.5524,1.5404,1.5364,1.5364,1.5391,1.5524,1.5671,1.5784,1.5784,1.5784,1.5784,1.5784,1.5784,1.5784,1.5784,1.5784,1.5784,1.5784,1.5784,1.5784,1.5784,1.5784,1.5784,1.5784,1.5784,1.5784,0.0,0.0,0.0,0.0,0.0,0.0,0.0,0.0,0.0,0.0,0.0,0.8528,0.8528,0.0,0.0,0.0,0.7988,0.7988,0.7988,0.7988,0.7988,0.7988,0.7988,0.7988,0.7988,0.7988,0.7988,0.7988,0.7988,0.836,0.9113,0.9273,0.9541,0.9817,0.912,0.8919,0.9101,0.8398,0.8103,0.814,0.7975,0.7934,0.7928,0.7894,0.788,0.7867,0.7841,0.7814,0.7814,0.7855,0.7821,0.7746,0.7678,0.7577,0.0,0.0,0.0,0.7119,0.7278,0.7428,0.7597,0.7814,0.8045,0.8241,0.8343,0.8397,0.8431,0.8431,0.8397,0.837,0.837,0.8431,0.8479,0.8479,0.8702,0.9167,1.007,1.1479,1.284,1.3788,1.4997,1.5784,1.5784,1.5718,1.5631,1.5418,1.5605,1.5591,1.5297,1.5351,1.5324,1.5177,1.511,1.5137,1.5284,1.5431,1.5618,1.5784,1.5784,1.5784,1.5784,1.5784,1.5784,1.5784,1.5784,1.5784,1.5784,1.5784,1.5784,1.5784,1.5784,1.5784,1.5784,1.5784,1.5784,1.5784,0.0,0.0,0.0,0.0,0.0,0.0,0.0,0.0,0.0,0.0,0.0,0.0,0.9903,0.8775,0.7988,0.7988,0.7988,0.7988,0.7988,0.7988,0.7988,0.7988,0.7988,0.0,0.7988,0.7988,0.7988,0.7988,0.7988,0.8969,1.076,1.1054,1.1324,1.1603,0.9945,0.96,1.0248,0.8981,0.8459,0.8425,0.7997,0.7821,0.7807,0.7672,0.7624,0.7638,0.7767,0.7814,0.7834,0.7928,0.7841,0.7631,0.776,0.7462,0.7146,0.0,0.0,0.0,0.7105,0.7265,0.7433,0.7446,0.7733,0.8002,0.8008,0.8174,0.8333,0.8333,0.8167,0.8015,0.8015,0.8296,0.8479,0.8479,0.9511,1.0261,1.0188,1.2403,1.3958,1.3908,1.4997,1.5784,1.5784,1.5578,1.5418,1.5391,1.5404,1.5297,1.5048,1.5244,1.5137,1.4576,1.5084,1.5244,1.5035,1.5538,1.5771,1.5784,1.5784,1.5784,1.5784,1.5784,1.5784,1.5784,1.5784,1.5784,1.5784,1.5784,1.5784,1.5784,1.5784,1.5784,1.5784,1.5784,1.5784,1.5784,0.0,0.0,0.0,0.0,0.0,0.0,0.0,0.0,0.0,0.0,0.0,0.0,0.0,0.8287,0.7988,0.7988,0.7988,0.7988,0.7988,0.7988,0.7988,0.7988,0.7988,0.7988,0.7988,0.7988,0.7988,0.7988,0.8874,0.9662,1.0467,1.1542,1.2071,1.2126,1.1042,1.0116,0.9446,0.9433,0.945,0.9419,0.917,0.9523,1.0061,0.909,0.9165,0.9844,0.9745,0.9296,0.8753,0.8815,0.8295,0.7611,0.7658,0.7495,0.7278,0.7238,0.7139,0.7098,0.7098,0.7139,0.7244,0.7346,0.7495,0.7638,0.7733,0.7868,0.7977,0.7977,0.8011,0.8287,0.9114,0.8671,0.8447,0.9349,0.9845,1.0712,1.2356,1.3382,1.428,1.501,1.5534,1.5704,1.5565,1.5458,1.5244,1.4856,1.5017,1.499,1.4696,1.4963,1.5017,1.4816,1.5003,1.5164,1.5244,1.5631,1.5784,1.5784,1.5784,1.5784,1.5784,1.5784,1.5784,1.5784,1.5784,1.5784,1.5784,1.5784,1.5784,1.5784,1.5784,1.5784,1.5784,1.5784,1.5784,1.5784,0.0,0.0,0.0,1.1121,0.0,1.2571,1.2571,1.2231,1.194,1.194,0.0,0.0,0.0,0.0,0.9312,0.9312,0.9312,0.9312,0.9312,0.9312,0.9312,0.9312,0.9312,0.9312,0.9312,0.9312,0.9312,0.9312,1.019,1.0969,1.1613,1.2699,1.3213,1.3194,1.2677,1.1585,1.0178,1.069,1.0892,1.0753,1.0083,1.0562,1.1592,1.0115,1.0315,1.1317,1.0709,1.0297,0.9899,0.9435,0.9031,0.8667,0.8667,0.8588,0.8385,0.7871,0.7965,0.8185,0.7797,0.7709,0.7664,0.7469,0.7419,0.7446,0.7502,0.7914,0.8299,0.8347,0.881,0.9486,1.0476,0.9895,0.9608,1.0485,1.1023,1.194,1.368,1.4268,1.4854,1.5689,1.5784,1.5712,1.5431,1.5311,1.5044,1.4563,0.0,0.0,1.4389,1.475,1.5048,1.5156,1.511,1.5244,1.5538,1.5725,1.5784,1.5784,1.5784,1.5784,1.5784,1.5784,1.5784,1.5784,1.5784,1.5784,1.5784,1.5784,1.5784,1.5784,1.5784,1.5784,1.5784,1.5784,1.5784,1.5784,0.8137,0.9213,1.0141,1.0141,1.228,1.3968,1.3968,1.4949,1.5724,1.5724,0.0,0.0,0.0,0.0,0.0,1.1901,1.1901,1.1912,1.1901,1.1901,1.1901,1.1901,1.1901,1.1901,1.1901,1.1901,1.1901,1.1901,1.195,1.2737,1.4298,1.4657,1.4816,1.4804,1.4804,1.4059,1.2658,1.2805,1.2685,1.2332,1.0617,1.0885,1.2162,1.0676,1.0877,1.1822,1.0593,1.0669,1.1155,0.9853,1.0049,1.0835,1.0815,1.071,1.0399,0.9279,0.9758,1.0356,0.0,0.0,0.0,0.7733,0.7496,0.7496,0.7496,0.8429,0.9372,0.9511,1.0594,1.1562,1.1889,1.193,1.194,1.1989,1.3054,1.392,1.3968,1.4997,1.5784,1.5784,1.5784,1.5712,1.5404,1.5124,1.4843,0.0,1.4509,1.4389,1.4122,1.47,1.511,1.5404,1.5404,1.5551,1.5784,1.5784,1.5784,1.5784,1.5784,1.5784,1.5784,1.5784,1.5784,1.5784,1.5784,1.5784,1.5784,1.5784,1.5784,1.5784,1.5784,1.5784,1.5784,1.5784,1.5784,1.5784,1.1881,1.2571,1.3102,1.4028,1.4806,1.5296,1.5296,1.4806,1.4411,0.0,0.0,0.0,1.2425,1.2338,1.2171,1.1912,1.2141,1.2171,1.1912,1.1901,1.1901,1.1901,1.1901,1.1901,1.1901,1.1901,1.1901,1.1901,1.2861,1.357,1.4026,1.5042,1.5084,1.4333,1.5419,1.5072,1.3668,1.3628,1.3667,1.3712,1.2921,1.3519,1.4613,1.2973,1.3077,1.4105,1.3729,1.3285,1.2742,1.2151,1.1759,1.141,1.1095,1.0987,1.0862,1.0265,1.0508,1.0862,1.0265,0.0,0.0,0.0,0.0,0.0,0.9664,0.9923,1.014,1.0372,1.0847,1.1513,1.2513,1.2866,1.332,1.4272,1.4147,1.422,1.514,1.5581,1.5784,1.5784,1.5784,1.5631,1.5182,1.5062,1.4794,0.0,1.4202,1.4269,1.4389,1.495,1.5404,1.5698,1.5712,1.5704,1.5784,1.5784,1.5784,1.5784,1.5784,1.5784,1.5784,1.5784,1.5784,1.5784,1.5784,1.5784,1.5784,1.5784,1.5784,1.5784,1.5784,1.5784,1.5784,1.5784,1.5784,1.5784,1.2764,1.3536,1.4124,1.4902,1.5543,1.5979,1.5798,1.529,1.4835,0.0,0.0,0.0,1.3547,1.3826,1.3872,1.357,1.3734,1.3757,1.3559,1.3547,1.3547,1.3547,1.3547,1.3547,1.3547,1.3547,1.3547,1.3547,1.4316,1.4698,1.4711,1.5439,1.5434,1.485,1.5686,1.559,1.4777,1.4601,1.4698,1.4861,1.4064,1.4684,1.5822,1.4241,1.4459,1.5451,1.4857,1.4524,1.4259,1.3375,1.3077,1.294,1.2081,1.2215,1.2595,1.1905,1.2193,1.2583,1.186,1.1837,1.1813,1.1062,0.0,0.0,1.0441,1.073,1.1038,1.1166,1.1706,1.2399,1.3309,1.3689,1.4101,1.4895,1.4764,1.4823,1.5663,1.5784,1.5784,1.5784,1.5784,1.5605,1.5062,1.5008,1.4767,1.4135,1.4082,1.4269,1.4683,1.515,1.5524,1.5771,1.5784,1.5784,1.5784,1.5784,1.5784,1.5784,1.5784,1.5784,1.5784,1.5784,1.5784,1.5784,1.5784,1.5784,1.5784,1.5784,1.5784,1.5784,1.5784,1.5784,1.5784,1.5784,1.5784,1.5784,0.0,1.3295,1.4124,1.416,1.5348,1.6192,1.5965,1.6126,1.6192,0.0,1.5851,1.5885,1.5878,1.6139,1.6166,1.5899,1.5872,1.5824,1.5784,1.5784,1.5784,1.5784,1.5784,1.5784,1.5784,1.5784,1.5784,1.5784,1.5784,1.5784,1.5784,1.5784,1.5784,1.5784,1.5784,1.5758,1.5718,1.5538,1.5578,1.5684,1.4518,1.4944,1.6162,1.4924,1.5218,1.6082,1.475,1.4962,1.5563,1.4013,1.4159,1.4829,1.3508,1.3951,1.4784,1.3722,1.4173,1.4784,1.3676,1.3417,1.3156,1.1981,1.1608,0.0,1.0783,1.1433,1.2099,1.1994,1.2885,1.3733,1.4041,1.4349,1.4563,1.4522,1.5017,1.5471,1.5698,1.5744,1.5758,1.5738,1.5744,1.5591,1.5022,1.4995,1.4767,1.4135,1.4122,1.4376,1.4981,1.5244,1.5524,1.5771,1.5784,1.5784,1.5784,1.5784,1.5784,1.5784,1.5784,1.5784,1.5784,1.5784,1.5784,1.5784,1.5784,1.5784,1.5784,1.5784,1.5784,1.5784,1.5784,1.5784,1.5784,1.5784,1.5784,1.5784,1.4854,1.5248,1.5517,1.5787,1.6087,1.6339,1.6513,1.6393,1.6339,1.6513,1.6326,1.6273,1.6513,1.638,1.6246,1.6192,1.6192,1.6086,1.5798,1.5784,1.5784,1.5784,1.5784,1.5784,1.5784,1.5784,1.5784,1.5784,1.5784,1.5784,1.5784,1.5784,1.5784,1.5784,1.5784,1.5698,1.5498,1.5671,1.5645,1.5484,1.5192,1.5602,1.6246,1.5704,1.5673,1.5864,1.556,1.5594,1.5758,1.5402,1.5312,1.5251,1.4956,1.4961,1.4963,1.4739,1.4829,1.4963,1.4726,1.4806,1.4878,1.4372,1.4059,0.0,1.3715,1.3681,1.3681,1.3629,1.3836,1.4015,1.4082,1.4522,1.4803,1.4563,1.5017,1.5337,1.5164,1.5538,1.5658,1.519,1.5551,1.5465,1.4683,1.483,1.4767,1.4135,1.4309,1.4589,1.4995,1.5244,1.5524,1.5771,1.5784,1.5784,1.5784,1.5784,1.5784,1.5784,1.5784,1.5784,1.5784,1.5784,1.5784,1.5784,1.5784,1.5784,1.5784,1.5784,1.5784,1.5784,1.5784,1.5784,1.5784,1.5784,1.5784,1.5784,1.5676,1.5784,1.5824,1.6019,1.6179,1.6375,1.6473,1.6486,1.654,1.6687,1.6714,1.6697,1.6513,1.6486,1.6366,1.6072,1.6046,1.5992,1.5798,1.5784,1.5784,1.5784,1.5784,1.5784,1.5784,1.5784,1.5784,1.5784,1.5784,1.5784,1.5784,1.5784,1.5784,1.5771,1.5671,1.5618,1.5605,1.5458,1.5484,1.5618,1.5618,1.5792,1.6032,1.5838,1.5784,1.5784,1.5784,1.5784,1.5784,1.5784,1.5725,1.5591,1.5444,1.5297,1.5204,1.5351,1.5297,1.5217,1.5351,1.5498,1.5551,1.5257,1.507,0.0,0.0,1.4295,1.4082,1.4082,1.3854,1.3694,1.3841,1.4108,1.4255,1.4066,1.4456,1.4696,1.4593,1.503,1.5284,1.5048,1.5217,1.5164,1.4576,1.4656,1.4563,1.4122,1.4496,1.4803,1.4995,1.5378,1.5671,1.5784,1.5784,1.5784,1.5784,1.5784,1.5784,1.5784,1.5784,1.5784,1.5784,1.5784,1.5784,1.5784,1.5784,1.5784,1.5784,1.5784,1.5784,1.5784,1.5784,1.5784,1.5784,1.5784,1.5784,1.5784,1.5784,1.5784,1.5798,1.5899,1.6112,1.6335,1.6353,1.6513,1.6647,1.67,1.6914,1.6978,1.6616,1.658,1.65,1.6192,1.5917,1.5824,1.5992,1.5838,1.5784,1.5784,1.5784,1.5784,1.5784,1.5784,1.5784,1.5784,1.5784,1.5784,1.5784,1.5784,1.5784,1.5771,1.5578,1.5578,1.5712,1.5311,1.5364,1.5752,1.5758,1.5784,1.5784,1.5784,1.5784,1.5784,1.5784,1.5784,1.5784,1.5784,1.5784,1.5744,1.5551,1.5404,1.5378,1.5725,1.5578,1.5391,1.5691,1.5784,1.5765,1.5538,1.5484,1.5337,0.0,0.0,0.0,1.4269,1.3828,0.0,1.3733,0.0,0.0,1.3693,0.0,0.0,0.0,1.4539,0.0,1.4914,1.4883,1.479,1.4549,1.4469,1.4335,1.4108,1.4566,1.4888,1.4995,1.5404,1.5712,1.5784,1.5784,1.5784,1.5784,1.5784,1.5784,1.5784,1.5784,1.5784,1.5784,1.5784,1.5784,1.5784,1.5784,1.5784,1.5784,1.5784,1.5784,1.5784,1.5784,1.5784,1.5784,1.5784,1.5784,1.5784,1.5784,1.5784,1.5912,1.6179,1.6246,1.6366,1.662,1.6473,1.642,1.6673,1.674,1.6927,1.7382,1.6767,1.6607,1.7315,1.6433,1.6046,1.6567,1.6112,1.5784,1.5784,1.5784,1.5784,1.5784,1.5784,1.5784,1.5784,1.5784,1.5784,1.5784,1.5784,1.5784,1.5784,1.5792,1.5658,1.5458,1.5645,1.5618,1.5471,1.5678,1.5784,1.5784,1.5784,1.5784,1.5784,1.5784,1.5784,1.5784,1.5784,1.5784,1.5771,1.5744,1.5431,1.5124,1.5671,1.5444,1.5182,1.5685,1.5784,1.5771,1.5744,1.5731,1.5651,1.5364,0.0,1.5177,1.4955,0.0,1.4376,1.4372,0.0,0.0,0.0,0.0,0.0,1.4082,1.4148,1.4282,1.4536,1.4576,1.4563,0.0,1.4282,1.4122,1.4095,1.4148,1.4459,1.4981,1.5075,1.5297,1.5758,1.5784,1.5784,1.5784,1.5784,1.5784,1.5784,1.5784,1.5784,1.5784,1.5784,1.5784,1.5784,1.5784,1.5784,1.5784,1.5784,1.5784,1.5784,1.5784,1.5784,1.5784,1.5784,1.5784,1.5784,1.5784,1.5784,1.5824,1.5992,1.6019,1.6112,1.6406,1.6697,1.6871,1.6991,1.7114,1.7315,1.7555,1.7248,1.7166,1.7367,1.6727,1.6366,1.6446,1.6059,1.5912,1.6086,1.5925,1.5912,1.6086,1.5912,1.5784,1.5784,1.5784,1.5784,1.5784,1.5784,1.5784,1.5771,1.5658,1.5605,1.5645,1.5605,1.5511,1.5418,1.5712,1.5725,1.5591,1.5718,1.5784,1.5784,1.5784,1.5784,1.5784,1.5784,1.5784,1.5758,1.5631,1.5404,1.5257,1.5511,1.5404,1.5311,1.5712,1.5784,1.5784,1.5784,1.5784,1.5744,1.5671,1.5391,1.5204,1.5418,0.0,0.0,0.0,0.0,0.0,0.0,1.3948,0.0,0.0,0.0,1.3588,0.0,0.0,0.0,1.4269,0.0,0.0,0.0,1.4242,1.4442,1.4696,1.503,1.5324,1.5565,1.5738,1.5784,1.5784,1.5784,1.5784,1.5784,1.5784,1.5784,1.5784,1.5784,1.5784,1.5784,1.5784,1.5784,1.5784,1.5784,1.5784,1.5784,1.5784,1.5784,1.5784,1.5784,1.5784,1.5784,1.5784,1.5784,1.5784,1.5784,1.5784,1.5899,1.6112,1.6513,1.6898,1.7058,1.7208,1.7435,1.7675,1.7716,1.7729,1.7809,1.7341,1.6981,1.6767,1.6326,1.6099,1.6152,1.5939,1.5925,1.6152,1.5939,1.5784,1.5784,1.5784,1.5784,1.5784,1.5784,1.5784,1.5771,1.5605,1.5631,1.5771,1.5605,1.5511,1.5538,1.5738,1.5698,1.5538,1.5752,1.5784,1.5784,1.5784,1.5784,1.5784,1.5784,1.5784,0.0,1.5578,1.5404,1.5311,1.5471,1.5404,1.5351,1.5725,0.0,1.5784,0.0,0.0,0.0,0.0,0.0,0.0,0.0,0.0,0.0,0.0,0.0,1.4202,1.4202,0.0,1.372,0.0,1.332,0.0,0.0,0.0,0.0,0.0,0.0,0.0,0.0,0.0,1.4442,1.4522,1.5003,1.5311,1.5391,1.5671,1.5784,1.5784,1.5784,1.5784,1.5784,1.5784,1.5784,1.5784,1.5784,1.5784,1.5784,1.5784,1.5784,1.5784,1.5784,1.5784,1.5784,1.5784,1.5784,1.5784,1.5784,1.5784,1.5784,1.5784,1.5784,1.5784,1.5784,1.5784,1.5784,1.5798,1.5811,1.6072,1.6647,1.6727,1.7061,1.7889,1.7982,1.837,1.9225,1.8504,1.7942,1.7942,1.7168,1.6433,1.5824,1.5832,1.5832,1.5798,1.5832,1.5784,1.5784,1.5784,1.5784,1.5784,1.5784,1.5784,1.5784,1.5771,1.5771,1.5784,1.5771,1.5771,1.5771,1.5784,1.5771,1.5771,1.5784,1.5784,1.5784,1.5784,0.0,0.0,1.5784,1.5784,0.0,0.0,0.0,0.0,0.0,0.0,0.0,0.0,0.0,0.0,1.5784,0.0,0.0,0.0,0.0,1.5758,0.0,0.0,0.0,0.0,1.4897,1.4509,1.4509,1.4269,0.0,0.0,0.0,1.3693,1.4055,0.0,0.0,0.0,1.4255,0.0,0.0,0.0,0.0,1.4509,1.4816,1.511,1.5391,1.5671,1.5784,1.5784,1.5784,1.5784,1.5784,1.5784,1.5784,1.5784,1.5784,1.5784,1.5784,1.5784,1.5784,1.5784,1.5784,1.5784,1.5784,1.5784,1.5784,1.5784,1.5784,1.5784,1.5784,1.5784,1.5784,1.5784,1.5784,1.5784,1.5784,1.5784,1.5992,1.6406,1.7181,1.7462,1.8009,1.9092,1.9212,1.9332,1.9626,1.9199,1.8758,1.837,1.7675,1.7114,1.6714,1.6513,1.6313,1.6126,1.6126,1.6019,1.5784,1.5784,1.5784,1.5784,1.5784,1.5784,1.5784,1.5784,1.5784,1.5784,1.5784,1.5712,1.5551,1.5551,1.5658,1.5784,0.0,1.5784,1.5784,1.5784,1.5784,0.0,1.5784,1.5784,1.5744,1.5605,1.5538,1.5538,1.5538,1.5538,0.0,0.0,0.0,1.5784,1.5784,0.0,0.0,0.0,0.0,0.0,0.0,0.0,0.0,0.0,1.5084,1.4816,1.4816,1.4563,1.4242,0.0,1.3507,1.3427,1.372,1.4055,1.4242,0.0,0.0,0.0,0.0,0.0,0.0,0.0,1.4589,1.5048,1.511,1.5578,1.5784,1.5784,1.5784,1.5784,1.5784,1.5784,1.5784,1.5784,1.5784,1.5784,1.5784,1.5784,1.5784,1.5784,1.5784,1.5784,1.5784,1.5784,1.5784,1.5784,1.5784,1.5784,1.5784,1.5798,1.5784,1.5784,1.5784,1.5784,1.5784,1.5784,1.6259,1.6871,1.7488,1.8036,1.8731,1.9693,1.9893,2.0,2.0107,1.9947,1.9492,1.8691,1.8277,1.7742,1.7072,1.6914,1.6673,1.6335,1.638,1.6233,1.5784,1.5939,1.5939,1.5784,1.5784,1.5784,1.5784,1.5784,1.5784,1.5784,1.5784,1.5725,1.5551,1.5551,1.5658,1.5784,0.0,1.5784,1.5784,0.0,1.5784,1.5784,1.5784,1.5784,1.5744,1.5605,1.5605,1.5658,1.5578,1.5605,1.5698,1.5758,1.5784,0.0,1.5784,1.5784,0.0,1.5784,0.0,1.5605,0.0,0.0,0.0,0.0,0.0,1.5164,1.4856,1.4736,1.4429,0.0,1.3533,1.3547,1.3586,1.3908,1.4082,1.4082,0.0,0.0,0.0,0.0,0.0,0.0,0.0,1.5008,1.5008,1.5524,1.5784,1.5784,1.5784,1.5784,1.5784,1.5784,1.5784,1.5784,1.5784,1.5784,1.5784,1.5784,1.5784,1.5784,1.5784,1.5784,1.5784,1.5784,1.5784,1.5784,1.5784,1.5784,1.5784,1.5885,1.5798,1.5798,1.5798,1.5798,1.5832,1.5798,1.6593,1.7326,1.7609,1.8424,1.9199,1.98,2.0107,2.0388,2.0668,2.0695,2.0214,1.9078,1.8985,1.833,1.6874,1.7112,1.6965,1.6313,1.6567,1.642,1.5798,1.6126,1.6112,1.5798,1.5784,1.5784,1.5784,1.5784,1.5784,1.5784,1.5784,1.5784,1.5784,1.5784,1.5784,1.5784,1.5784,1.5784,1.5784,1.5784,1.5784,1.5784,1.5784,1.5784,1.5784,1.5784,1.5645,1.5471,1.5752,1.5631,1.5484,1.5752,1.5784,1.5784,1.5784,0.0,0.0,0.0,0.0,1.5784,0.0,0.0,0.0,0.0,0.0,0.0,1.4696,1.4763,1.4629,1.3746,1.3895,1.3975,1.368,1.3921,1.4082,1.4082,1.3814,0.0,0.0,0.0,0.0,0.0,0.0,1.5008,1.5008,1.5524,1.5784,1.5784,1.5784,1.5784,1.5784,1.5784,1.5784,1.5784,1.5784,1.5784,1.5784,1.5784,1.5784,1.5784,1.5784,1.5784,1.5784,1.5784,1.5784,1.5784,1.5784,1.5784,1.5784,1.5885,1.6005,1.6152,1.6152,1.5979,1.5899,1.6126,1.6777,1.7541,1.845,1.9158,1.988,2.0681,2.0842,2.0922,2.0989,2.1002,2.0775,2.0254,1.9813,1.9212,1.8384,1.8009,1.7435,1.6607,1.666,1.6526,1.6152,1.6019,1.6019,1.6152,1.5939,1.5784,1.5784,1.5784,1.5784,1.5784,1.5784,1.5784,1.5784,1.5784,1.5784,1.5784,0.0,1.5784,1.5784,1.5784,1.5784,1.5784,1.5784,1.5784,1.5784,1.5784,1.5731,1.5725,1.5758,1.5731,1.5691,1.5758,1.5784,1.5784,1.5784,1.5784,1.5784,0.0,0.0,0.0,0.0,0.0,0.0,0.0,0.0,0.0,1.5244,1.4683,1.4229,1.4001,1.3841,1.3853,1.4213,1.4175,1.4082,1.4082,1.3814,0.0,0.0,0.0,0.0,0.0,0.0,0.0,1.5008,1.5524,1.5784,1.5784,1.5784,1.5784,1.5784,1.5784,1.5784,1.5784,1.5784,1.5784,1.5784,1.5784,1.5784,1.5784,1.5784,1.5784,1.5784,1.5784,1.5784,1.5784,1.5784,1.5784,1.5784,1.6059,1.6259,1.642,1.6348,1.6446,1.6647,1.682,1.7179,1.7675,1.8611,1.9359,1.9987,2.0481,2.0882,2.1109,2.1109,2.1109,2.0935,2.0508,2.0174,1.9666,1.8958,1.849,1.7822,1.6914,1.6901,1.6633,1.6086,1.6046,1.6046,1.6072,1.5912,1.5784,1.5784,1.5784,1.5784,1.5784,1.5784,1.5784,1.5784,1.5784,1.5784,0.0,1.5784,1.5784,1.5784,1.5784,1.5784,1.5784,1.5784,1.5784,1.5784,1.5784,1.5784,1.5784,1.5784,1.5784,1.5784,1.5784,1.5784,1.5784,1.5784,1.5784,1.5784,1.5784,1.5784,1.5784,0.0,0.0,0.0,0.0,0.0,0.0,1.5271,1.4683,1.4229,1.4108,1.3948,1.3961,1.4295,1.4295,1.4229,1.4095,1.3814,0.0,0.0,0.0,0.0,0.0,0.0,0.0,1.5008,1.5524,1.5784,1.5784,1.5784,1.5784,1.5784,1.5784,1.5784,1.5784,1.5784,1.5784,1.5784,1.5784,1.5784,1.5784,1.5784,1.5784,1.5784,1.5784,1.5784,1.5784,1.5784,1.5784,1.5784,1.6335,1.6567,1.6714,1.6393,1.7088,1.7729,1.7809,1.7849,1.8076,1.8637,1.9452,1.9973,1.9973,2.0655,2.1109,2.1109,2.1069,2.0842,2.0321,2.0214,1.984,1.9078,1.8691,1.809,1.7273,1.7179,1.67,1.5885,1.6112,1.6086,1.5784,1.5744,1.5765,1.5765,1.5765,1.5792,1.5784,1.5784,1.5784,1.5784,1.5784,1.5784,1.5784,1.5784,1.5784,1.5784,1.5784,1.5784,1.5784,1.5784,1.5784,1.5784,1.5784,1.5784,1.5784,1.5784,1.5784,1.5784,1.5784,1.5784,1.5784,1.5784,1.5784,1.5784,1.5784,1.5784,1.5784,1.5784,1.5784,1.5752,0.0,0.0,0.0,1.5142,1.4776,1.4482,1.4188,1.4148,1.4148,1.4148,1.4362,0.0,0.0,0.0,0.0,0.0,0.0,0.0,0.0,0.0,0.0,1.5008,1.5524,1.5784,1.5784,0.0,1.5784,1.5784,1.5784,1.5784,1.5784,1.5784,1.5784,1.5784,1.5784,1.5784,1.5784,1.5784,1.5784,1.5784,1.5784,1.5784,1.5784,1.5784,1.5784,1.5784,1.6415,1.6901,1.7261,1.6727,1.7569,1.849,1.9042,1.9265,1.9533,1.988,2.0481,2.0882,2.0882,2.1015,2.1109,2.1109,2.0895,2.0708,2.0601,2.0147,1.98,1.9653,1.8905,1.8183,1.7515,1.7034,1.6593,1.6192,1.6005,1.5885,1.5784,1.5578,1.5471,1.5471,1.5471,1.5605,1.5784,1.5784,0.0,1.5784,1.5784,1.5784,1.5784,1.5784,1.5784,1.5784,1.5784,1.5784,1.5784,1.5784,1.5784,1.5784,1.5784,1.5784,1.5784,1.5784,1.5784,1.5784,1.5784,1.5784,1.5784,1.5784,1.5784,1.5784,1.5784,1.5784,1.5784,1.5784,1.5784,1.5771,1.5718,0.0,0.0,0.0,0.0,0.0,1.4482,1.4442,1.4442,1.4442,1.4482,1.4496,0.0,0.0,0.0,0.0,0.0,0.0,0.0,0.0,0.0,0.0,1.5524,0.0,0.0,0.0,1.5784,1.5784,1.5784,1.5784,1.5784,1.5784,1.5784,1.5784,1.5784,1.5784,1.5784,1.5784,1.5784,1.5784,1.5784,1.5784,1.5784,1.5784,1.5784,1.5784,1.7034,1.7288,1.7595,1.7622,1.8237,1.8918,1.9506,2.0094,2.0361,2.0054,2.0254,2.0428,2.0428,2.0708,2.0882,2.0882,2.0615,2.0441,2.0441,2.004,1.98,1.98,1.8958,1.821,1.7595,1.7007,1.6486,1.6046,1.5899,1.5752,1.5605,1.5458,1.5324,1.5177,1.5324,1.5565,0.0,0.0,0.0,1.5784,1.5784,1.5784,1.5784,1.5784,1.5784,1.5784,1.5784,1.5784,1.5784,1.5784,1.5784,1.5784,1.5784,1.5784,1.5784,1.5784,1.5784,1.5784,1.5784,1.5784,1.5784,1.5784,1.5784,1.5784,1.5784,1.5784,1.5784,1.5784,1.5784,1.5784,1.5784,1.5712,0.0,0.0,0.0,0.0,0.0,1.475,1.4696,1.4536,1.4656,1.4629,1.4322,1.4429,1.4402,1.4108,1.4082,1.4082,0.0,0.0,0.0,0.0,0.0,0.0,0.0,0.0,0.0,1.5784,1.5784,1.5784,1.5784,1.5784,1.5784,1.5784,1.5784,1.5784,1.5784,1.5784,1.5784,1.5784,1.5784,1.5784,1.5784,1.5784,1.5784,1.5784,1.7729,1.7729,1.7943,1.849,1.8878,1.9279,1.9813,2.0588,2.0855,2.0174,2.0027,1.9987,1.9987,2.0347,2.0575,2.0575,2.0307,2.0134,2.0134,1.9867,1.9679,1.9613,1.8891,1.8183,1.7502,1.6981,1.642,1.5784,1.5784,1.5645,1.5311,1.5364,1.5271,0.0,0.0,0.0,0.0,0.0,1.5784,1.5784,1.5784,1.5784,1.5784,1.5784,1.5784,1.5784,1.5784,1.5784,1.5784,1.5784,1.5784,1.5784,1.5784,1.5784,1.5784,1.5784,1.5784,1.5784,1.5784,1.5784,1.5784,1.5784,1.5784,1.5784,1.5784,1.5784,1.5784,1.5784,1.5784,1.5784,1.5784,1.5784,0.0,0.0,0.0,0.0,0.0,0.0,1.4923,1.4563,1.479,1.478,1.4148,0.0,0.0,0.0,1.4082,1.4082,1.4082,1.4687,1.5008,0.0,0.0,1.5784,1.5784,0.0,1.5784,1.5784,1.5784,1.5784,1.5784,1.5784,1.5784,1.5784,1.5784,1.5784,1.5784,1.5784,1.5784,1.5784,1.5784,1.5784,1.5784,1.5784,1.5784,1.5784,1.7955,1.8223,1.8504,1.8824,1.9345,1.9826,2.0147,2.0722,2.1082,2.1002,2.0762,2.0601,2.0601,2.0401,2.0267,2.0267,2.0013,1.984,1.984,1.9573,1.9292,1.9025,1.8677,1.8076,1.7259,1.6874,1.642,1.5784,1.5784,1.5551,1.5062,1.5271,0.0,0.0,0.0,0.0,0.0,1.5784,1.5784,1.5784,1.5784,1.5784,1.5784,1.5784,1.5784,1.5784,1.5784,1.5784,1.5784,1.5784,1.5784,1.5784,1.5784,1.5784,1.5784,1.5784,1.5784,1.5784,1.5784,1.5784,1.5784,1.5784,1.5784,1.5784,1.5784,1.5784,1.5784,1.5784,1.5784,1.5784,1.5784,1.5784,1.5771,0.0,0.0,0.0,0.0,0.0,1.515,1.4589,1.479,1.478,1.4148,1.4349,0.0,0.0,1.4082,1.4082,1.4082,1.4687,1.5008,1.5008,0.0,1.5784,1.5784,1.5784,1.5784,1.5784,1.5784,1.5784,1.5784,1.5784,1.5784,1.5784,1.5784,1.5784,1.5784,1.5784,1.5784,1.5784,1.5784,1.5784,1.5784,1.5784,1.5784,1.5784,1.8878,1.8931,1.9225,1.9867,1.988,1.996,0.0,2.0695,2.0788,2.0601,2.0641,2.0615,2.0428,2.0147,1.9973,1.9973,1.9706,1.9546,1.9546,1.9439,1.9239,1.8931,1.8651,1.8156,1.7474,1.6941,1.65,0.0,1.5912,1.5618,1.5231,0.0,0.0,0.0,0.0,1.5671,1.5784,1.5784,1.5784,1.5784,1.5784,1.5784,1.5784,1.5784,1.5784,1.5784,1.5784,1.5784,1.5784,1.5784,1.5784,1.5784,1.5784,1.5784,1.5784,1.5784,1.5784,1.5784,1.5784,1.5784,1.5784,1.5784,1.5784,1.5784,1.5784,1.5784,1.5784,1.5784,1.5784,1.5784,1.5784,1.5784,1.5784,0.0,0.0,0.0,0.0,0.0,1.5498,1.5097,1.5003,1.4847,1.4389,1.4295,0.0,0.0,0.0,1.4082,1.4082,1.4687,0.0,1.5008,0.0,1.5784,1.5784,1.5784,1.5784,1.5784,1.5784,1.5784,1.5784,1.5784,1.5784,1.5784,1.5784,1.5784,1.5784,1.5784,1.5784,1.5784,1.5784,1.5784,1.5784,1.5784,1.5784,1.5784,1.9399,0.0,1.9519,0.0,2.0134,1.9973,2.0468,2.0548,2.0441,2.0147,2.0294,2.0334,2.0134,1.984,1.9679,1.9679,1.9492,1.939,1.9239,1.9239,1.9065,1.8621,1.8464,0.0,1.7514,1.6967,1.6567,1.6321,1.5979,0.0,0.0,0.0,0.0,0.0,1.5524,1.5631,1.5784,1.5784,1.5784,1.5784,1.5784,1.5784,1.5784,1.5784,1.5784,1.5784,1.5784,1.5784,1.5784,1.5784,1.5784,1.5784,1.5784,1.5784,1.5784,1.5784,1.5784,1.5784,1.5784,1.5784,1.5784,1.5784,1.5784,1.5784,1.5784,1.5784,1.5784,1.5784,1.5784,1.5784,1.5784,1.5784,1.5784,1.5784,0.0,0.0,0.0,1.6055,0.0,1.5911,1.5431,1.4977,1.4683,1.4469,0.0,0.0,0.0,0.0,0.0,0.0,0.0,0.0,0.0,0.0,0.0,1.5784,1.5784,1.5784,1.5784,1.5784,1.5784,1.5784,1.5784,1.5784,1.5784,1.5784,1.5784,1.5784,1.5784,1.5784,1.5784,1.5784,1.5784,1.5784,1.5784,1.5784,1.9319,1.9132,1.9212,2.002,2.0,1.9893,2.0127,2.0241,2.0134,1.984,1.9813,1.9813,1.9813,1.9546,1.943,1.943,1.943,1.9239,1.8945,1.8931,1.8664,0.0,0.0,1.7769,1.7219,1.686,1.6567,1.6321,0.0,0.0,1.5391,0.0,1.5551,1.5784,1.5784,1.5784,1.5784,1.5784,1.5784,1.5784,1.5784,1.5784,1.5784,1.5784,1.5784,1.5784,1.5784,1.5784,1.5784,1.5784,1.5784,1.5784,1.5784,1.5784,1.5784,1.5784,1.5784,1.5784,1.5784,1.5784,1.5784,1.5784,1.5784,1.5784,1.5784,1.5784,1.5784,1.5784,1.5784,1.5784,1.5784,1.5784,1.5784,1.5784,0.0,0.0,0.0,1.6574,0.0,1.707,1.6099,1.5284,1.5035,1.4995,0.0,0.0,0.0,0.0,0.0,0.0,0.0,1.5378,1.5671,0.0,1.5784,1.5784,1.5784,1.5784,1.5784,1.5784,1.5784,1.5784,1.5784,1.5784,1.5784,1.5784,1.5784,1.5784,1.5784,1.5784,1.5784,1.5784,1.5784,1.5784,1.5784,1.5784,1.9639,1.9746,1.9847,2.0127,2.016,2.0054,1.996,1.9933,1.9826,1.9546,1.9506,1.9506,1.9506,1.9426,1.943,0.0,1.943,1.9332,0.0,1.9038,1.8758,1.837,1.8102,1.7769,1.7219,1.686,1.6567,1.6321,0.0,0.0,0.0,1.5698,1.5738,1.5784,1.5784,1.5784,1.5784,1.5784,1.5784,1.5784,1.5784,1.5784,1.5784,1.5784,1.5784,1.5784,1.5784,1.5784,1.5913,1.681,1.7077,1.7217,1.8072,1.7156,1.5784,1.5784,1.5784,1.5784,1.5784,1.5784,1.5784,1.5784,1.5784,1.5784,1.5784,1.648,1.7311,1.8164,1.8303,1.8303,1.8303,1.7623,1.7077,1.7077,1.6386,0.0,1.6339,0.0,1.5934,1.6201,1.5743,1.5364,1.5271,1.5129,0.0,0.0,0.0,0.0,0.0,0.0,0.0,0.0,1.5671,0.0,1.5784,1.5784,1.5784,1.5784,1.5784,1.5784,1.5784,1.5784,1.5784,1.5784,1.5784,1.5784,1.5784,1.5784,1.5784,1.5784,1.5784,1.5784,1.5784,1.5784,1.5784,1.5784,1.9639,1.9786,1.9907,1.9907,1.9907,1.984,1.9666,1.9639,1.9573,1.9399,1.943,1.943,1.943,1.943,0.0,1.943,1.9265,1.9158,1.9052,1.8758,1.8464,1.8156,1.7969,1.7649,1.7206,1.686,0.0,1.6321,1.5979,1.5784,1.5784,1.5784,1.5784,1.5784,1.5784,1.5784,1.5784,1.5784,1.5784,1.5784,1.5784,1.5784,1.5784,1.5784,1.5784,1.5784,1.5784,1.5784,1.5974,1.7264,1.7684,1.7917,1.9131,1.8442,1.7203,1.7203,1.6889,1.6527,1.6527,1.6527,1.6386,1.5927,1.5784,1.5927,1.6386,1.7138,1.8056,1.9268,1.9497,1.9497,1.9497,1.8856,1.8365,1.8365,1.7716,1.7343,1.7794,0.0,1.7203,0.0,0.0,0.0,0.0,1.5391,1.5324,0.0,0.0,0.0,0.0,0.0,0.0,1.5551,1.5691,0.0,1.5784,1.5784,1.5784,1.5784,1.5784,1.5784,1.5784,1.5784,1.5784,1.5784,1.5784,1.5784,1.5784,1.5784,1.5784,1.5784,1.5784,1.5784,1.5784,1.5784,1.5784,1.5784,1.943,1.943,1.943,0.0,1.943,0.0,1.943,1.943,1.943,1.943,1.943,1.943,1.943,1.943,1.9417,1.939,0.0,0.0,0.0,1.821,1.7862,1.7622,1.7595,1.7448,1.7206,1.686,1.6553,1.6295,1.5965,1.5784,1.5784,1.5784,1.5784,1.5784,1.5784,1.5784,1.5784,1.5784,1.5784,1.5784,1.5784,1.5784,1.5784,1.5784,1.5784,1.5832,1.5927,1.5913,1.615,1.7498,1.7963,1.8133,1.936,1.9679,1.9633,1.9542,1.8688,1.7824,1.7824,1.7824,1.7544,1.6339,1.6055,1.6386,1.7684,1.7963,1.8272,1.9497,1.977,1.977,1.977,1.9679,1.9633,1.9633,1.9542,1.9889,2.1016,2.0223,1.9497,0.0,0.0,0.0,0.0,1.5913,1.5806,0.0,0.0,0.0,0.0,0.0,1.5551,1.5771,1.5784,1.5784,1.5784,1.5784,1.5784,1.5784,1.5784,1.5784,1.5784,1.5784,1.5784,1.5784,1.5784,1.5784,1.5784,1.5784,1.5784,1.5784,1.5784,1.5784,1.5784,1.5784,1.5784,1.5784,0.0,0.0,1.943,1.943,1.943,1.943,1.943,1.943,1.943,1.943,1.943,1.943,1.943,1.943,1.9279,1.9052,1.8958,1.8798,1.8504,1.821,1.7955,1.7889,1.7702,1.7448,1.7206,1.686,1.646,1.5939,1.5858,1.5784,1.5784,1.5784,1.5784,1.5784,1.5784,1.5784,1.5784,1.5784,1.5784,1.5784,1.5784,1.5784,1.5784,1.5784,1.5784,1.5927,1.6904,1.7264,1.7591,1.9724,2.0432,2.0674,2.1854,2.1632,2.0702,1.9753,1.9314,1.9085,1.9085,1.9085,1.8993,1.8718,1.8626,1.8948,2.0161,2.0432,2.0809,2.2006,2.2271,2.2271,2.2271,2.148,2.0881,2.0881,2.007,1.9588,1.9906,1.9679,1.9497,0.0,1.9268,1.858,1.7358,1.7264,1.6828,0.0,0.0,0.0,0.0,1.5725,1.5704,1.5784,1.5784,1.5784,1.5784,1.5784,1.5784,1.5784,1.5784,1.5784,1.5784,1.5784,1.5784,1.5784,1.5784,1.5784,1.5784,1.5784,1.5784,1.5784,1.5784,1.5784,1.5784,1.5784,1.5784,1.5784,1.943,1.943,1.943,1.943,1.943,1.943,1.943,1.943,1.943,1.943,1.943,1.943,1.943,1.943,1.9199,1.8758,1.8731,1.8597,1.8303,1.8009,1.7836,1.7836,1.7675,1.7382,1.6954,1.678,1.642,1.5784,1.5784,1.5784,1.5784,1.5784,1.5784,1.5784,1.5784,1.5784,1.5784,1.5784,1.5784,1.5784,1.5784,1.5784,1.5784,1.5784,1.5784,1.5974,1.7217,1.7684,1.8056,2.0477,2.1302,2.1525,2.2731,2.2624,2.1987,2.1364,2.0764,2.0296,2.0296,2.0296,2.0206,1.9633,1.9497,1.9815,2.1016,2.1302,2.1658,2.2862,2.3101,2.3101,2.3101,2.2536,2.212,2.212,2.1587,2.1123,2.1123,2.1123,0.0,2.0387,2.0296,1.9861,1.8642,1.8503,1.8226,1.7529,1.7483,0.0,1.7483,1.6983,1.6386,1.5832,1.5784,1.5784,1.5784,1.5784,1.5784,1.5784,1.5784,1.5784,1.5784,1.5784,1.5784,1.5784,1.5784,1.5784,1.5784,1.5784,1.5784,1.5784,1.5784,1.5784,1.5784,1.5784,1.5784,1.5784,1.943,1.943,1.943,1.943,1.943,1.943,1.943,1.943,1.943,1.943,1.943,1.943,1.943,1.943,1.9145,1.8597,1.8517,1.8343,1.7942,1.7729,1.7582,1.7582,1.7542,1.7288,1.678,1.6687,1.638,1.5784,1.5784,1.5784,1.5784,1.5784,1.5784,1.5784,1.5784,1.5784,1.5784,1.5784,1.5784,1.5832,1.6008,1.6103,1.6103,1.6292,1.6386,1.6513,1.7762,1.8226,1.8596,2.0809,2.1569,2.1747,2.2775,2.3101,2.3101,2.3101,2.2359,2.1569,2.1569,2.1569,2.1346,2.0314,2.0042,2.0331,2.1419,2.1606,2.1872,2.308,2.3237,2.3198,2.3198,2.3198,2.3179,2.3101,2.3101,2.3101,2.3101,0.0,2.2731,2.1702,2.1569,2.1123,1.9906,1.9753,1.9724,1.9497,1.9497,1.9497,1.9497,1.8549,1.7404,1.6103,1.5927,1.5784,1.5784,1.5784,1.5784,1.5784,1.5784,1.5784,1.5784,1.5784,1.5784,1.5784,1.5784,1.5784,1.5784,1.5784,1.5784,1.5784,1.5784,1.5784,1.5784,1.5784,1.5784,1.5784,1.943,1.943,1.943,1.943,1.943,1.943,1.943,1.943,1.943,1.943,1.943,1.943,1.943,1.943,1.9225,1.8878,1.8637,1.825,1.7689,1.7609,1.7582,1.7582,1.7393,1.7233,1.7139,1.6643,1.6166,1.5784,1.5784,1.5784,1.5784,1.5784,1.5784,1.5784,1.5784,1.5784,1.5784,1.5784,1.5784,1.5879,1.6998,1.7404,1.7498,1.8534,1.8948,1.9085,2.0296,2.0747,2.0944,2.2359,2.2818,2.2862,2.3057,2.3101,2.3101,2.3101,2.295,2.2818,2.2818,2.2818,2.2775,2.2599,2.2536,2.2675,2.3281,2.3133,2.3055,2.4017,2.3926,2.3691,2.3691,2.3691,2.3574,2.3159,2.3101,2.3101,2.3101,0.0,2.3038,2.2862,2.2818,2.2359,2.1168,2.1016,2.0612,1.9588,1.9497,1.9497,1.9497,1.9314,1.8672,1.7451,1.6339,1.5784,1.5784,1.5784,1.5784,1.5784,1.5784,1.5784,1.5784,1.5784,1.5784,1.5784,1.5784,1.5784,1.5784,1.5784,1.5784,1.5784,1.5784,1.5784,1.5784,1.5784,1.5784,1.5784,1.943,1.943,1.943,1.943,1.943,1.943,1.943,1.943,1.943,1.943,1.943,1.9305,1.9145,1.9132,1.8945,1.8435,1.8275,1.8063,1.7609,1.7582,1.7515,1.7407,1.7273,1.7045,1.6737,1.6259,1.5965,1.5784,1.5784,1.5784,1.5784,1.5784,1.615,1.681,1.681,1.7171,1.7794,1.7794,1.7794,1.784,1.8442,1.8688,1.8718,1.9268,1.9497,1.9679,2.0881,2.1302,2.148,2.2687,2.3101,2.3101,2.3101,2.3101,2.3101,2.3101,2.3101,2.314,2.3418,2.3496,2.3555,2.3725,2.3783,2.3887,2.4082,2.3965,2.39,2.4336,2.4258,2.4062,2.3828,2.3789,2.3652,2.3159,2.3101,0.0,0.0,2.3101,2.3101,2.3101,2.3101,2.2862,2.2315,2.2271,2.2031,2.1498,2.1454,2.1454,2.1454,2.0809,1.9906,1.8734,1.6796,1.5784,1.5784,1.5784,1.5784,1.5784,1.5784,1.5784,1.5784,1.5784,1.5784,1.5784,1.5784,1.5784,1.5784,1.5784,1.5784,1.5784,1.5784,1.5784,1.5784,1.5784,1.5784,1.5784,1.943,1.943,1.943,1.943,1.943,1.943,1.943,1.943,1.943,1.943,1.943,1.9279,1.9052,1.8958,1.8688,1.8235,1.8075,1.7889,1.7702,1.7622,1.7527,1.7313,1.7166,1.6817,1.6179,1.5952,1.5784,1.5784,1.5784,1.5974,1.6244,1.6244,1.6889,1.8149,1.8149,1.8642,1.9497,1.9497,1.9497,1.9542,1.9815,1.9906,1.9951,2.0223,2.0359,2.0449,2.1391,2.1702,2.1854,2.2775,2.3101,2.3101,2.3101,2.3159,2.3257,2.3257,2.3315,2.3471,2.3848,2.3867,2.3887,2.4316,2.4414,2.4434,2.4551,2.4492,2.4473,2.4687,2.4648,2.4473,2.4141,2.4004,2.3789,2.3315,0.0,0.0,0.0,2.3101,2.3101,2.3101,2.3101,2.3101,2.3101,2.3198,2.3257,2.3257,2.3335,2.3393,2.3393,2.2509,2.1446,2.0132,1.7293,1.5784,1.5784,1.5784,1.5858,1.5939,1.5939,1.5939,1.5939,1.5939,1.5851,1.5784,1.5784,1.5784,1.5784,1.5784,1.5784,1.5784,1.5784,1.5784,1.5784,1.5784,1.5784,1.5784,1.943,1.943,1.943,1.943,1.943,1.943,1.943,1.943,1.943,1.943,1.943,1.9417,1.939,1.9092,1.8905,1.8865,1.8302,1.7982,1.7955,1.7742,1.7569,1.7555,1.7034,1.646,1.5872,1.5798,1.5784,1.5784,1.5784,1.6386,1.7544,1.7544,1.8226,1.936,1.936,1.9405,1.9497,1.9497,1.9497,1.9588,2.0702,2.1168,2.1302,2.2403,2.2818,2.2862,2.295,2.295,2.2994,2.3057,2.3101,2.3101,2.3101,2.3418,2.375,2.375,2.4023,2.4336,2.4355,2.4082,2.3887,2.4316,2.4414,2.4531,2.4969,2.4707,2.4648,2.5421,2.5312,2.5047,2.5028,2.4648,2.4238,2.3809,0.0,0.0,2.3101,2.3101,2.3101,2.3101,2.3101,2.3101,2.3101,2.3496,2.375,2.375,2.4102,2.4316,2.4316,2.4224,2.3434,2.1851,1.7912,1.5784,1.5784,1.5784,1.5965,1.6246,1.6246,1.6246,1.6246,1.6246,1.6086,1.5784,1.5784,1.5784,1.5784,1.5784,1.5784,1.5784,1.5784,1.5784,1.5784,1.5784,1.5784,1.5784,1.9092,1.9239,1.943,1.943,1.943,1.943,1.943,1.943,1.943,1.943,1.943,1.9292,1.9118,1.8838,1.8584,1.8342,1.7996,1.7756,1.7756,1.7649,1.7554,1.738,1.6927,1.6513,1.6112,1.6099,1.6019,1.5784,1.6574,1.7232,1.7731,1.8457,1.9451,2.0612,2.0612,2.1033,2.1721,2.1721,2.1721,2.1765,2.2227,2.2403,2.2492,2.2906,2.3101,2.3101,2.3101,2.3101,2.3101,2.3101,2.3101,2.314,2.3457,2.3652,2.3887,2.4434,2.4512,2.4531,2.505,2.4922,2.4687,2.5117,2.5187,2.5226,2.5449,2.5304,2.5284,2.5615,2.5605,2.5391,2.5165,2.4922,2.4687,2.4238,0.0,2.3926,2.3926,2.3926,2.3926,2.3926,2.3926,2.3926,2.3926,2.4082,2.418,2.418,2.4316,2.4414,2.4414,2.3453,2.2649,2.2025,1.9448,1.8072,1.8072,1.8072,1.8148,1.8271,1.7691,1.7409,1.7361,1.6648,1.6206,1.6099,1.5912,1.5784,1.5784,1.5784,1.5784,1.5784,1.5784,1.5784,1.5784,1.5784,1.5784,1.5784,1.8905,1.9092,1.9252,1.9359,1.943,1.943,1.943,1.943,1.943,1.943,1.943,1.9252,1.8958,1.8664,1.837,1.8022,1.7756,1.7582,1.7582,1.7582,1.7501,1.7219,1.7005,1.69,1.7044,1.703,1.7161,1.7366,1.8267,1.8816,1.9094,1.9908,2.0842,2.1854,2.2028,2.2473,2.3101,2.3237,2.3218,2.3101,2.3101,2.3101,2.3101,2.3101,2.3179,2.3276,2.314,2.3276,2.3471,2.3335,2.3393,2.3549,2.3887,2.4082,2.4336,2.5059,2.5059,2.5,2.5742,2.5723,2.5527,2.5654,2.5693,2.5693,2.5693,2.5791,2.5937,2.5937,2.5937,2.5859,2.5547,2.5302,2.4961,2.4668,2.4512,2.4414,2.4414,2.4414,2.4414,2.4414,2.4414,2.4414,2.4414,2.4531,2.4629,2.4629,2.4746,2.4824,2.4824,2.3653,2.2964,2.2964,2.1588,2.0919,2.1024,2.0125,1.9757,1.9843,1.9304,1.9092,1.9043,1.8081,1.7412,1.6926,1.6572,1.6204,1.5965,1.5965,1.6019,1.6099,1.6099,1.6046,1.6027,1.6539,1.66,1.6494,1.8865,1.8918,1.9025,1.9319,1.943,1.943,1.943,1.943,1.943,1.943,1.943,1.9252,1.8958,1.8664,1.837,1.8022,1.7756,1.7582,1.7582,1.7582,1.7501,1.7219,1.7206,1.7654,1.8656,1.8705,1.9375,2.081,2.081,2.1212,2.1979,2.2025,2.2415,2.312,2.3594,2.3555,2.314,2.3613,2.3535,2.3101,2.3101,2.3101,2.3101,2.3101,2.3418,2.373,2.3257,2.3647,2.4355,2.3945,2.4062,2.4414,2.4414,2.4727,2.5204,2.5605,2.5693,2.5791,2.6269,2.6387,2.6289,2.581,2.5693,2.5693,2.5693,2.6074,2.6387,2.6387,2.6387,2.6387,2.6387,2.5712,2.5125,2.5125,2.4707,2.4434,2.4434,2.4434,2.4434,2.4434,2.4434,2.4434,2.4434,2.4824,2.5125,2.5125,2.5488,2.5693,2.5693,2.5312,2.5106,2.5106,2.4238,2.4004,2.4414,2.1567,2.0301,2.0618,2.1031,2.1197,2.118,2.0783,1.9766,1.8306,1.7881,1.7184,1.6321,1.6321,1.6496,1.67,1.67,1.6526,1.6508,1.8096,1.8252,1.7931,1.8597,1.8958,1.9199,1.9078,1.9225,1.943,1.943,1.943,1.943,1.943,1.943,1.9252,1.8958,1.8664,1.837,1.8022,1.7756,1.7582,1.7582,1.7582,1.7542,1.7462,1.7501,1.7974,1.905,1.905,1.9608,2.081,2.164,2.2203,2.2423,2.2997,2.3551,2.4023,2.3867,2.3711,2.3613,2.373,2.3711,2.3594,2.3594,2.3769,2.3978,2.3978,2.4121,2.4219,2.4082,2.4199,2.4394,2.4277,2.4316,2.4473,2.4785,2.5391,2.6016,2.6152,2.6406,2.666,2.6797,2.6836,2.6797,2.666,2.6641,2.6641,2.6641,2.6738,2.6836,2.6836,2.6836,2.6836,2.6836,2.6367,2.5996,2.5996,2.5625,2.5284,2.5284,2.5284,2.5284,2.5284,2.5284,2.5284,2.5284,2.5469,2.5527,2.5527,2.5615,2.5693,2.5693,2.5312,2.5106,2.5106,2.4531,2.4297,2.4414,2.3282,2.2916,2.3261,2.2697,2.2439,2.2439,2.1489,2.0785,2.0329,2.0022,1.975,1.9461,1.9461,1.9508,1.9456,1.8493,1.8056,1.7934,1.7456,1.7752,1.8323,1.8611,1.8945,1.9172,1.9105,1.9252,1.943,1.943,1.943,1.943,1.943,1.943,1.9212,1.8798,1.8597,1.8317,1.7903,1.7689,1.7582,1.7582,1.7582,1.7582,1.7582,1.8094,1.897,2.014,2.019,2.1031,2.272,2.3478,2.3644,2.3308,2.3821,2.4082,2.416,2.4082,2.4043,2.4043,2.4043,2.4043,2.4023,2.3848,2.4043,2.4414,2.4414,2.4531,2.4648,2.4473,2.4648,2.4902,2.4727,2.4785,2.5019,2.5449,2.5957,2.6426,2.6582,2.6816,2.7051,2.7226,2.7285,2.7324,2.748,2.7266,2.7012,2.7012,2.7148,2.7285,2.7285,2.7285,2.7285,2.7285,2.6934,2.6641,2.6641,2.6406,2.6142,2.6016,2.5996,2.5937,2.5713,2.5693,2.5693,2.5693,2.5693,2.5693,2.5693,2.5693,2.5693,2.5693,2.5488,2.5332,2.5332,2.4902,2.4766,2.4894,2.4512,2.4414,2.4687,2.4268,2.4089,2.4022,2.316,2.2487,2.2031,2.1652,2.1278,2.0978,2.0978,2.1062,2.1097,2.021,1.9784,1.9675,1.9518,1.946,1.9439,1.8811,1.8918,1.9011,1.9279,1.9403,1.943,1.943,1.943,1.943,1.943,1.943,1.9158,1.8584,1.8531,1.829,1.7716,1.7662,1.7635,1.7582,1.7609,1.7609,1.7582,1.8864,2.0231,2.1643,2.1794,2.3117,2.5693,2.5693,2.5284,2.4531,2.4492,2.4297,2.3984,2.4316,2.4473,2.4473,2.4473,2.4473,2.4434,2.4062,2.416,2.4531,2.4531,2.4785,2.5078,2.4727,2.5031,2.5635,2.5273,2.543,2.581,2.6269,2.6445,2.6582,2.6953,2.709,2.7207,2.7617,2.7767,2.7812,2.8203,2.7715,2.7129,2.7129,2.7441,2.7767,2.7767,2.7767,2.7767,2.7767,2.7363,2.707,2.707,2.7031,2.6875,2.6504,2.6406,2.625,2.5791,2.5713,2.5693,2.5693,2.5732,2.5771,2.5791,2.581,2.5791,2.5752,2.5752,2.5732,2.5693,2.5332,2.5332,2.5693,2.5332,2.5137,2.5184,2.5547,2.5693,2.5674,2.5312,2.4546,2.348,2.3067,2.2368,2.1592,2.1592,2.1794,2.2047,2.1963,2.1695,2.1593,2.2994,2.2383,2.1105,1.8811,1.8918,1.8945,1.9011,1.9212,1.943,1.943,1.943,1.943,1.943,1.943,1.9225,1.8865,1.8824,1.8691,1.8317,1.829,1.809,1.7609,1.7809,1.7836,1.7595,1.8864,2.0231,2.1643,2.2717,2.4048,2.5693,2.5693,2.5596,2.5401,2.5098,2.5059,2.5312,2.5039,2.4969,2.4969,2.4969,2.4969,2.4922,2.4824,2.5059,2.5401,2.5401,2.546,2.5625,2.5879,2.5859,2.5674,2.5577,2.5879,2.6269,2.6367,2.6855,2.7454,2.75,2.7754,2.8027,2.8125,2.8164,2.8184,2.8262,2.8144,2.8008,2.8008,2.8086,2.8164,2.8164,2.8164,2.8164,2.8164,2.7812,2.7519,2.7519,2.7246,2.6973,2.6894,2.6602,2.6348,2.625,2.5937,2.5693,2.5693,2.6055,2.6387,2.6719,2.6738,2.6602,2.6269,2.625,2.6094,2.5693,2.5644,2.5596,2.5693,2.5596,2.5586,2.5586,2.5635,2.5693,2.5693,2.5596,2.5441,2.5179,2.5054,2.4908,2.4722,2.4722,2.4779,2.4707,2.3683,2.3231,2.3061,2.2382,2.2514,2.3086,1.9052,1.9132,1.9132,1.9132,1.9265,1.943,1.943,1.943,1.943,1.943,1.943,1.9252,1.8958,1.8918,1.8811,1.8517,1.849,1.8673,1.907,1.9212,1.9477,1.9829,2.1362,2.2314,2.2667,2.4181,2.5229,2.5693,2.5693,2.5577,2.541,2.5176,2.5195,2.541,2.5176,2.5243,2.5371,2.5156,2.5195,2.5371,2.5204,2.5332,2.5713,2.5977,2.6055,2.6094,2.6543,2.6543,2.6298,2.6298,2.6504,2.6719,2.6934,2.7305,2.7767,2.791,2.8125,2.8301,2.8301,2.8301,2.8301,2.8301,2.8301,2.8301,2.8301,2.8301,2.8301,2.8301,2.8301,2.8301,2.8301,2.8105,2.7969,2.7969,2.7773,2.7559,2.7344,2.7129,2.6914,2.6719,2.6484,2.6298,2.6298,2.6562,2.6777,2.6992,2.7012,2.6914,2.6699,2.6504,2.6289,2.6055,2.5791,2.5693,2.5693,2.5693,2.5693,2.5693,2.5693,2.5693,2.5693,2.5693,2.5693,2.5693,2.5693,2.5693,2.5693,2.5693,2.5693,2.5645,2.4922,2.4658,2.4559,2.3899,2.3633,2.3683,1.9225,1.9292,1.9305,1.9417,1.943,1.943,1.943,1.943,1.943,1.943,1.943,1.9279,1.9025,1.9212,1.9372,1.9348,1.9361,1.9886,2.0993,2.1148,2.1509,2.2372,2.4052,2.4669,2.3949,2.5564,2.6172,2.5693,2.5693,2.5547,2.5176,2.5176,2.5176,2.5176,2.5176,2.5391,2.5674,2.5332,2.543,2.5771,2.5449,2.5566,2.5947,2.6367,2.6504,2.6543,2.6973,2.7129,2.7109,2.7031,2.707,2.7187,2.7559,2.7767,2.7904,2.8184,2.8301,2.8301,2.8301,2.8301,2.8301,2.8301,2.8301,2.832,2.8379,2.834,2.8301,2.8301,2.8301,2.8301,2.8301,2.8301,2.8301,2.8301,2.8301,2.8164,2.7865,2.7767,2.7591,2.7168,2.707,2.7051,2.7129,2.7129,2.7148,2.7226,2.7226,2.7207,2.7129,2.6797,2.6582,2.6504,2.6152,2.5908,2.5908,2.5908,2.5908,2.5908,2.5908,2.5869,2.5791,2.5732,2.5732,2.5791,2.5713,2.5693,2.5693,2.5693,2.5693,2.5693,2.5693,2.5693,2.5693,2.5693,2.502,2.4048,1.8878,1.8985,1.9065,1.9319,1.943,1.943,1.943,1.943,1.943,1.943,1.943,1.9359,1.9319,2.0473,2.1616,2.2644,2.2957,2.297,2.2622,2.2884,2.2954,2.2842,2.4193,2.4923,2.4814,2.585,2.6172,2.5693,2.5693,2.5654,2.5596,2.5596,2.5596,2.5596,2.5596,2.5635,2.5693,2.5615,2.5898,2.6289,2.623,2.6465,2.6855,2.6914,2.6934,2.6992,2.7422,2.763,2.7519,2.7148,2.7266,2.765,2.7708,2.791,2.8223,2.8281,2.8301,2.8301,2.8301,2.8301,2.8301,2.8301,2.8301,2.8398,2.875,2.8555,2.8301,2.8301,2.8301,2.8301,2.8301,2.8301,2.8301,2.8301,2.8301,2.8281,2.8223,2.7891,2.7689,2.763,2.7246,2.7168,2.7591,2.763,2.7734,2.8086,2.8125,2.7949,2.7598,2.7519,2.7324,2.6934,2.6875,2.6836,2.6836,2.6836,2.6836,2.6836,2.6836,2.666,2.6289,2.5918,2.5937,2.6289,2.5898,2.5693,2.5693,2.5693,2.5693,2.5693,2.5693,2.5693,2.5693,2.5693,2.5577,2.543,1.9092,1.9172,1.9212,1.9345,1.943,1.943,1.943,1.943,1.943,1.943,1.943,1.9707,2.0529,2.1926,2.3031,2.3607,2.3739,2.4077,2.468,2.482,2.5128,2.555,2.6386,2.6627,2.6121,2.6795,2.6894,2.6445,2.5927,2.5693,2.5693,2.5693,2.5693,2.5693,2.5693,2.5693,2.5713,2.5996,2.6211,2.6406,2.6641,2.6855,2.7031,2.7285,2.7383,2.7441,2.7871,2.8008,2.7988,2.7793,2.7851,2.8008,2.8008,2.8144,2.8301,2.8301,2.8301,2.8301,2.8301,2.8301,2.834,2.8574,2.8633,2.875,2.918,2.9141,2.8945,2.8691,2.8633,2.8574,2.834,2.8301,2.8301,2.8301,2.8301,2.8301,2.8301,2.8125,2.8008,2.8008,2.7851,2.7812,2.7988,2.8008,2.8086,2.8281,2.8301,2.8203,2.8027,2.7845,2.763,2.7383,2.7148,2.7012,2.7012,2.7012,2.7012,2.7012,2.7012,2.6914,2.6738,2.6543,2.6426,2.6387,2.6191,2.5957,2.5693,2.5693,2.5693,2.5693,2.5693,2.5693,2.5693,2.5693,2.5693,2.5693]}]]